<?xml version="1.0" encoding="UTF-8" standalone="no" ?>
<gpx xmlns="http://www.topografix.com/GPX/1/1" xmlns:xsi="http://www.w3.org/2001/XMLSchema-instance" xsi:schemaLocation="http://www.topografix.com/GPX/1/1 http://www.topografix.com/GPX/1/1/gpx.xsd" version="1.1" creator="VisuGPX - https://www.visugpx.com">
  <metadata>
    <name>2011-01-29 - SORTIE VTT N°02 - Givry Chatenois</name>
    <desc><![CDATA[Sortie VTT de CHALON SUR SAONE par GIVRY - CHATENOIS]]></desc>
  </metadata>
  <trk>
    <name><![CDATA[2011-01-29 - Givry -Chatenois]]></name>
    <desc><![CDATA[29 janv. 2011  1:52 pm]]></desc>
    <trkseg>
      <trkpt lat="46.78135" lon="4.85344">
        <ele>130.540368</ele>
        <time>2011-01-29T12:53:15Z</time>
      </trkpt>
      <trkpt lat="46.78124" lon="4.85365">
        <ele>130.512228</ele>
        <time>2011-01-29T12:54:14Z</time>
      </trkpt>
      <trkpt lat="46.78112" lon="4.85369">
        <ele>130.50173</ele>
        <time>2011-01-29T12:54:17Z</time>
      </trkpt>
      <trkpt lat="46.78101" lon="4.85368">
        <ele>130.501854</ele>
        <time>2011-01-29T12:54:20Z</time>
      </trkpt>
      <trkpt lat="46.78089" lon="4.85363">
        <ele>138.984345</ele>
        <time>2011-01-29T12:54:23Z</time>
      </trkpt>
      <trkpt lat="46.78084" lon="4.85353">
        <ele>161.071723</ele>
        <time>2011-01-29T12:54:25Z</time>
      </trkpt>
      <trkpt lat="46.78081" lon="4.85329">
        <ele>183.743249</ele>
        <time>2011-01-29T12:54:28Z</time>
      </trkpt>
      <trkpt lat="46.78078" lon="4.85307">
        <ele>194.498286</ele>
        <time>2011-01-29T12:54:30Z</time>
      </trkpt>
      <trkpt lat="46.78074" lon="4.85272">
        <ele>196.0238</ele>
        <time>2011-01-29T12:54:33Z</time>
      </trkpt>
      <trkpt lat="46.78064" lon="4.85241">
        <ele>193.742515</ele>
        <time>2011-01-29T12:54:36Z</time>
      </trkpt>
      <trkpt lat="46.78052" lon="4.85212">
        <ele>191.04971</ele>
        <time>2011-01-29T12:54:39Z</time>
      </trkpt>
      <trkpt lat="46.78038" lon="4.85183">
        <ele>189.179999</ele>
        <time>2011-01-29T12:54:42Z</time>
      </trkpt>
      <trkpt lat="46.78023" lon="4.85156">
        <ele>188.152884</ele>
        <time>2011-01-29T12:54:45Z</time>
      </trkpt>
      <trkpt lat="46.78007" lon="4.85132">
        <ele>187.604808</ele>
        <time>2011-01-29T12:54:48Z</time>
      </trkpt>
      <trkpt lat="46.77992" lon="4.85116">
        <ele>187.25783</ele>
        <time>2011-01-29T12:54:51Z</time>
      </trkpt>
      <trkpt lat="46.77981" lon="4.85108">
        <ele>186.986899</ele>
        <time>2011-01-29T12:54:54Z</time>
      </trkpt>
      <trkpt lat="46.7797" lon="4.85105">
        <ele>186.759729</ele>
        <time>2011-01-29T12:54:57Z</time>
      </trkpt>
      <trkpt lat="46.77958" lon="4.85105">
        <ele>186.564774</ele>
        <time>2011-01-29T12:55:00Z</time>
      </trkpt>
      <trkpt lat="46.77949" lon="4.85093">
        <ele>186.380844</ele>
        <time>2011-01-29T12:55:03Z</time>
      </trkpt>
      <trkpt lat="46.77942" lon="4.85078">
        <ele>186.210915</ele>
        <time>2011-01-29T12:55:06Z</time>
      </trkpt>
      <trkpt lat="46.77935" lon="4.85063">
        <ele>185.998063</ele>
        <time>2011-01-29T12:55:09Z</time>
      </trkpt>
      <trkpt lat="46.77935" lon="4.85063">
        <ele>185.703162</ele>
        <time>2011-01-29T12:55:12Z</time>
      </trkpt>
      <trkpt lat="46.77918" lon="4.8502">
        <ele>185.375084</ele>
        <time>2011-01-29T12:55:48Z</time>
      </trkpt>
      <trkpt lat="46.77914" lon="4.85006">
        <ele>184.991792</ele>
        <time>2011-01-29T12:55:51Z</time>
      </trkpt>
      <trkpt lat="46.77914" lon="4.85006">
        <ele>184.566104</ele>
        <time>2011-01-29T12:55:56Z</time>
      </trkpt>
      <trkpt lat="46.77895" lon="4.84991">
        <ele>184.234567</ele>
        <time>2011-01-29T12:56:02Z</time>
      </trkpt>
      <trkpt lat="46.77886" lon="4.84997">
        <ele>183.760824</ele>
        <time>2011-01-29T12:56:04Z</time>
      </trkpt>
      <trkpt lat="46.77872" lon="4.85008">
        <ele>182.92407</ele>
        <time>2011-01-29T12:56:07Z</time>
      </trkpt>
      <trkpt lat="46.7786" lon="4.85019">
        <ele>181.836865</ele>
        <time>2011-01-29T12:56:10Z</time>
      </trkpt>
      <trkpt lat="46.77845" lon="4.85032">
        <ele>180.728345</ele>
        <time>2011-01-29T12:56:13Z</time>
      </trkpt>
      <trkpt lat="46.77835" lon="4.85036">
        <ele>179.929946</ele>
        <time>2011-01-29T12:56:15Z</time>
      </trkpt>
      <trkpt lat="46.77823" lon="4.85036">
        <ele>179.645419</ele>
        <time>2011-01-29T12:56:17Z</time>
      </trkpt>
      <trkpt lat="46.77807" lon="4.85027">
        <ele>179.749683</ele>
        <time>2011-01-29T12:56:20Z</time>
      </trkpt>
      <trkpt lat="46.77797" lon="4.85016">
        <ele>180.197691</ele>
        <time>2011-01-29T12:56:22Z</time>
      </trkpt>
      <trkpt lat="46.77786" lon="4.85001">
        <ele>180.818732</ele>
        <time>2011-01-29T12:56:24Z</time>
      </trkpt>
      <trkpt lat="46.77769" lon="4.84973">
        <ele>181.278527</ele>
        <time>2011-01-29T12:56:27Z</time>
      </trkpt>
      <trkpt lat="46.77757" lon="4.84955">
        <ele>181.447328</ele>
        <time>2011-01-29T12:56:29Z</time>
      </trkpt>
      <trkpt lat="46.77741" lon="4.84927">
        <ele>181.388997</ele>
        <time>2011-01-29T12:56:32Z</time>
      </trkpt>
      <trkpt lat="46.77731" lon="4.84909">
        <ele>181.011179</ele>
        <time>2011-01-29T12:56:34Z</time>
      </trkpt>
      <trkpt lat="46.77715" lon="4.84881">
        <ele>180.153005</ele>
        <time>2011-01-29T12:56:37Z</time>
      </trkpt>
      <trkpt lat="46.777" lon="4.84855">
        <ele>178.887487</ele>
        <time>2011-01-29T12:56:40Z</time>
      </trkpt>
      <trkpt lat="46.77683" lon="4.84827">
        <ele>177.568573</ele>
        <time>2011-01-29T12:56:43Z</time>
      </trkpt>
      <trkpt lat="46.77671" lon="4.84809">
        <ele>176.508511</ele>
        <time>2011-01-29T12:56:45Z</time>
      </trkpt>
      <trkpt lat="46.77654" lon="4.84782">
        <ele>175.587947</ele>
        <time>2011-01-29T12:56:48Z</time>
      </trkpt>
      <trkpt lat="46.77638" lon="4.84756">
        <ele>174.464398</ele>
        <time>2011-01-29T12:56:51Z</time>
      </trkpt>
      <trkpt lat="46.77623" lon="4.8473">
        <ele>173.152718</ele>
        <time>2011-01-29T12:56:54Z</time>
      </trkpt>
      <trkpt lat="46.77614" lon="4.84713">
        <ele>171.923282</ele>
        <time>2011-01-29T12:56:56Z</time>
      </trkpt>
      <trkpt lat="46.776" lon="4.84688">
        <ele>170.954006</ele>
        <time>2011-01-29T12:56:59Z</time>
      </trkpt>
      <trkpt lat="46.7759" lon="4.84672">
        <ele>170.291044</ele>
        <time>2011-01-29T12:57:01Z</time>
      </trkpt>
      <trkpt lat="46.77574" lon="4.84648">
        <ele>169.881338</ele>
        <time>2011-01-29T12:57:04Z</time>
      </trkpt>
      <trkpt lat="46.77564" lon="4.84633">
        <ele>169.594304</ele>
        <time>2011-01-29T12:57:06Z</time>
      </trkpt>
      <trkpt lat="46.77546" lon="4.84611">
        <ele>169.334993</ele>
        <time>2011-01-29T12:57:09Z</time>
      </trkpt>
      <trkpt lat="46.77534" lon="4.84598">
        <ele>169.074984</ele>
        <time>2011-01-29T12:57:11Z</time>
      </trkpt>
      <trkpt lat="46.77521" lon="4.84586">
        <ele>168.816159</ele>
        <time>2011-01-29T12:57:13Z</time>
      </trkpt>
      <trkpt lat="46.77502" lon="4.84569">
        <ele>168.55134</ele>
        <time>2011-01-29T12:57:16Z</time>
      </trkpt>
      <trkpt lat="46.77489" lon="4.84559">
        <ele>168.287312</ele>
        <time>2011-01-29T12:57:18Z</time>
      </trkpt>
      <trkpt lat="46.77469" lon="4.84543">
        <ele>168.059631</ele>
        <time>2011-01-29T12:57:21Z</time>
      </trkpt>
      <trkpt lat="46.77456" lon="4.84532">
        <ele>167.915385</ele>
        <time>2011-01-29T12:57:23Z</time>
      </trkpt>
      <trkpt lat="46.77442" lon="4.84522">
        <ele>167.856075</ele>
        <time>2011-01-29T12:57:25Z</time>
      </trkpt>
      <trkpt lat="46.77421" lon="4.84507">
        <ele>167.842453</ele>
        <time>2011-01-29T12:57:28Z</time>
      </trkpt>
      <trkpt lat="46.77407" lon="4.84498">
        <ele>167.838613</ele>
        <time>2011-01-29T12:57:30Z</time>
      </trkpt>
      <trkpt lat="46.77386" lon="4.84486">
        <ele>167.828586</ele>
        <time>2011-01-29T12:57:33Z</time>
      </trkpt>
      <trkpt lat="46.77372" lon="4.84479">
        <ele>167.775692</ele>
        <time>2011-01-29T12:57:35Z</time>
      </trkpt>
      <trkpt lat="46.77358" lon="4.84471">
        <ele>167.644701</ele>
        <time>2011-01-29T12:57:37Z</time>
      </trkpt>
      <trkpt lat="46.77338" lon="4.84461">
        <ele>167.441614</ele>
        <time>2011-01-29T12:57:40Z</time>
      </trkpt>
      <trkpt lat="46.77316" lon="4.84451">
        <ele>167.200912</ele>
        <time>2011-01-29T12:57:43Z</time>
      </trkpt>
      <trkpt lat="46.77302" lon="4.84444">
        <ele>166.964091</ele>
        <time>2011-01-29T12:57:45Z</time>
      </trkpt>
      <trkpt lat="46.77281" lon="4.84433">
        <ele>166.722468</ele>
        <time>2011-01-29T12:57:48Z</time>
      </trkpt>
      <trkpt lat="46.7726" lon="4.84423">
        <ele>166.328698</ele>
        <time>2011-01-29T12:57:51Z</time>
      </trkpt>
      <trkpt lat="46.77246" lon="4.84418">
        <ele>165.695088</ele>
        <time>2011-01-29T12:57:53Z</time>
      </trkpt>
      <trkpt lat="46.77231" lon="4.84412">
        <ele>165.007428</ele>
        <time>2011-01-29T12:57:55Z</time>
      </trkpt>
      <trkpt lat="46.7721" lon="4.84402">
        <ele>164.531231</ele>
        <time>2011-01-29T12:57:58Z</time>
      </trkpt>
      <trkpt lat="46.7719" lon="4.84393">
        <ele>164.330239</ele>
        <time>2011-01-29T12:58:01Z</time>
      </trkpt>
      <trkpt lat="46.77169" lon="4.84385">
        <ele>164.298213</ele>
        <time>2011-01-29T12:58:04Z</time>
      </trkpt>
      <trkpt lat="46.77156" lon="4.8438">
        <ele>164.311687</ele>
        <time>2011-01-29T12:58:06Z</time>
      </trkpt>
      <trkpt lat="46.77135" lon="4.84373">
        <ele>164.299022</ele>
        <time>2011-01-29T12:58:09Z</time>
      </trkpt>
      <trkpt lat="46.77114" lon="4.84367">
        <ele>164.202361</ele>
        <time>2011-01-29T12:58:12Z</time>
      </trkpt>
      <trkpt lat="46.771" lon="4.84363">
        <ele>164.020323</ele>
        <time>2011-01-29T12:58:14Z</time>
      </trkpt>
      <trkpt lat="46.7708" lon="4.84358">
        <ele>163.774043</ele>
        <time>2011-01-29T12:58:17Z</time>
      </trkpt>
      <trkpt lat="46.77066" lon="4.84355">
        <ele>163.427297</ele>
        <time>2011-01-29T12:58:19Z</time>
      </trkpt>
      <trkpt lat="46.77047" lon="4.84351">
        <ele>163.039289</ele>
        <time>2011-01-29T12:58:22Z</time>
      </trkpt>
      <trkpt lat="46.77027" lon="4.84348">
        <ele>162.778987</ele>
        <time>2011-01-29T12:58:25Z</time>
      </trkpt>
      <trkpt lat="46.77009" lon="4.84344">
        <ele>162.693802</ele>
        <time>2011-01-29T12:58:28Z</time>
      </trkpt>
      <trkpt lat="46.76997" lon="4.84341">
        <ele>162.710004</ele>
        <time>2011-01-29T12:58:30Z</time>
      </trkpt>
      <trkpt lat="46.76979" lon="4.84339">
        <ele>162.757747</ele>
        <time>2011-01-29T12:58:33Z</time>
      </trkpt>
      <trkpt lat="46.7696" lon="4.84336">
        <ele>162.795126</ele>
        <time>2011-01-29T12:58:36Z</time>
      </trkpt>
      <trkpt lat="46.76939" lon="4.84336">
        <ele>162.80963</ele>
        <time>2011-01-29T12:58:39Z</time>
      </trkpt>
      <trkpt lat="46.76919" lon="4.84335">
        <ele>162.755063</ele>
        <time>2011-01-29T12:58:42Z</time>
      </trkpt>
      <trkpt lat="46.76893" lon="4.84344">
        <ele>162.523064</ele>
        <time>2011-01-29T12:58:44Z</time>
      </trkpt>
      <trkpt lat="46.76879" lon="4.84344">
        <ele>162.151364</ele>
        <time>2011-01-29T12:58:46Z</time>
      </trkpt>
      <trkpt lat="46.76861" lon="4.84344">
        <ele>161.852691</ele>
        <time>2011-01-29T12:58:49Z</time>
      </trkpt>
      <trkpt lat="46.7684" lon="4.84345">
        <ele>161.734004</ele>
        <time>2011-01-29T12:58:52Z</time>
      </trkpt>
      <trkpt lat="46.7682" lon="4.84346">
        <ele>161.777442</ele>
        <time>2011-01-29T12:58:55Z</time>
      </trkpt>
      <trkpt lat="46.76807" lon="4.84345">
        <ele>162.123392</ele>
        <time>2011-01-29T12:58:57Z</time>
      </trkpt>
      <trkpt lat="46.76787" lon="4.84343">
        <ele>163.023191</ele>
        <time>2011-01-29T12:59:00Z</time>
      </trkpt>
      <trkpt lat="46.76773" lon="4.84339">
        <ele>164.522252</ele>
        <time>2011-01-29T12:59:02Z</time>
      </trkpt>
      <trkpt lat="46.7676" lon="4.84335">
        <ele>166.293972</ele>
        <time>2011-01-29T12:59:04Z</time>
      </trkpt>
      <trkpt lat="46.76746" lon="4.8433">
        <ele>167.904059</ele>
        <time>2011-01-29T12:59:06Z</time>
      </trkpt>
      <trkpt lat="46.76733" lon="4.84323">
        <ele>169.122568</ele>
        <time>2011-01-29T12:59:08Z</time>
      </trkpt>
      <trkpt lat="46.76713" lon="4.84313">
        <ele>169.942516</ele>
        <time>2011-01-29T12:59:11Z</time>
      </trkpt>
      <trkpt lat="46.767" lon="4.84305">
        <ele>170.477764</ele>
        <time>2011-01-29T12:59:13Z</time>
      </trkpt>
      <trkpt lat="46.76687" lon="4.84297">
        <ele>170.884649</ele>
        <time>2011-01-29T12:59:15Z</time>
      </trkpt>
      <trkpt lat="46.76668" lon="4.84286">
        <ele>171.223943</ele>
        <time>2011-01-29T12:59:18Z</time>
      </trkpt>
      <trkpt lat="46.76656" lon="4.84279">
        <ele>171.460452</ele>
        <time>2011-01-29T12:59:20Z</time>
      </trkpt>
      <trkpt lat="46.76638" lon="4.84267">
        <ele>171.567287</ele>
        <time>2011-01-29T12:59:23Z</time>
      </trkpt>
      <trkpt lat="46.76626" lon="4.8426">
        <ele>171.580238</ele>
        <time>2011-01-29T12:59:25Z</time>
      </trkpt>
      <trkpt lat="46.76613" lon="4.84253">
        <ele>171.557505</ele>
        <time>2011-01-29T12:59:27Z</time>
      </trkpt>
      <trkpt lat="46.76594" lon="4.84243">
        <ele>171.532876</ele>
        <time>2011-01-29T12:59:30Z</time>
      </trkpt>
      <trkpt lat="46.76575" lon="4.84235">
        <ele>171.517678</ele>
        <time>2011-01-29T12:59:33Z</time>
      </trkpt>
      <trkpt lat="46.76562" lon="4.84223">
        <ele>171.504955</ele>
        <time>2011-01-29T12:59:36Z</time>
      </trkpt>
      <trkpt lat="46.76555" lon="4.84211">
        <ele>171.475097</ele>
        <time>2011-01-29T12:59:38Z</time>
      </trkpt>
      <trkpt lat="46.76546" lon="4.84192">
        <ele>171.374586</ele>
        <time>2011-01-29T12:59:41Z</time>
      </trkpt>
      <trkpt lat="46.76531" lon="4.84185">
        <ele>171.150847</ele>
        <time>2011-01-29T12:59:44Z</time>
      </trkpt>
      <trkpt lat="46.76516" lon="4.84184">
        <ele>170.845961</ele>
        <time>2011-01-29T12:59:47Z</time>
      </trkpt>
      <trkpt lat="46.76505" lon="4.84181">
        <ele>170.525563</ele>
        <time>2011-01-29T12:59:49Z</time>
      </trkpt>
      <trkpt lat="46.76488" lon="4.8417">
        <ele>170.133602</ele>
        <time>2011-01-29T12:59:52Z</time>
      </trkpt>
      <trkpt lat="46.76478" lon="4.84163">
        <ele>169.615181</ele>
        <time>2011-01-29T12:59:54Z</time>
      </trkpt>
      <trkpt lat="46.76464" lon="4.84149">
        <ele>169.092308</ele>
        <time>2011-01-29T12:59:57Z</time>
      </trkpt>
      <trkpt lat="46.76457" lon="4.8414">
        <ele>168.721984</ele>
        <time>2011-01-29T12:59:59Z</time>
      </trkpt>
      <trkpt lat="46.76446" lon="4.84125">
        <ele>168.510854</ele>
        <time>2011-01-29T13:00:02Z</time>
      </trkpt>
      <trkpt lat="46.76439" lon="4.84116">
        <ele>168.358292</ele>
        <time>2011-01-29T13:00:04Z</time>
      </trkpt>
      <trkpt lat="46.7643" lon="4.84101">
        <ele>168.155089</ele>
        <time>2011-01-29T13:00:07Z</time>
      </trkpt>
      <trkpt lat="46.76421" lon="4.84088">
        <ele>167.826059</ele>
        <time>2011-01-29T13:00:10Z</time>
      </trkpt>
      <trkpt lat="46.76397" lon="4.84048">
        <ele>167.439144</ele>
        <time>2011-01-29T13:00:13Z</time>
      </trkpt>
      <trkpt lat="46.76391" lon="4.84038">
        <ele>167.165328</ele>
        <time>2011-01-29T13:00:16Z</time>
      </trkpt>
      <trkpt lat="46.76383" lon="4.84027">
        <ele>167.069668</ele>
        <time>2011-01-29T13:00:19Z</time>
      </trkpt>
      <trkpt lat="46.76376" lon="4.84016">
        <ele>167.119211</ele>
        <time>2011-01-29T13:00:22Z</time>
      </trkpt>
      <trkpt lat="46.76369" lon="4.84005">
        <ele>167.462697</ele>
        <time>2011-01-29T13:00:25Z</time>
      </trkpt>
      <trkpt lat="46.76362" lon="4.83994">
        <ele>168.345746</ele>
        <time>2011-01-29T13:00:28Z</time>
      </trkpt>
      <trkpt lat="46.76355" lon="4.83982">
        <ele>169.63909</ele>
        <time>2011-01-29T13:00:31Z</time>
      </trkpt>
      <trkpt lat="46.76348" lon="4.83972">
        <ele>170.875705</ele>
        <time>2011-01-29T13:00:34Z</time>
      </trkpt>
      <trkpt lat="46.76343" lon="4.83962">
        <ele>171.757226</ele>
        <time>2011-01-29T13:00:37Z</time>
      </trkpt>
      <trkpt lat="46.76341" lon="4.83947">
        <ele>172.261236</ele>
        <time>2011-01-29T13:00:40Z</time>
      </trkpt>
      <trkpt lat="46.76336" lon="4.83936">
        <ele>172.479546</ele>
        <time>2011-01-29T13:00:43Z</time>
      </trkpt>
      <trkpt lat="46.76328" lon="4.83928">
        <ele>172.547562</ele>
        <time>2011-01-29T13:00:46Z</time>
      </trkpt>
      <trkpt lat="46.76323" lon="4.83916">
        <ele>172.577841</ele>
        <time>2011-01-29T13:00:49Z</time>
      </trkpt>
      <trkpt lat="46.76318" lon="4.83901">
        <ele>172.631339</ele>
        <time>2011-01-29T13:00:52Z</time>
      </trkpt>
      <trkpt lat="46.76313" lon="4.83886">
        <ele>172.723987</ele>
        <time>2011-01-29T13:00:55Z</time>
      </trkpt>
      <trkpt lat="46.76308" lon="4.8387">
        <ele>172.839439</ele>
        <time>2011-01-29T13:00:58Z</time>
      </trkpt>
      <trkpt lat="46.76302" lon="4.83853">
        <ele>172.943532</ele>
        <time>2011-01-29T13:01:01Z</time>
      </trkpt>
      <trkpt lat="46.76295" lon="4.83833">
        <ele>173.018349</ele>
        <time>2011-01-29T13:01:04Z</time>
      </trkpt>
      <trkpt lat="46.76287" lon="4.83812">
        <ele>173.081039</ele>
        <time>2011-01-29T13:01:07Z</time>
      </trkpt>
      <trkpt lat="46.76279" lon="4.83793">
        <ele>173.175731</ele>
        <time>2011-01-29T13:01:10Z</time>
      </trkpt>
      <trkpt lat="46.76273" lon="4.83779">
        <ele>173.347373</ele>
        <time>2011-01-29T13:01:12Z</time>
      </trkpt>
      <trkpt lat="46.76265" lon="4.83757">
        <ele>173.568756</ele>
        <time>2011-01-29T13:01:15Z</time>
      </trkpt>
      <trkpt lat="46.76256" lon="4.83737">
        <ele>173.794063</ele>
        <time>2011-01-29T13:01:18Z</time>
      </trkpt>
      <trkpt lat="46.76246" lon="4.83717">
        <ele>174.003627</ele>
        <time>2011-01-29T13:01:21Z</time>
      </trkpt>
      <trkpt lat="46.76232" lon="4.83702">
        <ele>174.147896</ele>
        <time>2011-01-29T13:01:24Z</time>
      </trkpt>
      <trkpt lat="46.76222" lon="4.83693">
        <ele>174.196672</ele>
        <time>2011-01-29T13:01:26Z</time>
      </trkpt>
      <trkpt lat="46.76207" lon="4.8368">
        <ele>174.18734</ele>
        <time>2011-01-29T13:01:29Z</time>
      </trkpt>
      <trkpt lat="46.76192" lon="4.83663">
        <ele>174.13619</ele>
        <time>2011-01-29T13:01:32Z</time>
      </trkpt>
      <trkpt lat="46.76185" lon="4.83647">
        <ele>174.033584</ele>
        <time>2011-01-29T13:01:34Z</time>
      </trkpt>
      <trkpt lat="46.76178" lon="4.83622">
        <ele>173.866042</ele>
        <time>2011-01-29T13:01:37Z</time>
      </trkpt>
      <trkpt lat="46.76174" lon="4.83605">
        <ele>173.653769</ele>
        <time>2011-01-29T13:01:39Z</time>
      </trkpt>
      <trkpt lat="46.76167" lon="4.83577">
        <ele>173.468845</ele>
        <time>2011-01-29T13:01:42Z</time>
      </trkpt>
      <trkpt lat="46.76159" lon="4.83547">
        <ele>173.351101</ele>
        <time>2011-01-29T13:01:45Z</time>
      </trkpt>
      <trkpt lat="46.76151" lon="4.83517">
        <ele>173.268952</ele>
        <time>2011-01-29T13:01:48Z</time>
      </trkpt>
      <trkpt lat="46.7614" lon="4.8349">
        <ele>173.205643</ele>
        <time>2011-01-29T13:01:51Z</time>
      </trkpt>
      <trkpt lat="46.76138" lon="4.83465">
        <ele>173.167832</ele>
        <time>2011-01-29T13:01:53Z</time>
      </trkpt>
      <trkpt lat="46.76149" lon="4.83433">
        <ele>173.140058</ele>
        <time>2011-01-29T13:01:56Z</time>
      </trkpt>
      <trkpt lat="46.76158" lon="4.83417">
        <ele>173.083819</ele>
        <time>2011-01-29T13:01:58Z</time>
      </trkpt>
      <trkpt lat="46.76166" lon="4.83393">
        <ele>172.945932</ele>
        <time>2011-01-29T13:02:01Z</time>
      </trkpt>
      <trkpt lat="46.76169" lon="4.8337">
        <ele>172.607751</ele>
        <time>2011-01-29T13:02:04Z</time>
      </trkpt>
      <trkpt lat="46.76173" lon="4.83348">
        <ele>171.977163</ele>
        <time>2011-01-29T13:02:07Z</time>
      </trkpt>
      <trkpt lat="46.76176" lon="4.83326">
        <ele>171.128201</ele>
        <time>2011-01-29T13:02:10Z</time>
      </trkpt>
      <trkpt lat="46.76178" lon="4.83311">
        <ele>170.203399</ele>
        <time>2011-01-29T13:02:12Z</time>
      </trkpt>
      <trkpt lat="46.76181" lon="4.83296">
        <ele>169.217206</ele>
        <time>2011-01-29T13:02:14Z</time>
      </trkpt>
      <trkpt lat="46.76185" lon="4.83274">
        <ele>168.072028</ele>
        <time>2011-01-29T13:02:17Z</time>
      </trkpt>
      <trkpt lat="46.76188" lon="4.83252">
        <ele>166.746556</ele>
        <time>2011-01-29T13:02:20Z</time>
      </trkpt>
      <trkpt lat="46.76192" lon="4.83232">
        <ele>165.440834</ele>
        <time>2011-01-29T13:02:23Z</time>
      </trkpt>
      <trkpt lat="46.76195" lon="4.83212">
        <ele>164.376478</ele>
        <time>2011-01-29T13:02:26Z</time>
      </trkpt>
      <trkpt lat="46.76199" lon="4.83191">
        <ele>163.601279</ele>
        <time>2011-01-29T13:02:29Z</time>
      </trkpt>
      <trkpt lat="46.76203" lon="4.8317">
        <ele>163.031884</ele>
        <time>2011-01-29T13:02:32Z</time>
      </trkpt>
      <trkpt lat="46.76207" lon="4.83156">
        <ele>162.621662</ele>
        <time>2011-01-29T13:02:34Z</time>
      </trkpt>
      <trkpt lat="46.76213" lon="4.83135">
        <ele>162.398278</ele>
        <time>2011-01-29T13:02:37Z</time>
      </trkpt>
      <trkpt lat="46.7622" lon="4.83115">
        <ele>162.347183</ele>
        <time>2011-01-29T13:02:40Z</time>
      </trkpt>
      <trkpt lat="46.76229" lon="4.83093">
        <ele>162.450262</ele>
        <time>2011-01-29T13:02:43Z</time>
      </trkpt>
      <trkpt lat="46.76238" lon="4.83072">
        <ele>162.76655</ele>
        <time>2011-01-29T13:02:46Z</time>
      </trkpt>
      <trkpt lat="46.76248" lon="4.83053">
        <ele>163.264187</ele>
        <time>2011-01-29T13:02:49Z</time>
      </trkpt>
      <trkpt lat="46.76259" lon="4.83034">
        <ele>163.798667</ele>
        <time>2011-01-29T13:02:52Z</time>
      </trkpt>
      <trkpt lat="46.76271" lon="4.83016">
        <ele>164.257166</ele>
        <time>2011-01-29T13:02:55Z</time>
      </trkpt>
      <trkpt lat="46.76283" lon="4.82999">
        <ele>164.570219</ele>
        <time>2011-01-29T13:02:58Z</time>
      </trkpt>
      <trkpt lat="46.76291" lon="4.82986">
        <ele>164.711214</ele>
        <time>2011-01-29T13:03:00Z</time>
      </trkpt>
      <trkpt lat="46.76303" lon="4.82967">
        <ele>164.730218</ele>
        <time>2011-01-29T13:03:03Z</time>
      </trkpt>
      <trkpt lat="46.7631" lon="4.82955">
        <ele>164.708367</ele>
        <time>2011-01-29T13:03:05Z</time>
      </trkpt>
      <trkpt lat="46.7632" lon="4.82936">
        <ele>164.688697</ele>
        <time>2011-01-29T13:03:08Z</time>
      </trkpt>
      <trkpt lat="46.76327" lon="4.82922">
        <ele>164.699459</ele>
        <time>2011-01-29T13:03:10Z</time>
      </trkpt>
      <trkpt lat="46.76334" lon="4.82908">
        <ele>164.803985</ele>
        <time>2011-01-29T13:03:12Z</time>
      </trkpt>
      <trkpt lat="46.76344" lon="4.82887">
        <ele>165.046196</ele>
        <time>2011-01-29T13:03:15Z</time>
      </trkpt>
      <trkpt lat="46.76351" lon="4.82873">
        <ele>165.337711</ele>
        <time>2011-01-29T13:03:17Z</time>
      </trkpt>
      <trkpt lat="46.76358" lon="4.8286">
        <ele>165.533327</ele>
        <time>2011-01-29T13:03:19Z</time>
      </trkpt>
      <trkpt lat="46.76367" lon="4.82838">
        <ele>165.597364</ele>
        <time>2011-01-29T13:03:22Z</time>
      </trkpt>
      <trkpt lat="46.76374" lon="4.82815">
        <ele>165.565249</ele>
        <time>2011-01-29T13:03:25Z</time>
      </trkpt>
      <trkpt lat="46.7638" lon="4.82792">
        <ele>165.396475</ele>
        <time>2011-01-29T13:03:28Z</time>
      </trkpt>
      <trkpt lat="46.76384" lon="4.82775">
        <ele>165.007072</ele>
        <time>2011-01-29T13:03:30Z</time>
      </trkpt>
      <trkpt lat="46.7639" lon="4.82751">
        <ele>164.450417</ele>
        <time>2011-01-29T13:03:33Z</time>
      </trkpt>
      <trkpt lat="46.76396" lon="4.82727">
        <ele>163.948052</ele>
        <time>2011-01-29T13:03:36Z</time>
      </trkpt>
      <trkpt lat="46.76399" lon="4.82711">
        <ele>163.672116</ele>
        <time>2011-01-29T13:03:38Z</time>
      </trkpt>
      <trkpt lat="46.76404" lon="4.82688">
        <ele>163.604614</ele>
        <time>2011-01-29T13:03:41Z</time>
      </trkpt>
      <trkpt lat="46.76406" lon="4.82671">
        <ele>163.635618</ele>
        <time>2011-01-29T13:03:43Z</time>
      </trkpt>
      <trkpt lat="46.76407" lon="4.82647">
        <ele>163.731986</ele>
        <time>2011-01-29T13:03:46Z</time>
      </trkpt>
      <trkpt lat="46.76406" lon="4.82631">
        <ele>164.036009</ele>
        <time>2011-01-29T13:03:48Z</time>
      </trkpt>
      <trkpt lat="46.76403" lon="4.82607">
        <ele>164.657058</ele>
        <time>2011-01-29T13:03:51Z</time>
      </trkpt>
      <trkpt lat="46.76399" lon="4.82587">
        <ele>165.497876</ele>
        <time>2011-01-29T13:03:54Z</time>
      </trkpt>
      <trkpt lat="46.76393" lon="4.82566">
        <ele>166.38638</ele>
        <time>2011-01-29T13:03:57Z</time>
      </trkpt>
      <trkpt lat="46.76386" lon="4.82545">
        <ele>167.302318</ele>
        <time>2011-01-29T13:04:00Z</time>
      </trkpt>
      <trkpt lat="46.76382" lon="4.82531">
        <ele>168.195753</ele>
        <time>2011-01-29T13:04:02Z</time>
      </trkpt>
      <trkpt lat="46.76375" lon="4.82509">
        <ele>168.832817</ele>
        <time>2011-01-29T13:04:05Z</time>
      </trkpt>
      <trkpt lat="46.76371" lon="4.82484">
        <ele>169.108804</ele>
        <time>2011-01-29T13:04:08Z</time>
      </trkpt>
      <trkpt lat="46.76371" lon="4.82467">
        <ele>169.210068</ele>
        <time>2011-01-29T13:04:10Z</time>
      </trkpt>
      <trkpt lat="46.76374" lon="4.82449">
        <ele>169.274121</ele>
        <time>2011-01-29T13:04:12Z</time>
      </trkpt>
      <trkpt lat="46.76387" lon="4.82431">
        <ele>169.313181</ele>
        <time>2011-01-29T13:04:15Z</time>
      </trkpt>
      <trkpt lat="46.76402" lon="4.82419">
        <ele>169.391172</ele>
        <time>2011-01-29T13:04:18Z</time>
      </trkpt>
      <trkpt lat="46.76413" lon="4.82412">
        <ele>169.656947</ele>
        <time>2011-01-29T13:04:20Z</time>
      </trkpt>
      <trkpt lat="46.76424" lon="4.82405">
        <ele>170.203685</ele>
        <time>2011-01-29T13:04:22Z</time>
      </trkpt>
      <trkpt lat="46.76441" lon="4.82394">
        <ele>170.938214</ele>
        <time>2011-01-29T13:04:25Z</time>
      </trkpt>
      <trkpt lat="46.76452" lon="4.82388">
        <ele>171.609563</ele>
        <time>2011-01-29T13:04:27Z</time>
      </trkpt>
      <trkpt lat="46.76462" lon="4.82382">
        <ele>172.028824</ele>
        <time>2011-01-29T13:04:29Z</time>
      </trkpt>
      <trkpt lat="46.76477" lon="4.82371">
        <ele>172.238154</ele>
        <time>2011-01-29T13:04:32Z</time>
      </trkpt>
      <trkpt lat="46.76487" lon="4.82363">
        <ele>172.369934</ele>
        <time>2011-01-29T13:04:34Z</time>
      </trkpt>
      <trkpt lat="46.765" lon="4.82345">
        <ele>172.474675</ele>
        <time>2011-01-29T13:04:37Z</time>
      </trkpt>
      <trkpt lat="46.76512" lon="4.82326">
        <ele>172.541607</ele>
        <time>2011-01-29T13:04:40Z</time>
      </trkpt>
      <trkpt lat="46.76519" lon="4.82314">
        <ele>172.58526</ele>
        <time>2011-01-29T13:04:42Z</time>
      </trkpt>
      <trkpt lat="46.7653" lon="4.82295">
        <ele>172.665092</ele>
        <time>2011-01-29T13:04:45Z</time>
      </trkpt>
      <trkpt lat="46.76541" lon="4.82276">
        <ele>172.852068</ele>
        <time>2011-01-29T13:04:48Z</time>
      </trkpt>
      <trkpt lat="46.76548" lon="4.82264">
        <ele>173.116441</ele>
        <time>2011-01-29T13:04:50Z</time>
      </trkpt>
      <trkpt lat="46.76558" lon="4.82247">
        <ele>173.327329</ele>
        <time>2011-01-29T13:04:53Z</time>
      </trkpt>
      <trkpt lat="46.76567" lon="4.8223">
        <ele>173.41591</ele>
        <time>2011-01-29T13:04:56Z</time>
      </trkpt>
      <trkpt lat="46.76574" lon="4.82219">
        <ele>173.422434</ele>
        <time>2011-01-29T13:04:58Z</time>
      </trkpt>
      <trkpt lat="46.76585" lon="4.82201">
        <ele>173.347449</ele>
        <time>2011-01-29T13:05:01Z</time>
      </trkpt>
      <trkpt lat="46.76595" lon="4.82181">
        <ele>173.066302</ele>
        <time>2011-01-29T13:05:04Z</time>
      </trkpt>
      <trkpt lat="46.76604" lon="4.82161">
        <ele>172.41823</ele>
        <time>2011-01-29T13:05:07Z</time>
      </trkpt>
      <trkpt lat="46.76612" lon="4.82141">
        <ele>171.391351</ele>
        <time>2011-01-29T13:05:10Z</time>
      </trkpt>
      <trkpt lat="46.76617" lon="4.82128">
        <ele>170.314123</ele>
        <time>2011-01-29T13:05:12Z</time>
      </trkpt>
      <trkpt lat="46.76625" lon="4.82109">
        <ele>169.628407</ele>
        <time>2011-01-29T13:05:15Z</time>
      </trkpt>
      <trkpt lat="46.7663" lon="4.82096">
        <ele>169.419699</ele>
        <time>2011-01-29T13:05:17Z</time>
      </trkpt>
      <trkpt lat="46.76636" lon="4.82083">
        <ele>169.498141</ele>
        <time>2011-01-29T13:05:19Z</time>
      </trkpt>
      <trkpt lat="46.76645" lon="4.82065">
        <ele>169.785043</ele>
        <time>2011-01-29T13:05:22Z</time>
      </trkpt>
      <trkpt lat="46.76651" lon="4.82053">
        <ele>170.254023</ele>
        <time>2011-01-29T13:05:24Z</time>
      </trkpt>
      <trkpt lat="46.76659" lon="4.82034">
        <ele>170.760285</ele>
        <time>2011-01-29T13:05:27Z</time>
      </trkpt>
      <trkpt lat="46.76667" lon="4.82014">
        <ele>171.128534</ele>
        <time>2011-01-29T13:05:30Z</time>
      </trkpt>
      <trkpt lat="46.76672" lon="4.82001">
        <ele>171.3292</ele>
        <time>2011-01-29T13:05:32Z</time>
      </trkpt>
      <trkpt lat="46.7668" lon="4.81985">
        <ele>171.429527</ele>
        <time>2011-01-29T13:05:35Z</time>
      </trkpt>
      <trkpt lat="46.76688" lon="4.81972">
        <ele>171.496115</ele>
        <time>2011-01-29T13:05:38Z</time>
      </trkpt>
      <trkpt lat="46.76693" lon="4.81956">
        <ele>171.56478</ele>
        <time>2011-01-29T13:05:41Z</time>
      </trkpt>
      <trkpt lat="46.76692" lon="4.81938">
        <ele>171.624208</ele>
        <time>2011-01-29T13:05:44Z</time>
      </trkpt>
      <trkpt lat="46.76688" lon="4.81921">
        <ele>171.622565</ele>
        <time>2011-01-29T13:05:47Z</time>
      </trkpt>
      <trkpt lat="46.76681" lon="4.81904">
        <ele>171.557218</ele>
        <time>2011-01-29T13:05:50Z</time>
      </trkpt>
      <trkpt lat="46.76672" lon="4.81887">
        <ele>171.508548</ele>
        <time>2011-01-29T13:05:53Z</time>
      </trkpt>
      <trkpt lat="46.76666" lon="4.81876">
        <ele>171.539423</ele>
        <time>2011-01-29T13:05:55Z</time>
      </trkpt>
      <trkpt lat="46.7666" lon="4.81866">
        <ele>171.71982</ele>
        <time>2011-01-29T13:05:57Z</time>
      </trkpt>
      <trkpt lat="46.76655" lon="4.81854">
        <ele>172.090428</ele>
        <time>2011-01-29T13:05:59Z</time>
      </trkpt>
      <trkpt lat="46.76646" lon="4.81838">
        <ele>172.614998</ele>
        <time>2011-01-29T13:06:02Z</time>
      </trkpt>
      <trkpt lat="46.76637" lon="4.81822">
        <ele>173.260224</ele>
        <time>2011-01-29T13:06:05Z</time>
      </trkpt>
      <trkpt lat="46.76628" lon="4.81808">
        <ele>174.025139</ele>
        <time>2011-01-29T13:06:08Z</time>
      </trkpt>
      <trkpt lat="46.76618" lon="4.81793">
        <ele>174.899889</ele>
        <time>2011-01-29T13:06:11Z</time>
      </trkpt>
      <trkpt lat="46.76606" lon="4.81782">
        <ele>175.845025</ele>
        <time>2011-01-29T13:06:14Z</time>
      </trkpt>
      <trkpt lat="46.76593" lon="4.81768">
        <ele>176.775555</ele>
        <time>2011-01-29T13:06:17Z</time>
      </trkpt>
      <trkpt lat="46.7658" lon="4.81753">
        <ele>177.691985</ele>
        <time>2011-01-29T13:06:20Z</time>
      </trkpt>
      <trkpt lat="46.76567" lon="4.81737">
        <ele>178.7882</ele>
        <time>2011-01-29T13:06:23Z</time>
      </trkpt>
      <trkpt lat="46.76553" lon="4.81721">
        <ele>180.309035</ele>
        <time>2011-01-29T13:06:26Z</time>
      </trkpt>
      <trkpt lat="46.76539" lon="4.81704">
        <ele>182.230063</ele>
        <time>2011-01-29T13:06:29Z</time>
      </trkpt>
      <trkpt lat="46.76524" lon="4.81686">
        <ele>184.233119</ele>
        <time>2011-01-29T13:06:32Z</time>
      </trkpt>
      <trkpt lat="46.76509" lon="4.81669">
        <ele>186.014989</ele>
        <time>2011-01-29T13:06:35Z</time>
      </trkpt>
      <trkpt lat="46.76493" lon="4.81652">
        <ele>187.417998</ele>
        <time>2011-01-29T13:06:38Z</time>
      </trkpt>
      <trkpt lat="46.76475" lon="4.81638">
        <ele>188.350409</ele>
        <time>2011-01-29T13:06:41Z</time>
      </trkpt>
      <trkpt lat="46.7646" lon="4.81627">
        <ele>188.797879</ele>
        <time>2011-01-29T13:06:43Z</time>
      </trkpt>
      <trkpt lat="46.76445" lon="4.81614">
        <ele>188.904349</ele>
        <time>2011-01-29T13:06:45Z</time>
      </trkpt>
      <trkpt lat="46.7643" lon="4.81595">
        <ele>188.873684</ele>
        <time>2011-01-29T13:06:47Z</time>
      </trkpt>
      <trkpt lat="46.76408" lon="4.8156">
        <ele>188.824532</ele>
        <time>2011-01-29T13:06:50Z</time>
      </trkpt>
      <trkpt lat="46.76395" lon="4.81531">
        <ele>188.792066</ele>
        <time>2011-01-29T13:06:52Z</time>
      </trkpt>
      <trkpt lat="46.76376" lon="4.81488">
        <ele>188.764889</ele>
        <time>2011-01-29T13:06:55Z</time>
      </trkpt>
      <trkpt lat="46.76359" lon="4.81469">
        <ele>188.702133</ele>
        <time>2011-01-29T13:06:57Z</time>
      </trkpt>
      <trkpt lat="46.76325" lon="4.81468">
        <ele>188.504962</ele>
        <time>2011-01-29T13:07:00Z</time>
      </trkpt>
      <trkpt lat="46.76303" lon="4.81477">
        <ele>188.05918</ele>
        <time>2011-01-29T13:07:02Z</time>
      </trkpt>
      <trkpt lat="46.76268" lon="4.81489">
        <ele>187.411373</ele>
        <time>2011-01-29T13:07:05Z</time>
      </trkpt>
      <trkpt lat="46.76231" lon="4.81492">
        <ele>186.703324</ele>
        <time>2011-01-29T13:07:08Z</time>
      </trkpt>
      <trkpt lat="46.76205" lon="4.81482">
        <ele>185.960713</ele>
        <time>2011-01-29T13:07:10Z</time>
      </trkpt>
      <trkpt lat="46.76166" lon="4.81462">
        <ele>185.158089</ele>
        <time>2011-01-29T13:07:13Z</time>
      </trkpt>
      <trkpt lat="46.76133" lon="4.8143">
        <ele>184.389729</ele>
        <time>2011-01-29T13:07:16Z</time>
      </trkpt>
      <trkpt lat="46.76106" lon="4.81393">
        <ele>183.832433</ele>
        <time>2011-01-29T13:07:19Z</time>
      </trkpt>
      <trkpt lat="46.76091" lon="4.81368">
        <ele>183.513954</ele>
        <time>2011-01-29T13:07:21Z</time>
      </trkpt>
      <trkpt lat="46.76071" lon="4.81336">
        <ele>183.22372</ele>
        <time>2011-01-29T13:07:24Z</time>
      </trkpt>
      <trkpt lat="46.76058" lon="4.81316">
        <ele>182.745687</ele>
        <time>2011-01-29T13:07:26Z</time>
      </trkpt>
      <trkpt lat="46.76041" lon="4.8129">
        <ele>182.046517</ele>
        <time>2011-01-29T13:07:29Z</time>
      </trkpt>
      <trkpt lat="46.76026" lon="4.81268">
        <ele>181.147379</ele>
        <time>2011-01-29T13:07:32Z</time>
      </trkpt>
      <trkpt lat="46.76016" lon="4.81255">
        <ele>180.087309</ele>
        <time>2011-01-29T13:07:34Z</time>
      </trkpt>
      <trkpt lat="46.76008" lon="4.81244">
        <ele>178.984824</ele>
        <time>2011-01-29T13:07:36Z</time>
      </trkpt>
      <trkpt lat="46.75996" lon="4.81227">
        <ele>177.966385</ele>
        <time>2011-01-29T13:07:39Z</time>
      </trkpt>
      <trkpt lat="46.75989" lon="4.81217">
        <ele>177.106218</ele>
        <time>2011-01-29T13:07:41Z</time>
      </trkpt>
      <trkpt lat="46.75978" lon="4.81202">
        <ele>176.45312</ele>
        <time>2011-01-29T13:07:44Z</time>
      </trkpt>
      <trkpt lat="46.75969" lon="4.81187">
        <ele>175.929079</ele>
        <time>2011-01-29T13:07:47Z</time>
      </trkpt>
      <trkpt lat="46.7596" lon="4.81175">
        <ele>175.428874</ele>
        <time>2011-01-29T13:07:50Z</time>
      </trkpt>
      <trkpt lat="46.75951" lon="4.81164">
        <ele>174.960882</ele>
        <time>2011-01-29T13:07:53Z</time>
      </trkpt>
      <trkpt lat="46.75943" lon="4.81155">
        <ele>174.573989</ele>
        <time>2011-01-29T13:07:56Z</time>
      </trkpt>
      <trkpt lat="46.75937" lon="4.81145">
        <ele>174.268739</ele>
        <time>2011-01-29T13:07:59Z</time>
      </trkpt>
      <trkpt lat="46.75931" lon="4.81134">
        <ele>174.046265</ele>
        <time>2011-01-29T13:08:03Z</time>
      </trkpt>
      <trkpt lat="46.75926" lon="4.81122">
        <ele>173.891242</ele>
        <time>2011-01-29T13:08:07Z</time>
      </trkpt>
      <trkpt lat="46.7592" lon="4.8111">
        <ele>173.770389</ele>
        <time>2011-01-29T13:08:11Z</time>
      </trkpt>
      <trkpt lat="46.7592" lon="4.8111">
        <ele>173.669826</ele>
        <time>2011-01-29T13:08:12Z</time>
      </trkpt>
      <trkpt lat="46.7591" lon="4.81089">
        <ele>173.594854</ele>
        <time>2011-01-29T13:08:19Z</time>
      </trkpt>
      <trkpt lat="46.7591" lon="4.81089">
        <ele>173.527384</ele>
        <time>2011-01-29T13:08:22Z</time>
      </trkpt>
      <trkpt lat="46.75897" lon="4.81067">
        <ele>173.447768</ele>
        <time>2011-01-29T13:08:28Z</time>
      </trkpt>
      <trkpt lat="46.75889" lon="4.81054">
        <ele>173.329475</ele>
        <time>2011-01-29T13:08:32Z</time>
      </trkpt>
      <trkpt lat="46.75881" lon="4.81042">
        <ele>173.085751</ele>
        <time>2011-01-29T13:08:36Z</time>
      </trkpt>
      <trkpt lat="46.75874" lon="4.8103">
        <ele>172.628222</ele>
        <time>2011-01-29T13:08:40Z</time>
      </trkpt>
      <trkpt lat="46.75866" lon="4.81018">
        <ele>172.046453</ele>
        <time>2011-01-29T13:08:44Z</time>
      </trkpt>
      <trkpt lat="46.7586" lon="4.81005">
        <ele>171.529276</ele>
        <time>2011-01-29T13:08:48Z</time>
      </trkpt>
      <trkpt lat="46.75854" lon="4.80994">
        <ele>171.144915</ele>
        <time>2011-01-29T13:08:51Z</time>
      </trkpt>
      <trkpt lat="46.75849" lon="4.80979">
        <ele>170.857707</ele>
        <time>2011-01-29T13:08:55Z</time>
      </trkpt>
      <trkpt lat="46.75845" lon="4.80967">
        <ele>170.637762</ele>
        <time>2011-01-29T13:08:58Z</time>
      </trkpt>
      <trkpt lat="46.75841" lon="4.80954">
        <ele>170.459933</ele>
        <time>2011-01-29T13:09:01Z</time>
      </trkpt>
      <trkpt lat="46.75838" lon="4.80941">
        <ele>170.294865</ele>
        <time>2011-01-29T13:09:04Z</time>
      </trkpt>
      <trkpt lat="46.75834" lon="4.80928">
        <ele>170.12353</ele>
        <time>2011-01-29T13:09:07Z</time>
      </trkpt>
      <trkpt lat="46.75831" lon="4.80914">
        <ele>169.937658</ele>
        <time>2011-01-29T13:09:10Z</time>
      </trkpt>
      <trkpt lat="46.75828" lon="4.809">
        <ele>169.74999</ele>
        <time>2011-01-29T13:09:13Z</time>
      </trkpt>
      <trkpt lat="46.75825" lon="4.80887">
        <ele>169.605067</ele>
        <time>2011-01-29T13:09:16Z</time>
      </trkpt>
      <trkpt lat="46.75821" lon="4.80874">
        <ele>169.536726</ele>
        <time>2011-01-29T13:09:19Z</time>
      </trkpt>
      <trkpt lat="46.75817" lon="4.80859">
        <ele>169.526628</ele>
        <time>2011-01-29T13:09:23Z</time>
      </trkpt>
      <trkpt lat="46.75811" lon="4.80847">
        <ele>169.554769</ele>
        <time>2011-01-29T13:09:27Z</time>
      </trkpt>
      <trkpt lat="46.75809" lon="4.80834">
        <ele>169.633036</ele>
        <time>2011-01-29T13:09:30Z</time>
      </trkpt>
      <trkpt lat="46.75809" lon="4.80834">
        <ele>169.744785</ele>
        <time>2011-01-29T13:09:34Z</time>
      </trkpt>
      <trkpt lat="46.75814" lon="4.80803">
        <ele>169.861295</ele>
        <time>2011-01-29T13:09:38Z</time>
      </trkpt>
      <trkpt lat="46.75816" lon="4.80787">
        <ele>169.997204</ele>
        <time>2011-01-29T13:09:42Z</time>
      </trkpt>
      <trkpt lat="46.75818" lon="4.80771">
        <ele>170.149182</ele>
        <time>2011-01-29T13:09:46Z</time>
      </trkpt>
      <trkpt lat="46.7582" lon="4.80757">
        <ele>170.304563</ele>
        <time>2011-01-29T13:09:49Z</time>
      </trkpt>
      <trkpt lat="46.75822" lon="4.80742">
        <ele>170.491233</ele>
        <time>2011-01-29T13:09:53Z</time>
      </trkpt>
      <trkpt lat="46.75824" lon="4.80727">
        <ele>170.71803</ele>
        <time>2011-01-29T13:09:56Z</time>
      </trkpt>
      <trkpt lat="46.75826" lon="4.80712">
        <ele>170.95262</ele>
        <time>2011-01-29T13:09:59Z</time>
      </trkpt>
      <trkpt lat="46.75826" lon="4.80712">
        <ele>171.141287</ele>
        <time>2011-01-29T13:10:03Z</time>
      </trkpt>
      <trkpt lat="46.75828" lon="4.80668">
        <ele>171.278435</ele>
        <time>2011-01-29T13:10:09Z</time>
      </trkpt>
      <trkpt lat="46.75829" lon="4.8065">
        <ele>171.428824</ele>
        <time>2011-01-29T13:10:13Z</time>
      </trkpt>
      <trkpt lat="46.75829" lon="4.80633">
        <ele>171.6296</ele>
        <time>2011-01-29T13:10:16Z</time>
      </trkpt>
      <trkpt lat="46.75829" lon="4.80615">
        <ele>172.010641</ele>
        <time>2011-01-29T13:10:20Z</time>
      </trkpt>
      <trkpt lat="46.75828" lon="4.80601">
        <ele>172.659428</ele>
        <time>2011-01-29T13:10:23Z</time>
      </trkpt>
      <trkpt lat="46.75826" lon="4.80587">
        <ele>173.375071</ele>
        <time>2011-01-29T13:10:26Z</time>
      </trkpt>
      <trkpt lat="46.75823" lon="4.80573">
        <ele>173.969221</ele>
        <time>2011-01-29T13:10:29Z</time>
      </trkpt>
      <trkpt lat="46.75819" lon="4.8056">
        <ele>174.493573</ele>
        <time>2011-01-29T13:10:32Z</time>
      </trkpt>
      <trkpt lat="46.75818" lon="4.80543">
        <ele>175.01964</ele>
        <time>2011-01-29T13:10:36Z</time>
      </trkpt>
      <trkpt lat="46.75818" lon="4.80543">
        <ele>175.489513</ele>
        <time>2011-01-29T13:10:40Z</time>
      </trkpt>
      <trkpt lat="46.75822" lon="4.80506">
        <ele>175.826831</ele>
        <time>2011-01-29T13:10:45Z</time>
      </trkpt>
      <trkpt lat="46.75823" lon="4.80492">
        <ele>176.09798</ele>
        <time>2011-01-29T13:10:48Z</time>
      </trkpt>
      <trkpt lat="46.75825" lon="4.80472">
        <ele>176.423549</ele>
        <time>2011-01-29T13:10:52Z</time>
      </trkpt>
      <trkpt lat="46.75826" lon="4.80456">
        <ele>176.807293</ele>
        <time>2011-01-29T13:10:56Z</time>
      </trkpt>
      <trkpt lat="46.75826" lon="4.8044">
        <ele>177.144889</ele>
        <time>2011-01-29T13:10:59Z</time>
      </trkpt>
      <trkpt lat="46.75825" lon="4.80422">
        <ele>177.339751</ele>
        <time>2011-01-29T13:11:02Z</time>
      </trkpt>
      <trkpt lat="46.75826" lon="4.80404">
        <ele>177.430563</ele>
        <time>2011-01-29T13:11:05Z</time>
      </trkpt>
      <trkpt lat="46.75829" lon="4.80391">
        <ele>177.557229</ele>
        <time>2011-01-29T13:11:07Z</time>
      </trkpt>
      <trkpt lat="46.75833" lon="4.80372">
        <ele>177.799035</ele>
        <time>2011-01-29T13:11:10Z</time>
      </trkpt>
      <trkpt lat="46.75836" lon="4.80358">
        <ele>178.070203</ele>
        <time>2011-01-29T13:11:12Z</time>
      </trkpt>
      <trkpt lat="46.75837" lon="4.80336">
        <ele>178.250804</ele>
        <time>2011-01-29T13:11:15Z</time>
      </trkpt>
      <trkpt lat="46.75837" lon="4.80301">
        <ele>178.34212</ele>
        <time>2011-01-29T13:11:18Z</time>
      </trkpt>
      <trkpt lat="46.75836" lon="4.80275">
        <ele>178.402423</ele>
        <time>2011-01-29T13:11:21Z</time>
      </trkpt>
      <trkpt lat="46.75836" lon="4.80252">
        <ele>178.465927</ele>
        <time>2011-01-29T13:11:24Z</time>
      </trkpt>
      <trkpt lat="46.75836" lon="4.80238">
        <ele>179.129715</ele>
        <time>2011-01-29T13:11:26Z</time>
      </trkpt>
      <trkpt lat="46.75837" lon="4.80215">
        <ele>181.522357</ele>
        <time>2011-01-29T13:11:29Z</time>
      </trkpt>
      <trkpt lat="46.75842" lon="4.80197">
        <ele>185.950022</ele>
        <time>2011-01-29T13:11:31Z</time>
      </trkpt>
      <trkpt lat="46.75847" lon="4.80171">
        <ele>191.38367</ele>
        <time>2011-01-29T13:11:34Z</time>
      </trkpt>
      <trkpt lat="46.75849" lon="4.80154">
        <ele>196.647298</ele>
        <time>2011-01-29T13:11:36Z</time>
      </trkpt>
      <trkpt lat="46.7585" lon="4.80137">
        <ele>200.782174</ele>
        <time>2011-01-29T13:11:38Z</time>
      </trkpt>
      <trkpt lat="46.75849" lon="4.8012">
        <ele>203.201634</ele>
        <time>2011-01-29T13:11:40Z</time>
      </trkpt>
      <trkpt lat="46.75848" lon="4.80094">
        <ele>204.172928</ele>
        <time>2011-01-29T13:11:43Z</time>
      </trkpt>
      <trkpt lat="46.7585" lon="4.80069">
        <ele>204.601514</ele>
        <time>2011-01-29T13:11:46Z</time>
      </trkpt>
      <trkpt lat="46.75851" lon="4.80052">
        <ele>205.1283</ele>
        <time>2011-01-29T13:11:48Z</time>
      </trkpt>
      <trkpt lat="46.75852" lon="4.80028">
        <ele>205.862384</ele>
        <time>2011-01-29T13:11:51Z</time>
      </trkpt>
      <trkpt lat="46.75853" lon="4.80005">
        <ele>206.602424</ele>
        <time>2011-01-29T13:11:54Z</time>
      </trkpt>
      <trkpt lat="46.75853" lon="4.79989">
        <ele>207.305485</ele>
        <time>2011-01-29T13:11:56Z</time>
      </trkpt>
      <trkpt lat="46.75854" lon="4.79973">
        <ele>207.947338</ele>
        <time>2011-01-29T13:11:58Z</time>
      </trkpt>
      <trkpt lat="46.75855" lon="4.79951">
        <ele>208.421211</ele>
        <time>2011-01-29T13:12:01Z</time>
      </trkpt>
      <trkpt lat="46.75859" lon="4.79929">
        <ele>208.681157</ele>
        <time>2011-01-29T13:12:04Z</time>
      </trkpt>
      <trkpt lat="46.75862" lon="4.79908">
        <ele>208.785036</ele>
        <time>2011-01-29T13:12:07Z</time>
      </trkpt>
      <trkpt lat="46.75863" lon="4.79894">
        <ele>208.803798</ele>
        <time>2011-01-29T13:12:09Z</time>
      </trkpt>
      <trkpt lat="46.75864" lon="4.79869">
        <ele>208.778351</ele>
        <time>2011-01-29T13:12:12Z</time>
      </trkpt>
      <trkpt lat="46.75865" lon="4.79851">
        <ele>208.699641</ele>
        <time>2011-01-29T13:12:14Z</time>
      </trkpt>
      <trkpt lat="46.75867" lon="4.7983">
        <ele>208.594205</ele>
        <time>2011-01-29T13:12:16Z</time>
      </trkpt>
      <trkpt lat="46.75868" lon="4.79801">
        <ele>208.401253</ele>
        <time>2011-01-29T13:12:19Z</time>
      </trkpt>
      <trkpt lat="46.75869" lon="4.79783">
        <ele>208.056799</ele>
        <time>2011-01-29T13:12:21Z</time>
      </trkpt>
      <trkpt lat="46.75865" lon="4.79756">
        <ele>207.352827</ele>
        <time>2011-01-29T13:12:24Z</time>
      </trkpt>
      <trkpt lat="46.75864" lon="4.79738">
        <ele>206.05874</ele>
        <time>2011-01-29T13:12:26Z</time>
      </trkpt>
      <trkpt lat="46.75867" lon="4.79712">
        <ele>204.601137</ele>
        <time>2011-01-29T13:12:29Z</time>
      </trkpt>
      <trkpt lat="46.75869" lon="4.79695">
        <ele>203.699787</ele>
        <time>2011-01-29T13:12:31Z</time>
      </trkpt>
      <trkpt lat="46.75872" lon="4.79673">
        <ele>203.437306</ele>
        <time>2011-01-29T13:12:34Z</time>
      </trkpt>
      <trkpt lat="46.75875" lon="4.79651">
        <ele>203.705515</ele>
        <time>2011-01-29T13:12:37Z</time>
      </trkpt>
      <trkpt lat="46.75877" lon="4.79634">
        <ele>204.368751</ele>
        <time>2011-01-29T13:12:39Z</time>
      </trkpt>
      <trkpt lat="46.75878" lon="4.79617">
        <ele>204.999834</ele>
        <time>2011-01-29T13:12:41Z</time>
      </trkpt>
      <trkpt lat="46.7588" lon="4.79594">
        <ele>205.285417</ele>
        <time>2011-01-29T13:12:44Z</time>
      </trkpt>
      <trkpt lat="46.75882" lon="4.79579">
        <ele>205.347507</ele>
        <time>2011-01-29T13:12:46Z</time>
      </trkpt>
      <trkpt lat="46.75885" lon="4.79563">
        <ele>205.363131</ele>
        <time>2011-01-29T13:12:48Z</time>
      </trkpt>
      <trkpt lat="46.75889" lon="4.79541">
        <ele>205.38434</ele>
        <time>2011-01-29T13:12:51Z</time>
      </trkpt>
      <trkpt lat="46.75892" lon="4.79525">
        <ele>205.395838</ele>
        <time>2011-01-29T13:12:53Z</time>
      </trkpt>
      <trkpt lat="46.75896" lon="4.79501">
        <ele>205.592139</ele>
        <time>2011-01-29T13:12:56Z</time>
      </trkpt>
      <trkpt lat="46.75898" lon="4.79476">
        <ele>206.449488</ele>
        <time>2011-01-29T13:12:59Z</time>
      </trkpt>
      <trkpt lat="46.75903" lon="4.79451">
        <ele>207.888081</ele>
        <time>2011-01-29T13:13:02Z</time>
      </trkpt>
      <trkpt lat="46.75907" lon="4.79428">
        <ele>209.079745</ele>
        <time>2011-01-29T13:13:05Z</time>
      </trkpt>
      <trkpt lat="46.7591" lon="4.79405">
        <ele>209.565948</ele>
        <time>2011-01-29T13:13:08Z</time>
      </trkpt>
      <trkpt lat="46.75912" lon="4.79381">
        <ele>209.685436</ele>
        <time>2011-01-29T13:13:11Z</time>
      </trkpt>
      <trkpt lat="46.75914" lon="4.79362">
        <ele>209.809811</ele>
        <time>2011-01-29T13:13:14Z</time>
      </trkpt>
      <trkpt lat="46.75917" lon="4.79342">
        <ele>209.962703</ele>
        <time>2011-01-29T13:13:17Z</time>
      </trkpt>
      <trkpt lat="46.75921" lon="4.79324">
        <ele>210.042236</ele>
        <time>2011-01-29T13:13:20Z</time>
      </trkpt>
      <trkpt lat="46.75925" lon="4.79307">
        <ele>210.209236</ele>
        <time>2011-01-29T13:13:23Z</time>
      </trkpt>
      <trkpt lat="46.75928" lon="4.79293">
        <ele>210.597546</ele>
        <time>2011-01-29T13:13:25Z</time>
      </trkpt>
      <trkpt lat="46.75933" lon="4.79266">
        <ele>211.005219</ele>
        <time>2011-01-29T13:13:28Z</time>
      </trkpt>
      <trkpt lat="46.75938" lon="4.79237">
        <ele>211.238718</ele>
        <time>2011-01-29T13:13:31Z</time>
      </trkpt>
      <trkpt lat="46.75937" lon="4.79207">
        <ele>211.403623</ele>
        <time>2011-01-29T13:13:34Z</time>
      </trkpt>
      <trkpt lat="46.75933" lon="4.7918">
        <ele>211.586205</ele>
        <time>2011-01-29T13:13:37Z</time>
      </trkpt>
      <trkpt lat="46.7593" lon="4.79152">
        <ele>212.214279</ele>
        <time>2011-01-29T13:13:40Z</time>
      </trkpt>
      <trkpt lat="46.7593" lon="4.7912">
        <ele>213.729667</ele>
        <time>2011-01-29T13:13:43Z</time>
      </trkpt>
      <trkpt lat="46.75931" lon="4.79088">
        <ele>215.624122</ele>
        <time>2011-01-29T13:13:46Z</time>
      </trkpt>
      <trkpt lat="46.75932" lon="4.79068">
        <ele>217.136063</ele>
        <time>2011-01-29T13:13:48Z</time>
      </trkpt>
      <trkpt lat="46.75933" lon="4.79049">
        <ele>218.239801</ele>
        <time>2011-01-29T13:13:50Z</time>
      </trkpt>
      <trkpt lat="46.75935" lon="4.79022">
        <ele>219.109164</ele>
        <time>2011-01-29T13:13:53Z</time>
      </trkpt>
      <trkpt lat="46.75937" lon="4.78996">
        <ele>219.783211</ele>
        <time>2011-01-29T13:13:56Z</time>
      </trkpt>
      <trkpt lat="46.75939" lon="4.78967">
        <ele>220.368539</ele>
        <time>2011-01-29T13:13:59Z</time>
      </trkpt>
      <trkpt lat="46.7594" lon="4.78949">
        <ele>220.925961</ele>
        <time>2011-01-29T13:14:01Z</time>
      </trkpt>
      <trkpt lat="46.75942" lon="4.78922">
        <ele>221.316778</ele>
        <time>2011-01-29T13:14:04Z</time>
      </trkpt>
      <trkpt lat="46.75942" lon="4.78904">
        <ele>221.451837</ele>
        <time>2011-01-29T13:14:06Z</time>
      </trkpt>
      <trkpt lat="46.75942" lon="4.78876">
        <ele>221.438788</ele>
        <time>2011-01-29T13:14:09Z</time>
      </trkpt>
      <trkpt lat="46.75942" lon="4.78847">
        <ele>221.035515</ele>
        <time>2011-01-29T13:14:12Z</time>
      </trkpt>
      <trkpt lat="46.75942" lon="4.78828">
        <ele>219.854701</ele>
        <time>2011-01-29T13:14:14Z</time>
      </trkpt>
      <trkpt lat="46.75943" lon="4.7881">
        <ele>218.046517</ele>
        <time>2011-01-29T13:14:16Z</time>
      </trkpt>
      <trkpt lat="46.75944" lon="4.78792">
        <ele>215.950884</ele>
        <time>2011-01-29T13:14:18Z</time>
      </trkpt>
      <trkpt lat="46.75947" lon="4.78765">
        <ele>213.753289</ele>
        <time>2011-01-29T13:14:21Z</time>
      </trkpt>
      <trkpt lat="46.75949" lon="4.78741">
        <ele>211.875326</ele>
        <time>2011-01-29T13:14:24Z</time>
      </trkpt>
      <trkpt lat="46.7595" lon="4.78728">
        <ele>210.643338</ele>
        <time>2011-01-29T13:14:26Z</time>
      </trkpt>
      <trkpt lat="46.75954" lon="4.78711">
        <ele>209.68958</ele>
        <time>2011-01-29T13:14:29Z</time>
      </trkpt>
      <trkpt lat="46.75959" lon="4.78695">
        <ele>208.651768</ele>
        <time>2011-01-29T13:14:32Z</time>
      </trkpt>
      <trkpt lat="46.75964" lon="4.78681">
        <ele>207.822528</ele>
        <time>2011-01-29T13:14:35Z</time>
      </trkpt>
      <trkpt lat="46.75971" lon="4.78667">
        <ele>207.487487</ele>
        <time>2011-01-29T13:14:38Z</time>
      </trkpt>
      <trkpt lat="46.75979" lon="4.78656">
        <ele>207.471816</ele>
        <time>2011-01-29T13:14:41Z</time>
      </trkpt>
      <trkpt lat="46.75987" lon="4.78641">
        <ele>207.562687</ele>
        <time>2011-01-29T13:14:44Z</time>
      </trkpt>
      <trkpt lat="46.75991" lon="4.78626">
        <ele>207.648812</ele>
        <time>2011-01-29T13:14:46Z</time>
      </trkpt>
      <trkpt lat="46.75997" lon="4.78601">
        <ele>207.694877</ele>
        <time>2011-01-29T13:14:49Z</time>
      </trkpt>
      <trkpt lat="46.76001" lon="4.78583">
        <ele>207.704978</ele>
        <time>2011-01-29T13:14:51Z</time>
      </trkpt>
      <trkpt lat="46.76009" lon="4.78554">
        <ele>207.696303</ele>
        <time>2011-01-29T13:14:54Z</time>
      </trkpt>
      <trkpt lat="46.76015" lon="4.78536">
        <ele>207.111475</ele>
        <time>2011-01-29T13:14:56Z</time>
      </trkpt>
      <trkpt lat="46.76021" lon="4.78521">
        <ele>205.608204</ele>
        <time>2011-01-29T13:14:58Z</time>
      </trkpt>
      <trkpt lat="46.76029" lon="4.785">
        <ele>203.872327</ele>
        <time>2011-01-29T13:15:01Z</time>
      </trkpt>
      <trkpt lat="46.76036" lon="4.78478">
        <ele>202.632377</ele>
        <time>2011-01-29T13:15:04Z</time>
      </trkpt>
      <trkpt lat="46.76041" lon="4.7846">
        <ele>201.986503</ele>
        <time>2011-01-29T13:15:07Z</time>
      </trkpt>
      <trkpt lat="46.76044" lon="4.78444">
        <ele>201.634432</ele>
        <time>2011-01-29T13:15:10Z</time>
      </trkpt>
      <trkpt lat="46.7605" lon="4.78422">
        <ele>200.594213</ele>
        <time>2011-01-29T13:15:13Z</time>
      </trkpt>
      <trkpt lat="46.7605" lon="4.78422">
        <ele>198.632526</ele>
        <time>2011-01-29T13:15:14Z</time>
      </trkpt>
      <trkpt lat="46.76061" lon="4.78381">
        <ele>196.805611</ele>
        <time>2011-01-29T13:15:19Z</time>
      </trkpt>
      <trkpt lat="46.76068" lon="4.78366">
        <ele>195.843633</ele>
        <time>2011-01-29T13:15:22Z</time>
      </trkpt>
      <trkpt lat="46.76078" lon="4.7835">
        <ele>195.522364</ele>
        <time>2011-01-29T13:15:25Z</time>
      </trkpt>
      <trkpt lat="46.76092" lon="4.78332">
        <ele>195.522088</ele>
        <time>2011-01-29T13:15:28Z</time>
      </trkpt>
      <trkpt lat="46.76092" lon="4.78332">
        <ele>195.556485</ele>
        <time>2011-01-29T13:15:29Z</time>
      </trkpt>
      <trkpt lat="46.76114" lon="4.78298">
        <ele>195.536288</ele>
        <time>2011-01-29T13:15:35Z</time>
      </trkpt>
      <trkpt lat="46.76127" lon="4.78276">
        <ele>195.557441</ele>
        <time>2011-01-29T13:15:38Z</time>
      </trkpt>
      <trkpt lat="46.7614" lon="4.78254">
        <ele>196.175463</ele>
        <time>2011-01-29T13:15:41Z</time>
      </trkpt>
      <trkpt lat="46.76152" lon="4.78235">
        <ele>197.64159</ele>
        <time>2011-01-29T13:15:44Z</time>
      </trkpt>
      <trkpt lat="46.76163" lon="4.78217">
        <ele>199.132631</ele>
        <time>2011-01-29T13:15:47Z</time>
      </trkpt>
      <trkpt lat="46.7617" lon="4.78204">
        <ele>199.883845</ele>
        <time>2011-01-29T13:15:50Z</time>
      </trkpt>
      <trkpt lat="46.7617" lon="4.78204">
        <ele>200.065445</ele>
        <time>2011-01-29T13:15:51Z</time>
      </trkpt>
      <trkpt lat="46.76182" lon="4.78178">
        <ele>200.02137</ele>
        <time>2011-01-29T13:15:56Z</time>
      </trkpt>
      <trkpt lat="46.76188" lon="4.78166">
        <ele>200.006963</ele>
        <time>2011-01-29T13:15:59Z</time>
      </trkpt>
      <trkpt lat="46.76194" lon="4.78151">
        <ele>200.105138</ele>
        <time>2011-01-29T13:16:00Z</time>
      </trkpt>
      <trkpt lat="46.76204" lon="4.7813">
        <ele>200.311802</ele>
        <time>2011-01-29T13:16:03Z</time>
      </trkpt>
      <trkpt lat="46.76221" lon="4.78114">
        <ele>200.579955</ele>
        <time>2011-01-29T13:16:06Z</time>
      </trkpt>
      <trkpt lat="46.7624" lon="4.781">
        <ele>200.79056</ele>
        <time>2011-01-29T13:16:09Z</time>
      </trkpt>
      <trkpt lat="46.76251" lon="4.7809">
        <ele>200.872524</ele>
        <time>2011-01-29T13:16:12Z</time>
      </trkpt>
      <trkpt lat="46.76263" lon="4.78073">
        <ele>200.777285</ele>
        <time>2011-01-29T13:16:15Z</time>
      </trkpt>
      <trkpt lat="46.76278" lon="4.78054">
        <ele>200.430825</ele>
        <time>2011-01-29T13:16:18Z</time>
      </trkpt>
      <trkpt lat="46.76295" lon="4.78035">
        <ele>199.958059</ele>
        <time>2011-01-29T13:16:21Z</time>
      </trkpt>
      <trkpt lat="46.76312" lon="4.78017">
        <ele>199.612454</ele>
        <time>2011-01-29T13:16:24Z</time>
      </trkpt>
      <trkpt lat="46.76329" lon="4.77999">
        <ele>199.478214</ele>
        <time>2011-01-29T13:16:27Z</time>
      </trkpt>
      <trkpt lat="46.7635" lon="4.7798">
        <ele>199.484799</ele>
        <time>2011-01-29T13:16:30Z</time>
      </trkpt>
      <trkpt lat="46.76369" lon="4.77959">
        <ele>199.583551</ele>
        <time>2011-01-29T13:16:33Z</time>
      </trkpt>
      <trkpt lat="46.7638" lon="4.77931">
        <ele>199.896992</ele>
        <time>2011-01-29T13:16:36Z</time>
      </trkpt>
      <trkpt lat="46.76384" lon="4.77905">
        <ele>201.065059</ele>
        <time>2011-01-29T13:16:39Z</time>
      </trkpt>
      <trkpt lat="46.76384" lon="4.77892">
        <ele>203.647892</ele>
        <time>2011-01-29T13:16:41Z</time>
      </trkpt>
      <trkpt lat="46.76381" lon="4.7787">
        <ele>207.469068</ele>
        <time>2011-01-29T13:16:44Z</time>
      </trkpt>
      <trkpt lat="46.76377" lon="4.77852">
        <ele>211.462224</ele>
        <time>2011-01-29T13:16:47Z</time>
      </trkpt>
      <trkpt lat="46.76372" lon="4.77836">
        <ele>214.217004</ele>
        <time>2011-01-29T13:16:50Z</time>
      </trkpt>
      <trkpt lat="46.76366" lon="4.77821">
        <ele>215.223847</ele>
        <time>2011-01-29T13:16:53Z</time>
      </trkpt>
      <trkpt lat="46.7636" lon="4.77807">
        <ele>215.196061</ele>
        <time>2011-01-29T13:16:56Z</time>
      </trkpt>
      <trkpt lat="46.76353" lon="4.77787">
        <ele>214.652849</ele>
        <time>2011-01-29T13:16:59Z</time>
      </trkpt>
      <trkpt lat="46.76353" lon="4.77787">
        <ele>213.816109</ele>
        <time>2011-01-29T13:17:00Z</time>
      </trkpt>
      <trkpt lat="46.7635" lon="4.77757">
        <ele>213.023477</ele>
        <time>2011-01-29T13:17:04Z</time>
      </trkpt>
      <trkpt lat="46.76346" lon="4.77737">
        <ele>212.508385</ele>
        <time>2011-01-29T13:17:07Z</time>
      </trkpt>
      <trkpt lat="46.76342" lon="4.77716">
        <ele>212.256453</ele>
        <time>2011-01-29T13:17:10Z</time>
      </trkpt>
      <trkpt lat="46.7634" lon="4.77703">
        <ele>212.209624</ele>
        <time>2011-01-29T13:17:12Z</time>
      </trkpt>
      <trkpt lat="46.76337" lon="4.77682">
        <ele>212.285839</ele>
        <time>2011-01-29T13:17:15Z</time>
      </trkpt>
      <trkpt lat="46.76333" lon="4.77663">
        <ele>212.43383</ele>
        <time>2011-01-29T13:17:18Z</time>
      </trkpt>
      <trkpt lat="46.76331" lon="4.77649">
        <ele>212.570248</ele>
        <time>2011-01-29T13:17:20Z</time>
      </trkpt>
      <trkpt lat="46.76331" lon="4.77649">
        <ele>212.634552</ele>
        <time>2011-01-29T13:17:23Z</time>
      </trkpt>
      <trkpt lat="46.76323" lon="4.77599">
        <ele>212.644038</ele>
        <time>2011-01-29T13:17:31Z</time>
      </trkpt>
      <trkpt lat="46.7632" lon="4.77585">
        <ele>212.632849</ele>
        <time>2011-01-29T13:17:33Z</time>
      </trkpt>
      <trkpt lat="46.76317" lon="4.77572">
        <ele>212.581295</ele>
        <time>2011-01-29T13:17:35Z</time>
      </trkpt>
      <trkpt lat="46.7631" lon="4.77548">
        <ele>212.283934</ele>
        <time>2011-01-29T13:17:38Z</time>
      </trkpt>
      <trkpt lat="46.76306" lon="4.77527">
        <ele>211.63484</ele>
        <time>2011-01-29T13:17:40Z</time>
      </trkpt>
      <trkpt lat="46.76302" lon="4.77507">
        <ele>210.865477</ele>
        <time>2011-01-29T13:17:42Z</time>
      </trkpt>
      <trkpt lat="46.76297" lon="4.77487">
        <ele>210.138637</ele>
        <time>2011-01-29T13:17:45Z</time>
      </trkpt>
      <trkpt lat="46.76273" lon="4.77452">
        <ele>209.339833</ele>
        <time>2011-01-29T13:17:53Z</time>
      </trkpt>
      <trkpt lat="46.76273" lon="4.77452">
        <ele>208.541062</ele>
        <time>2011-01-29T13:17:56Z</time>
      </trkpt>
      <trkpt lat="46.76259" lon="4.77409">
        <ele>207.997345</ele>
        <time>2011-01-29T13:18:03Z</time>
      </trkpt>
      <trkpt lat="46.76253" lon="4.77392">
        <ele>207.735878</ele>
        <time>2011-01-29T13:18:06Z</time>
      </trkpt>
      <trkpt lat="46.76249" lon="4.77376">
        <ele>207.489753</ele>
        <time>2011-01-29T13:18:09Z</time>
      </trkpt>
      <trkpt lat="46.76245" lon="4.77363">
        <ele>206.965087</ele>
        <time>2011-01-29T13:18:12Z</time>
      </trkpt>
      <trkpt lat="46.76241" lon="4.77349">
        <ele>206.139469</ele>
        <time>2011-01-29T13:18:15Z</time>
      </trkpt>
      <trkpt lat="46.76238" lon="4.77334">
        <ele>205.291837</ele>
        <time>2011-01-29T13:18:18Z</time>
      </trkpt>
      <trkpt lat="46.76234" lon="4.7732">
        <ele>204.638521</ele>
        <time>2011-01-29T13:18:21Z</time>
      </trkpt>
      <trkpt lat="46.76231" lon="4.77307">
        <ele>204.177797</ele>
        <time>2011-01-29T13:18:24Z</time>
      </trkpt>
      <trkpt lat="46.76231" lon="4.77307">
        <ele>203.876337</ele>
        <time>2011-01-29T13:18:26Z</time>
      </trkpt>
      <trkpt lat="46.76224" lon="4.77277">
        <ele>203.695354</ele>
        <time>2011-01-29T13:18:33Z</time>
      </trkpt>
      <trkpt lat="46.76221" lon="4.77264">
        <ele>203.541884</ele>
        <time>2011-01-29T13:18:36Z</time>
      </trkpt>
      <trkpt lat="46.76218" lon="4.77251">
        <ele>203.342886</ele>
        <time>2011-01-29T13:18:39Z</time>
      </trkpt>
      <trkpt lat="46.76215" lon="4.77234">
        <ele>203.023661</ele>
        <time>2011-01-29T13:18:42Z</time>
      </trkpt>
      <trkpt lat="46.76211" lon="4.77219">
        <ele>202.544667</ele>
        <time>2011-01-29T13:18:45Z</time>
      </trkpt>
      <trkpt lat="46.76208" lon="4.77204">
        <ele>202.025772</ele>
        <time>2011-01-29T13:18:48Z</time>
      </trkpt>
      <trkpt lat="46.76204" lon="4.77189">
        <ele>201.582824</ele>
        <time>2011-01-29T13:18:51Z</time>
      </trkpt>
      <trkpt lat="46.76201" lon="4.77174">
        <ele>201.211502</ele>
        <time>2011-01-29T13:18:54Z</time>
      </trkpt>
      <trkpt lat="46.76196" lon="4.77159">
        <ele>200.917043</ele>
        <time>2011-01-29T13:18:57Z</time>
      </trkpt>
      <trkpt lat="46.76193" lon="4.77144">
        <ele>200.716555</ele>
        <time>2011-01-29T13:19:00Z</time>
      </trkpt>
      <trkpt lat="46.7619" lon="4.7713">
        <ele>200.59919</ele>
        <time>2011-01-29T13:19:03Z</time>
      </trkpt>
      <trkpt lat="46.76187" lon="4.77116">
        <ele>200.542353</ele>
        <time>2011-01-29T13:19:06Z</time>
      </trkpt>
      <trkpt lat="46.76184" lon="4.77102">
        <ele>200.521423</ele>
        <time>2011-01-29T13:19:09Z</time>
      </trkpt>
      <trkpt lat="46.7618" lon="4.77086">
        <ele>200.512166</ele>
        <time>2011-01-29T13:19:13Z</time>
      </trkpt>
      <trkpt lat="46.76177" lon="4.77072">
        <ele>200.504277</ele>
        <time>2011-01-29T13:19:16Z</time>
      </trkpt>
      <trkpt lat="46.76173" lon="4.77056">
        <ele>200.491994</ele>
        <time>2011-01-29T13:19:19Z</time>
      </trkpt>
      <trkpt lat="46.76169" lon="4.7704">
        <ele>200.459885</ele>
        <time>2011-01-29T13:19:22Z</time>
      </trkpt>
      <trkpt lat="46.76163" lon="4.77025">
        <ele>200.398794</ele>
        <time>2011-01-29T13:19:25Z</time>
      </trkpt>
      <trkpt lat="46.76158" lon="4.77009">
        <ele>200.329502</ele>
        <time>2011-01-29T13:19:28Z</time>
      </trkpt>
      <trkpt lat="46.76154" lon="4.76994">
        <ele>200.283782</ele>
        <time>2011-01-29T13:19:31Z</time>
      </trkpt>
      <trkpt lat="46.76151" lon="4.76977">
        <ele>200.269145</ele>
        <time>2011-01-29T13:19:34Z</time>
      </trkpt>
      <trkpt lat="46.76148" lon="4.76961">
        <ele>200.27746</ele>
        <time>2011-01-29T13:19:37Z</time>
      </trkpt>
      <trkpt lat="46.76144" lon="4.76947">
        <ele>200.344816</ele>
        <time>2011-01-29T13:19:40Z</time>
      </trkpt>
      <trkpt lat="46.7614" lon="4.76933">
        <ele>200.533089</ele>
        <time>2011-01-29T13:19:43Z</time>
      </trkpt>
      <trkpt lat="46.76137" lon="4.76918">
        <ele>200.830507</ele>
        <time>2011-01-29T13:19:46Z</time>
      </trkpt>
      <trkpt lat="46.76134" lon="4.76904">
        <ele>201.141</ele>
        <time>2011-01-29T13:19:49Z</time>
      </trkpt>
      <trkpt lat="46.76131" lon="4.7689">
        <ele>201.366614</ele>
        <time>2011-01-29T13:19:52Z</time>
      </trkpt>
      <trkpt lat="46.76129" lon="4.76876">
        <ele>201.469087</ele>
        <time>2011-01-29T13:19:55Z</time>
      </trkpt>
      <trkpt lat="46.76126" lon="4.76862">
        <ele>201.48186</ele>
        <time>2011-01-29T13:19:58Z</time>
      </trkpt>
      <trkpt lat="46.76122" lon="4.76848">
        <ele>201.44609</ele>
        <time>2011-01-29T13:20:01Z</time>
      </trkpt>
      <trkpt lat="46.76119" lon="4.7683">
        <ele>201.355446</ele>
        <time>2011-01-29T13:20:04Z</time>
      </trkpt>
      <trkpt lat="46.76115" lon="4.76812">
        <ele>201.192759</ele>
        <time>2011-01-29T13:20:07Z</time>
      </trkpt>
      <trkpt lat="46.76111" lon="4.76796">
        <ele>200.957807</ele>
        <time>2011-01-29T13:20:10Z</time>
      </trkpt>
      <trkpt lat="46.76108" lon="4.76781">
        <ele>200.631437</ele>
        <time>2011-01-29T13:20:13Z</time>
      </trkpt>
      <trkpt lat="46.76108" lon="4.76781">
        <ele>200.266399</ele>
        <time>2011-01-29T13:20:15Z</time>
      </trkpt>
      <trkpt lat="46.76104" lon="4.76758">
        <ele>199.927602</ele>
        <time>2011-01-29T13:20:19Z</time>
      </trkpt>
      <trkpt lat="46.76101" lon="4.76744">
        <ele>199.535623</ele>
        <time>2011-01-29T13:20:22Z</time>
      </trkpt>
      <trkpt lat="46.76099" lon="4.76729">
        <ele>198.99684</ele>
        <time>2011-01-29T13:20:25Z</time>
      </trkpt>
      <trkpt lat="46.76096" lon="4.76715">
        <ele>198.262421</ele>
        <time>2011-01-29T13:20:28Z</time>
      </trkpt>
      <trkpt lat="46.76094" lon="4.76701">
        <ele>197.354049</ele>
        <time>2011-01-29T13:20:31Z</time>
      </trkpt>
      <trkpt lat="46.76094" lon="4.76701">
        <ele>196.543678</ele>
        <time>2011-01-29T13:20:34Z</time>
      </trkpt>
      <trkpt lat="46.76105" lon="4.7666">
        <ele>196.027211</ele>
        <time>2011-01-29T13:20:49Z</time>
      </trkpt>
      <trkpt lat="46.76114" lon="4.7665">
        <ele>195.646226</ele>
        <time>2011-01-29T13:20:55Z</time>
      </trkpt>
      <trkpt lat="46.76123" lon="4.76643">
        <ele>195.214797</ele>
        <time>2011-01-29T13:20:59Z</time>
      </trkpt>
      <trkpt lat="46.76131" lon="4.76635">
        <ele>194.39545</ele>
        <time>2011-01-29T13:21:02Z</time>
      </trkpt>
      <trkpt lat="46.76141" lon="4.76623">
        <ele>192.719475</ele>
        <time>2011-01-29T13:21:05Z</time>
      </trkpt>
      <trkpt lat="46.76149" lon="4.76613">
        <ele>190.279335</ele>
        <time>2011-01-29T13:21:08Z</time>
      </trkpt>
      <trkpt lat="46.76157" lon="4.76605">
        <ele>187.7449</ele>
        <time>2011-01-29T13:21:11Z</time>
      </trkpt>
      <trkpt lat="46.76167" lon="4.76599">
        <ele>185.703393</ele>
        <time>2011-01-29T13:21:14Z</time>
      </trkpt>
      <trkpt lat="46.76177" lon="4.76592">
        <ele>184.343746</ele>
        <time>2011-01-29T13:21:17Z</time>
      </trkpt>
      <trkpt lat="46.76187" lon="4.76585">
        <ele>183.527529</ele>
        <time>2011-01-29T13:21:20Z</time>
      </trkpt>
      <trkpt lat="46.76196" lon="4.76578">
        <ele>183.03457</ele>
        <time>2011-01-29T13:21:23Z</time>
      </trkpt>
      <trkpt lat="46.76206" lon="4.76565">
        <ele>182.732825</ele>
        <time>2011-01-29T13:21:28Z</time>
      </trkpt>
      <trkpt lat="46.76213" lon="4.76554">
        <ele>182.586142</ele>
        <time>2011-01-29T13:21:31Z</time>
      </trkpt>
      <trkpt lat="46.76222" lon="4.76542">
        <ele>182.561816</ele>
        <time>2011-01-29T13:21:34Z</time>
      </trkpt>
      <trkpt lat="46.76231" lon="4.76534">
        <ele>182.768311</ele>
        <time>2011-01-29T13:21:37Z</time>
      </trkpt>
      <trkpt lat="46.76241" lon="4.76526">
        <ele>183.484014</ele>
        <time>2011-01-29T13:21:41Z</time>
      </trkpt>
      <trkpt lat="46.76253" lon="4.76523">
        <ele>184.734115</ele>
        <time>2011-01-29T13:21:45Z</time>
      </trkpt>
      <trkpt lat="46.76263" lon="4.76518">
        <ele>186.192826</ele>
        <time>2011-01-29T13:21:49Z</time>
      </trkpt>
      <trkpt lat="46.76272" lon="4.76511">
        <ele>187.607377</ele>
        <time>2011-01-29T13:21:53Z</time>
      </trkpt>
      <trkpt lat="46.76283" lon="4.76503">
        <ele>188.86998</ele>
        <time>2011-01-29T13:21:57Z</time>
      </trkpt>
      <trkpt lat="46.76293" lon="4.76498">
        <ele>189.816633</ele>
        <time>2011-01-29T13:22:00Z</time>
      </trkpt>
      <trkpt lat="46.76305" lon="4.7649">
        <ele>190.312458</ele>
        <time>2011-01-29T13:22:03Z</time>
      </trkpt>
      <trkpt lat="46.76313" lon="4.76485">
        <ele>190.450809</ele>
        <time>2011-01-29T13:22:05Z</time>
      </trkpt>
      <trkpt lat="46.76326" lon="4.76477">
        <ele>190.440038</ele>
        <time>2011-01-29T13:22:08Z</time>
      </trkpt>
      <trkpt lat="46.76335" lon="4.76469">
        <ele>190.417465</ele>
        <time>2011-01-29T13:22:11Z</time>
      </trkpt>
      <trkpt lat="46.76344" lon="4.76458">
        <ele>190.41168</ele>
        <time>2011-01-29T13:22:14Z</time>
      </trkpt>
      <trkpt lat="46.76352" lon="4.76447">
        <ele>190.413761</ele>
        <time>2011-01-29T13:22:17Z</time>
      </trkpt>
      <trkpt lat="46.7636" lon="4.76439">
        <ele>190.438056</ele>
        <time>2011-01-29T13:22:20Z</time>
      </trkpt>
      <trkpt lat="46.76367" lon="4.76431">
        <ele>190.593889</ele>
        <time>2011-01-29T13:22:23Z</time>
      </trkpt>
      <trkpt lat="46.76376" lon="4.76424">
        <ele>191.007632</ele>
        <time>2011-01-29T13:22:26Z</time>
      </trkpt>
      <trkpt lat="46.76387" lon="4.76417">
        <ele>191.638421</ele>
        <time>2011-01-29T13:22:29Z</time>
      </trkpt>
      <trkpt lat="46.76396" lon="4.76409">
        <ele>192.314611</ele>
        <time>2011-01-29T13:22:32Z</time>
      </trkpt>
      <trkpt lat="46.76405" lon="4.764">
        <ele>192.964969</ele>
        <time>2011-01-29T13:22:36Z</time>
      </trkpt>
      <trkpt lat="46.76413" lon="4.76392">
        <ele>193.6516</ele>
        <time>2011-01-29T13:22:39Z</time>
      </trkpt>
      <trkpt lat="46.76423" lon="4.76383">
        <ele>194.408347</ele>
        <time>2011-01-29T13:22:43Z</time>
      </trkpt>
      <trkpt lat="46.76431" lon="4.76375">
        <ele>195.166221</ele>
        <time>2011-01-29T13:22:46Z</time>
      </trkpt>
      <trkpt lat="46.76439" lon="4.76368">
        <ele>195.806178</ele>
        <time>2011-01-29T13:22:49Z</time>
      </trkpt>
      <trkpt lat="46.76447" lon="4.7636">
        <ele>196.277924</ele>
        <time>2011-01-29T13:22:53Z</time>
      </trkpt>
      <trkpt lat="46.76455" lon="4.76354">
        <ele>196.640888</ele>
        <time>2011-01-29T13:22:56Z</time>
      </trkpt>
      <trkpt lat="46.76465" lon="4.76342">
        <ele>196.96012</ele>
        <time>2011-01-29T13:22:59Z</time>
      </trkpt>
      <trkpt lat="46.76474" lon="4.76331">
        <ele>197.25922</ele>
        <time>2011-01-29T13:23:02Z</time>
      </trkpt>
      <trkpt lat="46.76482" lon="4.76321">
        <ele>197.575316</ele>
        <time>2011-01-29T13:23:06Z</time>
      </trkpt>
      <trkpt lat="46.76491" lon="4.76312">
        <ele>197.98753</ele>
        <time>2011-01-29T13:23:11Z</time>
      </trkpt>
      <trkpt lat="46.765" lon="4.76305">
        <ele>198.576291</ele>
        <time>2011-01-29T13:23:16Z</time>
      </trkpt>
      <trkpt lat="46.76509" lon="4.76302">
        <ele>199.347409</ele>
        <time>2011-01-29T13:23:20Z</time>
      </trkpt>
      <trkpt lat="46.7652" lon="4.76298">
        <ele>200.214385</ele>
        <time>2011-01-29T13:23:23Z</time>
      </trkpt>
      <trkpt lat="46.76531" lon="4.76294">
        <ele>200.961718</ele>
        <time>2011-01-29T13:23:26Z</time>
      </trkpt>
      <trkpt lat="46.7654" lon="4.76288">
        <ele>201.376531</ele>
        <time>2011-01-29T13:23:29Z</time>
      </trkpt>
      <trkpt lat="46.76549" lon="4.7628">
        <ele>201.475525</ele>
        <time>2011-01-29T13:23:32Z</time>
      </trkpt>
      <trkpt lat="46.76557" lon="4.76271">
        <ele>201.384901</ele>
        <time>2011-01-29T13:23:35Z</time>
      </trkpt>
      <trkpt lat="46.76563" lon="4.76262">
        <ele>201.188079</ele>
        <time>2011-01-29T13:23:38Z</time>
      </trkpt>
      <trkpt lat="46.76573" lon="4.76254">
        <ele>200.979619</ele>
        <time>2011-01-29T13:23:42Z</time>
      </trkpt>
      <trkpt lat="46.76583" lon="4.76246">
        <ele>200.822558</ele>
        <time>2011-01-29T13:23:46Z</time>
      </trkpt>
      <trkpt lat="46.76596" lon="4.76239">
        <ele>200.707599</ele>
        <time>2011-01-29T13:23:49Z</time>
      </trkpt>
      <trkpt lat="46.76605" lon="4.76234">
        <ele>200.589565</ele>
        <time>2011-01-29T13:23:51Z</time>
      </trkpt>
      <trkpt lat="46.76618" lon="4.76223">
        <ele>200.392943</ele>
        <time>2011-01-29T13:23:54Z</time>
      </trkpt>
      <trkpt lat="46.76628" lon="4.76214">
        <ele>200.10544</ele>
        <time>2011-01-29T13:23:57Z</time>
      </trkpt>
      <trkpt lat="46.76638" lon="4.76205">
        <ele>199.836054</ele>
        <time>2011-01-29T13:24:00Z</time>
      </trkpt>
      <trkpt lat="46.76646" lon="4.76198">
        <ele>199.687598</ele>
        <time>2011-01-29T13:24:03Z</time>
      </trkpt>
      <trkpt lat="46.76656" lon="4.76189">
        <ele>199.652642</ele>
        <time>2011-01-29T13:24:06Z</time>
      </trkpt>
      <trkpt lat="46.76666" lon="4.7618">
        <ele>199.668514</ele>
        <time>2011-01-29T13:24:09Z</time>
      </trkpt>
      <trkpt lat="46.76675" lon="4.76173">
        <ele>199.690333</ele>
        <time>2011-01-29T13:24:12Z</time>
      </trkpt>
      <trkpt lat="46.76684" lon="4.76168">
        <ele>199.64603</ele>
        <time>2011-01-29T13:24:15Z</time>
      </trkpt>
      <trkpt lat="46.76692" lon="4.76162">
        <ele>199.43595</ele>
        <time>2011-01-29T13:24:18Z</time>
      </trkpt>
      <trkpt lat="46.76701" lon="4.76156">
        <ele>199.049073</ele>
        <time>2011-01-29T13:24:21Z</time>
      </trkpt>
      <trkpt lat="46.76712" lon="4.76145">
        <ele>198.579217</ele>
        <time>2011-01-29T13:24:24Z</time>
      </trkpt>
      <trkpt lat="46.76721" lon="4.76139">
        <ele>198.102268</ele>
        <time>2011-01-29T13:24:26Z</time>
      </trkpt>
      <trkpt lat="46.76729" lon="4.76133">
        <ele>197.695232</ele>
        <time>2011-01-29T13:24:28Z</time>
      </trkpt>
      <trkpt lat="46.76739" lon="4.76127">
        <ele>197.451212</ele>
        <time>2011-01-29T13:24:31Z</time>
      </trkpt>
      <trkpt lat="46.76749" lon="4.76122">
        <ele>197.365318</ele>
        <time>2011-01-29T13:24:34Z</time>
      </trkpt>
      <trkpt lat="46.76759" lon="4.76117">
        <ele>197.34607</ele>
        <time>2011-01-29T13:24:37Z</time>
      </trkpt>
      <trkpt lat="46.76768" lon="4.76112">
        <ele>197.342573</ele>
        <time>2011-01-29T13:24:40Z</time>
      </trkpt>
      <trkpt lat="46.76776" lon="4.76105">
        <ele>197.344174</ele>
        <time>2011-01-29T13:24:43Z</time>
      </trkpt>
      <trkpt lat="46.76786" lon="4.76095">
        <ele>197.3283</ele>
        <time>2011-01-29T13:24:47Z</time>
      </trkpt>
      <trkpt lat="46.76793" lon="4.76086">
        <ele>197.274928</ele>
        <time>2011-01-29T13:24:50Z</time>
      </trkpt>
      <trkpt lat="46.76801" lon="4.76074">
        <ele>197.207364</ele>
        <time>2011-01-29T13:24:54Z</time>
      </trkpt>
      <trkpt lat="46.76809" lon="4.76065">
        <ele>197.164274</ele>
        <time>2011-01-29T13:24:58Z</time>
      </trkpt>
      <trkpt lat="46.76819" lon="4.76058">
        <ele>197.151122</ele>
        <time>2011-01-29T13:25:02Z</time>
      </trkpt>
      <trkpt lat="46.7683" lon="4.7605">
        <ele>197.171053</ele>
        <time>2011-01-29T13:25:05Z</time>
      </trkpt>
      <trkpt lat="46.7684" lon="4.76043">
        <ele>197.224427</ele>
        <time>2011-01-29T13:25:08Z</time>
      </trkpt>
      <trkpt lat="46.7685" lon="4.76033">
        <ele>197.317661</ele>
        <time>2011-01-29T13:25:12Z</time>
      </trkpt>
      <trkpt lat="46.76857" lon="4.76025">
        <ele>197.530536</ele>
        <time>2011-01-29T13:25:15Z</time>
      </trkpt>
      <trkpt lat="46.76867" lon="4.76017">
        <ele>197.943592</ele>
        <time>2011-01-29T13:25:18Z</time>
      </trkpt>
      <trkpt lat="46.76878" lon="4.7601">
        <ele>198.543475</ele>
        <time>2011-01-29T13:25:21Z</time>
      </trkpt>
      <trkpt lat="46.76889" lon="4.76003">
        <ele>199.252427</ele>
        <time>2011-01-29T13:25:24Z</time>
      </trkpt>
      <trkpt lat="46.76899" lon="4.75997">
        <ele>199.956818</ele>
        <time>2011-01-29T13:25:27Z</time>
      </trkpt>
      <trkpt lat="46.76908" lon="4.75991">
        <ele>200.575048</ele>
        <time>2011-01-29T13:25:31Z</time>
      </trkpt>
      <trkpt lat="46.76915" lon="4.75981">
        <ele>201.135023</ele>
        <time>2011-01-29T13:25:36Z</time>
      </trkpt>
      <trkpt lat="46.76916" lon="4.75967">
        <ele>201.685203</ele>
        <time>2011-01-29T13:25:40Z</time>
      </trkpt>
      <trkpt lat="46.76913" lon="4.7595">
        <ele>202.157221</ele>
        <time>2011-01-29T13:25:44Z</time>
      </trkpt>
      <trkpt lat="46.7691" lon="4.75938">
        <ele>202.430894</ele>
        <time>2011-01-29T13:25:47Z</time>
      </trkpt>
      <trkpt lat="46.76906" lon="4.75925">
        <ele>202.506413</ele>
        <time>2011-01-29T13:25:50Z</time>
      </trkpt>
      <trkpt lat="46.76903" lon="4.75913">
        <ele>202.485265</ele>
        <time>2011-01-29T13:25:53Z</time>
      </trkpt>
      <trkpt lat="46.76898" lon="4.75898">
        <ele>202.447846</ele>
        <time>2011-01-29T13:25:56Z</time>
      </trkpt>
      <trkpt lat="46.76893" lon="4.75883">
        <ele>202.41482</ele>
        <time>2011-01-29T13:25:59Z</time>
      </trkpt>
      <trkpt lat="46.76887" lon="4.75867">
        <ele>202.345929</ele>
        <time>2011-01-29T13:26:02Z</time>
      </trkpt>
      <trkpt lat="46.7688" lon="4.75844">
        <ele>202.200739</ele>
        <time>2011-01-29T13:26:05Z</time>
      </trkpt>
      <trkpt lat="46.7688" lon="4.7583">
        <ele>201.99038</ele>
        <time>2011-01-29T13:26:08Z</time>
      </trkpt>
      <trkpt lat="46.7688" lon="4.7583">
        <ele>201.781689</ele>
        <time>2011-01-29T13:26:11Z</time>
      </trkpt>
      <trkpt lat="46.76894" lon="4.7581">
        <ele>201.438232</ele>
        <time>2011-01-29T13:26:17Z</time>
      </trkpt>
      <trkpt lat="46.76901" lon="4.75797">
        <ele>200.384122</ele>
        <time>2011-01-29T13:26:20Z</time>
      </trkpt>
      <trkpt lat="46.76913" lon="4.75781">
        <ele>198.580005</ele>
        <time>2011-01-29T13:26:23Z</time>
      </trkpt>
      <trkpt lat="46.76922" lon="4.75768">
        <ele>196.767267</ele>
        <time>2011-01-29T13:26:25Z</time>
      </trkpt>
      <trkpt lat="46.7693" lon="4.75758">
        <ele>195.463291</ele>
        <time>2011-01-29T13:26:28Z</time>
      </trkpt>
      <trkpt lat="46.76944" lon="4.75743">
        <ele>194.702668</ele>
        <time>2011-01-29T13:26:32Z</time>
      </trkpt>
      <trkpt lat="46.76954" lon="4.75733">
        <ele>194.314312</ele>
        <time>2011-01-29T13:26:35Z</time>
      </trkpt>
      <trkpt lat="46.76965" lon="4.75722">
        <ele>193.979443</ele>
        <time>2011-01-29T13:26:38Z</time>
      </trkpt>
      <trkpt lat="46.76977" lon="4.75713">
        <ele>193.608958</ele>
        <time>2011-01-29T13:26:41Z</time>
      </trkpt>
      <trkpt lat="46.76985" lon="4.75708">
        <ele>193.095168</ele>
        <time>2011-01-29T13:26:43Z</time>
      </trkpt>
      <trkpt lat="46.76998" lon="4.75698">
        <ele>192.070472</ele>
        <time>2011-01-29T13:26:46Z</time>
      </trkpt>
      <trkpt lat="46.77006" lon="4.75691">
        <ele>190.506353</ele>
        <time>2011-01-29T13:26:48Z</time>
      </trkpt>
      <trkpt lat="46.77015" lon="4.75675">
        <ele>189.027887</ele>
        <time>2011-01-29T13:26:51Z</time>
      </trkpt>
      <trkpt lat="46.77021" lon="4.75663">
        <ele>188.118176</ele>
        <time>2011-01-29T13:26:53Z</time>
      </trkpt>
      <trkpt lat="46.77029" lon="4.75643">
        <ele>187.709188</ele>
        <time>2011-01-29T13:26:56Z</time>
      </trkpt>
      <trkpt lat="46.77034" lon="4.75631">
        <ele>187.546924</ele>
        <time>2011-01-29T13:26:58Z</time>
      </trkpt>
      <trkpt lat="46.77041" lon="4.75614">
        <ele>187.459726</ele>
        <time>2011-01-29T13:27:01Z</time>
      </trkpt>
      <trkpt lat="46.77048" lon="4.75599">
        <ele>187.398051</ele>
        <time>2011-01-29T13:27:04Z</time>
      </trkpt>
      <trkpt lat="46.77054" lon="4.75585">
        <ele>187.368155</ele>
        <time>2011-01-29T13:27:07Z</time>
      </trkpt>
      <trkpt lat="46.77059" lon="4.75572">
        <ele>187.363246</ele>
        <time>2011-01-29T13:27:10Z</time>
      </trkpt>
      <trkpt lat="46.77065" lon="4.7556">
        <ele>187.516632</ele>
        <time>2011-01-29T13:27:13Z</time>
      </trkpt>
      <trkpt lat="46.77071" lon="4.75549">
        <ele>187.919688</ele>
        <time>2011-01-29T13:27:16Z</time>
      </trkpt>
      <trkpt lat="46.77077" lon="4.75536">
        <ele>188.363515</ele>
        <time>2011-01-29T13:27:19Z</time>
      </trkpt>
      <trkpt lat="46.77083" lon="4.75522">
        <ele>188.639299</ele>
        <time>2011-01-29T13:27:22Z</time>
      </trkpt>
      <trkpt lat="46.77088" lon="4.75507">
        <ele>188.784536</ele>
        <time>2011-01-29T13:27:25Z</time>
      </trkpt>
      <trkpt lat="46.77094" lon="4.75491">
        <ele>188.876159</ele>
        <time>2011-01-29T13:27:28Z</time>
      </trkpt>
      <trkpt lat="46.77099" lon="4.75476">
        <ele>188.951286</ele>
        <time>2011-01-29T13:27:31Z</time>
      </trkpt>
      <trkpt lat="46.77105" lon="4.75459">
        <ele>189.012653</ele>
        <time>2011-01-29T13:27:34Z</time>
      </trkpt>
      <trkpt lat="46.77109" lon="4.75447">
        <ele>189.119145</ele>
        <time>2011-01-29T13:27:36Z</time>
      </trkpt>
      <trkpt lat="46.77115" lon="4.75429">
        <ele>189.360159</ele>
        <time>2011-01-29T13:27:39Z</time>
      </trkpt>
      <trkpt lat="46.7712" lon="4.75416">
        <ele>189.688235</ele>
        <time>2011-01-29T13:27:41Z</time>
      </trkpt>
      <trkpt lat="46.77128" lon="4.75398">
        <ele>189.946513</ele>
        <time>2011-01-29T13:27:44Z</time>
      </trkpt>
      <trkpt lat="46.77133" lon="4.75385">
        <ele>190.062718</ele>
        <time>2011-01-29T13:27:46Z</time>
      </trkpt>
      <trkpt lat="46.77137" lon="4.75372">
        <ele>190.076511</ele>
        <time>2011-01-29T13:27:48Z</time>
      </trkpt>
      <trkpt lat="46.7714" lon="4.75351">
        <ele>190.033413</ele>
        <time>2011-01-29T13:27:51Z</time>
      </trkpt>
      <trkpt lat="46.77143" lon="4.75337">
        <ele>189.94326</ele>
        <time>2011-01-29T13:27:53Z</time>
      </trkpt>
      <trkpt lat="46.77146" lon="4.75323">
        <ele>189.793771</ele>
        <time>2011-01-29T13:27:55Z</time>
      </trkpt>
      <trkpt lat="46.77153" lon="4.75305">
        <ele>189.606615</ele>
        <time>2011-01-29T13:27:58Z</time>
      </trkpt>
      <trkpt lat="46.77161" lon="4.75291">
        <ele>189.454236</ele>
        <time>2011-01-29T13:28:01Z</time>
      </trkpt>
      <trkpt lat="46.7717" lon="4.75275">
        <ele>189.359615</ele>
        <time>2011-01-29T13:28:04Z</time>
      </trkpt>
      <trkpt lat="46.77178" lon="4.75259">
        <ele>189.266297</ele>
        <time>2011-01-29T13:28:07Z</time>
      </trkpt>
      <trkpt lat="46.77183" lon="4.75249">
        <ele>189.128867</ele>
        <time>2011-01-29T13:28:09Z</time>
      </trkpt>
      <trkpt lat="46.77192" lon="4.75233">
        <ele>188.851919</ele>
        <time>2011-01-29T13:28:12Z</time>
      </trkpt>
      <trkpt lat="46.77201" lon="4.75218">
        <ele>188.405358</ele>
        <time>2011-01-29T13:28:15Z</time>
      </trkpt>
      <trkpt lat="46.77211" lon="4.75203">
        <ele>187.980557</ele>
        <time>2011-01-29T13:28:18Z</time>
      </trkpt>
      <trkpt lat="46.77217" lon="4.75193">
        <ele>187.753686</ele>
        <time>2011-01-29T13:28:20Z</time>
      </trkpt>
      <trkpt lat="46.77223" lon="4.75182">
        <ele>187.681363</ele>
        <time>2011-01-29T13:28:22Z</time>
      </trkpt>
      <trkpt lat="46.77232" lon="4.75167">
        <ele>187.66607</ele>
        <time>2011-01-29T13:28:25Z</time>
      </trkpt>
      <trkpt lat="46.77238" lon="4.75157">
        <ele>187.665073</ele>
        <time>2011-01-29T13:28:27Z</time>
      </trkpt>
      <trkpt lat="46.77248" lon="4.75142">
        <ele>187.625879</ele>
        <time>2011-01-29T13:28:30Z</time>
      </trkpt>
      <trkpt lat="46.77255" lon="4.75132">
        <ele>187.475873</ele>
        <time>2011-01-29T13:28:32Z</time>
      </trkpt>
      <trkpt lat="46.77269" lon="4.75124">
        <ele>187.254509</ele>
        <time>2011-01-29T13:28:35Z</time>
      </trkpt>
      <trkpt lat="46.77285" lon="4.75127">
        <ele>187.089266</ele>
        <time>2011-01-29T13:28:38Z</time>
      </trkpt>
      <trkpt lat="46.77293" lon="4.75134">
        <ele>187.02808</ele>
        <time>2011-01-29T13:28:40Z</time>
      </trkpt>
      <trkpt lat="46.77306" lon="4.75141">
        <ele>187.106122</ele>
        <time>2011-01-29T13:28:43Z</time>
      </trkpt>
      <trkpt lat="46.7732" lon="4.75151">
        <ele>187.445859</ele>
        <time>2011-01-29T13:28:46Z</time>
      </trkpt>
      <trkpt lat="46.77332" lon="4.75162">
        <ele>188.0181</ele>
        <time>2011-01-29T13:28:49Z</time>
      </trkpt>
      <trkpt lat="46.77345" lon="4.75168">
        <ele>188.542714</ele>
        <time>2011-01-29T13:28:52Z</time>
      </trkpt>
      <trkpt lat="46.77357" lon="4.75162">
        <ele>188.811991</ele>
        <time>2011-01-29T13:28:55Z</time>
      </trkpt>
      <trkpt lat="46.77367" lon="4.75148">
        <ele>188.865004</ele>
        <time>2011-01-29T13:28:58Z</time>
      </trkpt>
      <trkpt lat="46.77375" lon="4.75132">
        <ele>188.775519</ele>
        <time>2011-01-29T13:29:01Z</time>
      </trkpt>
      <trkpt lat="46.77382" lon="4.75114">
        <ele>188.517876</ele>
        <time>2011-01-29T13:29:04Z</time>
      </trkpt>
      <trkpt lat="46.77388" lon="4.75097">
        <ele>188.079813</ele>
        <time>2011-01-29T13:29:07Z</time>
      </trkpt>
      <trkpt lat="46.77394" lon="4.7508">
        <ele>187.562019</ele>
        <time>2011-01-29T13:29:10Z</time>
      </trkpt>
      <trkpt lat="46.77401" lon="4.75064">
        <ele>187.095698</ele>
        <time>2011-01-29T13:29:13Z</time>
      </trkpt>
      <trkpt lat="46.77407" lon="4.7505">
        <ele>186.75128</ele>
        <time>2011-01-29T13:29:16Z</time>
      </trkpt>
      <trkpt lat="46.77412" lon="4.75036">
        <ele>186.547489</ele>
        <time>2011-01-29T13:29:19Z</time>
      </trkpt>
      <trkpt lat="46.77417" lon="4.75022">
        <ele>186.471362</ele>
        <time>2011-01-29T13:29:22Z</time>
      </trkpt>
      <trkpt lat="46.77421" lon="4.75009">
        <ele>186.472183</ele>
        <time>2011-01-29T13:29:25Z</time>
      </trkpt>
      <trkpt lat="46.77425" lon="4.74994">
        <ele>186.521307</ele>
        <time>2011-01-29T13:29:28Z</time>
      </trkpt>
      <trkpt lat="46.77429" lon="4.7498">
        <ele>186.615042</ele>
        <time>2011-01-29T13:29:31Z</time>
      </trkpt>
      <trkpt lat="46.77434" lon="4.74966">
        <ele>186.718037</ele>
        <time>2011-01-29T13:29:34Z</time>
      </trkpt>
      <trkpt lat="46.77438" lon="4.74953">
        <ele>186.787383</ele>
        <time>2011-01-29T13:29:37Z</time>
      </trkpt>
      <trkpt lat="46.77442" lon="4.7494">
        <ele>186.816261</ele>
        <time>2011-01-29T13:29:40Z</time>
      </trkpt>
      <trkpt lat="46.77446" lon="4.74926">
        <ele>186.818217</ele>
        <time>2011-01-29T13:29:43Z</time>
      </trkpt>
      <trkpt lat="46.77451" lon="4.74913">
        <ele>186.809434</ele>
        <time>2011-01-29T13:29:46Z</time>
      </trkpt>
      <trkpt lat="46.77456" lon="4.74902">
        <ele>186.795636</ele>
        <time>2011-01-29T13:29:49Z</time>
      </trkpt>
      <trkpt lat="46.77462" lon="4.74892">
        <ele>186.780398</ele>
        <time>2011-01-29T13:29:52Z</time>
      </trkpt>
      <trkpt lat="46.77469" lon="4.74878">
        <ele>186.769988</ele>
        <time>2011-01-29T13:29:56Z</time>
      </trkpt>
      <trkpt lat="46.77474" lon="4.74868">
        <ele>186.766501</ele>
        <time>2011-01-29T13:29:59Z</time>
      </trkpt>
      <trkpt lat="46.7748" lon="4.74856">
        <ele>186.767523</ele>
        <time>2011-01-29T13:30:02Z</time>
      </trkpt>
      <trkpt lat="46.77485" lon="4.74845">
        <ele>186.778358</ele>
        <time>2011-01-29T13:30:05Z</time>
      </trkpt>
      <trkpt lat="46.77491" lon="4.74831">
        <ele>186.804928</ele>
        <time>2011-01-29T13:30:08Z</time>
      </trkpt>
      <trkpt lat="46.77499" lon="4.7482">
        <ele>186.842784</ele>
        <time>2011-01-29T13:30:11Z</time>
      </trkpt>
      <trkpt lat="46.77508" lon="4.74811">
        <ele>186.890088</ele>
        <time>2011-01-29T13:30:14Z</time>
      </trkpt>
      <trkpt lat="46.77519" lon="4.74807">
        <ele>186.94929</ele>
        <time>2011-01-29T13:30:17Z</time>
      </trkpt>
      <trkpt lat="46.77532" lon="4.74806">
        <ele>187.012113</ele>
        <time>2011-01-29T13:30:20Z</time>
      </trkpt>
      <trkpt lat="46.77546" lon="4.74808">
        <ele>187.071337</ele>
        <time>2011-01-29T13:30:23Z</time>
      </trkpt>
      <trkpt lat="46.77558" lon="4.74811">
        <ele>187.141862</ele>
        <time>2011-01-29T13:30:26Z</time>
      </trkpt>
      <trkpt lat="46.77571" lon="4.74816">
        <ele>187.442691</ele>
        <time>2011-01-29T13:30:29Z</time>
      </trkpt>
      <trkpt lat="46.77584" lon="4.74821">
        <ele>188.323943</ele>
        <time>2011-01-29T13:30:32Z</time>
      </trkpt>
      <trkpt lat="46.77593" lon="4.74825">
        <ele>189.764538</ele>
        <time>2011-01-29T13:30:34Z</time>
      </trkpt>
      <trkpt lat="46.77607" lon="4.74831">
        <ele>191.2795</ele>
        <time>2011-01-29T13:30:37Z</time>
      </trkpt>
      <trkpt lat="46.77622" lon="4.74837">
        <ele>192.40622</ele>
        <time>2011-01-29T13:30:40Z</time>
      </trkpt>
      <trkpt lat="46.77637" lon="4.74843">
        <ele>193.016706</ele>
        <time>2011-01-29T13:30:43Z</time>
      </trkpt>
      <trkpt lat="46.77647" lon="4.74848">
        <ele>193.306611</ele>
        <time>2011-01-29T13:30:45Z</time>
      </trkpt>
      <trkpt lat="46.77663" lon="4.74857">
        <ele>193.61694</ele>
        <time>2011-01-29T13:30:48Z</time>
      </trkpt>
      <trkpt lat="46.7768" lon="4.74866">
        <ele>194.132263</ele>
        <time>2011-01-29T13:30:51Z</time>
      </trkpt>
      <trkpt lat="46.77691" lon="4.74871">
        <ele>194.692861</ele>
        <time>2011-01-29T13:30:53Z</time>
      </trkpt>
      <trkpt lat="46.77707" lon="4.7488">
        <ele>195.044112</ele>
        <time>2011-01-29T13:30:56Z</time>
      </trkpt>
      <trkpt lat="46.77718" lon="4.74887">
        <ele>195.169398</ele>
        <time>2011-01-29T13:30:58Z</time>
      </trkpt>
      <trkpt lat="46.77728" lon="4.74894">
        <ele>195.204943</ele>
        <time>2011-01-29T13:31:00Z</time>
      </trkpt>
      <trkpt lat="46.77742" lon="4.74907">
        <ele>195.227838</ele>
        <time>2011-01-29T13:31:03Z</time>
      </trkpt>
      <trkpt lat="46.77752" lon="4.74914">
        <ele>195.298091</ele>
        <time>2011-01-29T13:31:05Z</time>
      </trkpt>
      <trkpt lat="46.77764" lon="4.74926">
        <ele>195.505948</ele>
        <time>2011-01-29T13:31:08Z</time>
      </trkpt>
      <trkpt lat="46.77776" lon="4.7494">
        <ele>195.874596</ele>
        <time>2011-01-29T13:31:11Z</time>
      </trkpt>
      <trkpt lat="46.77786" lon="4.74948">
        <ele>196.310278</ele>
        <time>2011-01-29T13:31:13Z</time>
      </trkpt>
      <trkpt lat="46.778" lon="4.74955">
        <ele>196.713056</ele>
        <time>2011-01-29T13:31:16Z</time>
      </trkpt>
      <trkpt lat="46.77816" lon="4.74959">
        <ele>197.064265</ele>
        <time>2011-01-29T13:31:19Z</time>
      </trkpt>
      <trkpt lat="46.77826" lon="4.74961">
        <ele>197.373324</ele>
        <time>2011-01-29T13:31:21Z</time>
      </trkpt>
      <trkpt lat="46.77843" lon="4.74963">
        <ele>197.623598</ele>
        <time>2011-01-29T13:31:24Z</time>
      </trkpt>
      <trkpt lat="46.77858" lon="4.74964">
        <ele>197.826738</ele>
        <time>2011-01-29T13:31:27Z</time>
      </trkpt>
      <trkpt lat="46.77867" lon="4.74964">
        <ele>197.990509</ele>
        <time>2011-01-29T13:31:29Z</time>
      </trkpt>
      <trkpt lat="46.77881" lon="4.74964">
        <ele>198.08676</ele>
        <time>2011-01-29T13:31:32Z</time>
      </trkpt>
      <trkpt lat="46.7789" lon="4.74964">
        <ele>198.112475</ele>
        <time>2011-01-29T13:31:34Z</time>
      </trkpt>
      <trkpt lat="46.77904" lon="4.74966">
        <ele>198.070736</ele>
        <time>2011-01-29T13:31:37Z</time>
      </trkpt>
      <trkpt lat="46.77917" lon="4.74966">
        <ele>197.928346</ele>
        <time>2011-01-29T13:31:40Z</time>
      </trkpt>
      <trkpt lat="46.7793" lon="4.74968">
        <ele>197.722943</ele>
        <time>2011-01-29T13:31:43Z</time>
      </trkpt>
      <trkpt lat="46.77941" lon="4.74968">
        <ele>197.567726</ele>
        <time>2011-01-29T13:31:46Z</time>
      </trkpt>
      <trkpt lat="46.7795" lon="4.74967">
        <ele>197.509531</ele>
        <time>2011-01-29T13:31:50Z</time>
      </trkpt>
      <trkpt lat="46.7795" lon="4.74967">
        <ele>197.502549</ele>
        <time>2011-01-29T13:31:52Z</time>
      </trkpt>
      <trkpt lat="46.7795" lon="4.74967">
        <ele>197.500083</ele>
        <time>2011-01-29T13:32:21Z</time>
      </trkpt>
      <trkpt lat="46.77963" lon="4.74981">
        <ele>197.492772</ele>
        <time>2011-01-29T13:32:36Z</time>
      </trkpt>
      <trkpt lat="46.77973" lon="4.74988">
        <ele>197.45956</ele>
        <time>2011-01-29T13:32:39Z</time>
      </trkpt>
      <trkpt lat="46.77983" lon="4.74995">
        <ele>197.383061</ele>
        <time>2011-01-29T13:32:42Z</time>
      </trkpt>
      <trkpt lat="46.77994" lon="4.75">
        <ele>197.247525</ele>
        <time>2011-01-29T13:32:45Z</time>
      </trkpt>
      <trkpt lat="46.78006" lon="4.75005">
        <ele>197.02431</ele>
        <time>2011-01-29T13:32:48Z</time>
      </trkpt>
      <trkpt lat="46.78018" lon="4.75009">
        <ele>196.730375</ele>
        <time>2011-01-29T13:32:51Z</time>
      </trkpt>
      <trkpt lat="46.78031" lon="4.75015">
        <ele>196.283727</ele>
        <time>2011-01-29T13:32:54Z</time>
      </trkpt>
      <trkpt lat="46.78041" lon="4.7502">
        <ele>195.493179</ele>
        <time>2011-01-29T13:32:56Z</time>
      </trkpt>
      <trkpt lat="46.7805" lon="4.75025">
        <ele>194.403648</ele>
        <time>2011-01-29T13:32:58Z</time>
      </trkpt>
      <trkpt lat="46.78059" lon="4.7503">
        <ele>193.395494</ele>
        <time>2011-01-29T13:33:00Z</time>
      </trkpt>
      <trkpt lat="46.78073" lon="4.75035">
        <ele>192.815162</ele>
        <time>2011-01-29T13:33:03Z</time>
      </trkpt>
      <trkpt lat="46.78082" lon="4.75039">
        <ele>192.666018</ele>
        <time>2011-01-29T13:33:05Z</time>
      </trkpt>
      <trkpt lat="46.78095" lon="4.75044">
        <ele>192.742356</ele>
        <time>2011-01-29T13:33:08Z</time>
      </trkpt>
      <trkpt lat="46.78106" lon="4.75047">
        <ele>192.970747</ele>
        <time>2011-01-29T13:33:11Z</time>
      </trkpt>
      <trkpt lat="46.78114" lon="4.75041">
        <ele>193.409879</ele>
        <time>2011-01-29T13:33:14Z</time>
      </trkpt>
      <trkpt lat="46.78123" lon="4.75032">
        <ele>194.079948</ele>
        <time>2011-01-29T13:33:18Z</time>
      </trkpt>
      <trkpt lat="46.78123" lon="4.75032">
        <ele>194.789094</ele>
        <time>2011-01-29T13:33:20Z</time>
      </trkpt>
      <trkpt lat="46.78135" lon="4.75015">
        <ele>195.251814</ele>
        <time>2011-01-29T13:33:28Z</time>
      </trkpt>
      <trkpt lat="46.78138" lon="4.75001">
        <ele>195.397711</ele>
        <time>2011-01-29T13:33:31Z</time>
      </trkpt>
      <trkpt lat="46.7814" lon="4.74986">
        <ele>195.368228</ele>
        <time>2011-01-29T13:33:34Z</time>
      </trkpt>
      <trkpt lat="46.78144" lon="4.7497">
        <ele>195.29075</ele>
        <time>2011-01-29T13:33:38Z</time>
      </trkpt>
      <trkpt lat="46.78147" lon="4.74956">
        <ele>195.233031</ele>
        <time>2011-01-29T13:33:41Z</time>
      </trkpt>
      <trkpt lat="46.78149" lon="4.74941">
        <ele>195.20325</ele>
        <time>2011-01-29T13:33:44Z</time>
      </trkpt>
      <trkpt lat="46.78151" lon="4.74926">
        <ele>195.182563</ele>
        <time>2011-01-29T13:33:47Z</time>
      </trkpt>
      <trkpt lat="46.78154" lon="4.7491">
        <ele>195.154092</ele>
        <time>2011-01-29T13:33:50Z</time>
      </trkpt>
      <trkpt lat="46.78156" lon="4.74894">
        <ele>195.099418</ele>
        <time>2011-01-29T13:33:53Z</time>
      </trkpt>
      <trkpt lat="46.78159" lon="4.74878">
        <ele>195.01657</ele>
        <time>2011-01-29T13:33:56Z</time>
      </trkpt>
      <trkpt lat="46.78162" lon="4.74862">
        <ele>194.925295</ele>
        <time>2011-01-29T13:33:59Z</time>
      </trkpt>
      <trkpt lat="46.78164" lon="4.74847">
        <ele>194.831745</ele>
        <time>2011-01-29T13:34:02Z</time>
      </trkpt>
      <trkpt lat="46.78169" lon="4.74835">
        <ele>194.733572</ele>
        <time>2011-01-29T13:34:05Z</time>
      </trkpt>
      <trkpt lat="46.78179" lon="4.74837">
        <ele>194.639475</ele>
        <time>2011-01-29T13:34:09Z</time>
      </trkpt>
      <trkpt lat="46.78188" lon="4.74846">
        <ele>194.555618</ele>
        <time>2011-01-29T13:34:13Z</time>
      </trkpt>
      <trkpt lat="46.78188" lon="4.74846">
        <ele>194.48549</ele>
        <time>2011-01-29T13:34:16Z</time>
      </trkpt>
      <trkpt lat="46.78208" lon="4.74863">
        <ele>194.441455</ele>
        <time>2011-01-29T13:34:28Z</time>
      </trkpt>
      <trkpt lat="46.78218" lon="4.74866">
        <ele>194.426646</ele>
        <time>2011-01-29T13:34:31Z</time>
      </trkpt>
      <trkpt lat="46.7823" lon="4.7487">
        <ele>194.429734</ele>
        <time>2011-01-29T13:34:34Z</time>
      </trkpt>
      <trkpt lat="46.78241" lon="4.74874">
        <ele>194.496166</ele>
        <time>2011-01-29T13:34:37Z</time>
      </trkpt>
      <trkpt lat="46.78252" lon="4.7488">
        <ele>194.701033</ele>
        <time>2011-01-29T13:34:40Z</time>
      </trkpt>
      <trkpt lat="46.78264" lon="4.74887">
        <ele>195.039952</ele>
        <time>2011-01-29T13:34:43Z</time>
      </trkpt>
      <trkpt lat="46.78273" lon="4.74893">
        <ele>195.446933</ele>
        <time>2011-01-29T13:34:46Z</time>
      </trkpt>
      <trkpt lat="46.78273" lon="4.74893">
        <ele>195.818598</ele>
        <time>2011-01-29T13:34:50Z</time>
      </trkpt>
      <trkpt lat="46.78273" lon="4.74893">
        <ele>196.039231</ele>
        <time>2011-01-29T13:35:16Z</time>
      </trkpt>
      <trkpt lat="46.78283" lon="4.74878">
        <ele>196.170734</ele>
        <time>2011-01-29T13:35:37Z</time>
      </trkpt>
      <trkpt lat="46.7827" lon="4.74871">
        <ele>196.420996</ele>
        <time>2011-01-29T13:35:40Z</time>
      </trkpt>
      <trkpt lat="46.78261" lon="4.74867">
        <ele>196.873087</ele>
        <time>2011-01-29T13:35:42Z</time>
      </trkpt>
      <trkpt lat="46.78248" lon="4.74862">
        <ele>197.830175</ele>
        <time>2011-01-29T13:35:45Z</time>
      </trkpt>
      <trkpt lat="46.78236" lon="4.74857">
        <ele>199.728685</ele>
        <time>2011-01-29T13:35:48Z</time>
      </trkpt>
      <trkpt lat="46.78224" lon="4.74853">
        <ele>202.159218</ele>
        <time>2011-01-29T13:35:51Z</time>
      </trkpt>
      <trkpt lat="46.78224" lon="4.74853">
        <ele>204.043832</ele>
        <time>2011-01-29T13:35:54Z</time>
      </trkpt>
      <trkpt lat="46.78224" lon="4.74853">
        <ele>204.889158</ele>
        <time>2011-01-29T13:36:24Z</time>
      </trkpt>
      <trkpt lat="46.78551" lon="4.71144">
        <ele>393.823805</ele>
        <time>2011-01-29T14:21:24Z</time>
      </trkpt>
      <trkpt lat="46.78551" lon="4.71144">
        <ele>393.710942</ele>
        <time>2011-01-29T14:21:53Z</time>
      </trkpt>
      <trkpt lat="46.78572" lon="4.71117">
        <ele>393.626072</ele>
        <time>2011-01-29T14:24:08Z</time>
      </trkpt>
      <trkpt lat="46.78579" lon="4.71106">
        <ele>393.594411</ele>
        <time>2011-01-29T14:24:13Z</time>
      </trkpt>
      <trkpt lat="46.78586" lon="4.71097">
        <ele>393.594783</ele>
        <time>2011-01-29T14:24:17Z</time>
      </trkpt>
      <trkpt lat="46.78593" lon="4.71088">
        <ele>395.327429</ele>
        <time>2011-01-29T14:24:21Z</time>
      </trkpt>
      <trkpt lat="46.786" lon="4.71077">
        <ele>400.00349</ele>
        <time>2011-01-29T14:24:26Z</time>
      </trkpt>
      <trkpt lat="46.78607" lon="4.71068">
        <ele>405.221589</ele>
        <time>2011-01-29T14:24:31Z</time>
      </trkpt>
      <trkpt lat="46.78615" lon="4.7106">
        <ele>408.365324</ele>
        <time>2011-01-29T14:24:37Z</time>
      </trkpt>
      <trkpt lat="46.78622" lon="4.7105">
        <ele>409.706853</ele>
        <time>2011-01-29T14:24:42Z</time>
      </trkpt>
      <trkpt lat="46.78629" lon="4.71041">
        <ele>410.224886</ele>
        <time>2011-01-29T14:24:50Z</time>
      </trkpt>
      <trkpt lat="46.78635" lon="4.71031">
        <ele>410.564285</ele>
        <time>2011-01-29T14:24:56Z</time>
      </trkpt>
      <trkpt lat="46.78642" lon="4.71022">
        <ele>410.889578</ele>
        <time>2011-01-29T14:25:02Z</time>
      </trkpt>
      <trkpt lat="46.7865" lon="4.71011">
        <ele>411.130785</ele>
        <time>2011-01-29T14:25:08Z</time>
      </trkpt>
      <trkpt lat="46.78657" lon="4.71">
        <ele>411.253771</ele>
        <time>2011-01-29T14:25:13Z</time>
      </trkpt>
      <trkpt lat="46.78664" lon="4.70987">
        <ele>411.304815</ele>
        <time>2011-01-29T14:25:18Z</time>
      </trkpt>
      <trkpt lat="46.78669" lon="4.70975">
        <ele>411.335999</ele>
        <time>2011-01-29T14:25:22Z</time>
      </trkpt>
      <trkpt lat="46.78675" lon="4.70962">
        <ele>411.391318</ele>
        <time>2011-01-29T14:25:26Z</time>
      </trkpt>
      <trkpt lat="46.78679" lon="4.70949">
        <ele>411.498145</ele>
        <time>2011-01-29T14:25:30Z</time>
      </trkpt>
      <trkpt lat="46.7868" lon="4.70932">
        <ele>411.637898</ele>
        <time>2011-01-29T14:25:41Z</time>
      </trkpt>
      <trkpt lat="46.78683" lon="4.70919">
        <ele>411.757527</ele>
        <time>2011-01-29T14:25:48Z</time>
      </trkpt>
      <trkpt lat="46.78688" lon="4.70907">
        <ele>411.839961</ele>
        <time>2011-01-29T14:25:53Z</time>
      </trkpt>
      <trkpt lat="46.78693" lon="4.70897">
        <ele>411.934041</ele>
        <time>2011-01-29T14:25:57Z</time>
      </trkpt>
      <trkpt lat="46.787" lon="4.70884">
        <ele>412.104795</ele>
        <time>2011-01-29T14:26:01Z</time>
      </trkpt>
      <trkpt lat="46.78706" lon="4.70871">
        <ele>412.388052</ele>
        <time>2011-01-29T14:26:04Z</time>
      </trkpt>
      <trkpt lat="46.78715" lon="4.7085">
        <ele>412.756646</ele>
        <time>2011-01-29T14:26:07Z</time>
      </trkpt>
      <trkpt lat="46.78723" lon="4.70832">
        <ele>413.146048</ele>
        <time>2011-01-29T14:26:10Z</time>
      </trkpt>
      <trkpt lat="46.7873" lon="4.70816">
        <ele>413.504408</ele>
        <time>2011-01-29T14:26:13Z</time>
      </trkpt>
      <trkpt lat="46.78736" lon="4.70804">
        <ele>414.051954</ele>
        <time>2011-01-29T14:26:15Z</time>
      </trkpt>
      <trkpt lat="46.78742" lon="4.70791">
        <ele>415.091703</ele>
        <time>2011-01-29T14:26:18Z</time>
      </trkpt>
      <trkpt lat="46.78747" lon="4.70778">
        <ele>416.412402</ele>
        <time>2011-01-29T14:26:21Z</time>
      </trkpt>
      <trkpt lat="46.78752" lon="4.70767">
        <ele>417.454446</ele>
        <time>2011-01-29T14:26:24Z</time>
      </trkpt>
      <trkpt lat="46.78752" lon="4.70767">
        <ele>417.967584</ele>
        <time>2011-01-29T14:26:27Z</time>
      </trkpt>
      <trkpt lat="46.78766" lon="4.70742">
        <ele>418.09407</ele>
        <time>2011-01-29T14:26:35Z</time>
      </trkpt>
      <trkpt lat="46.78777" lon="4.70733">
        <ele>418.09506</ele>
        <time>2011-01-29T14:26:39Z</time>
      </trkpt>
      <trkpt lat="46.78785" lon="4.70721">
        <ele>418.099204</ele>
        <time>2011-01-29T14:26:42Z</time>
      </trkpt>
      <trkpt lat="46.78792" lon="4.70707">
        <ele>418.152456</ele>
        <time>2011-01-29T14:26:45Z</time>
      </trkpt>
      <trkpt lat="46.78799" lon="4.70699">
        <ele>418.343069</ele>
        <time>2011-01-29T14:26:48Z</time>
      </trkpt>
      <trkpt lat="46.78799" lon="4.70699">
        <ele>418.65241</ele>
        <time>2011-01-29T14:26:49Z</time>
      </trkpt>
      <trkpt lat="46.78799" lon="4.70699">
        <ele>418.907195</ele>
        <time>2011-01-29T14:27:23Z</time>
      </trkpt>
      <trkpt lat="46.78821" lon="4.70675">
        <ele>419.055388</ele>
        <time>2011-01-29T14:28:38Z</time>
      </trkpt>
      <trkpt lat="46.78829" lon="4.70666">
        <ele>419.225913</ele>
        <time>2011-01-29T14:28:42Z</time>
      </trkpt>
      <trkpt lat="46.78829" lon="4.70666">
        <ele>419.447062</ele>
        <time>2011-01-29T14:28:47Z</time>
      </trkpt>
      <trkpt lat="46.78856" lon="4.70649">
        <ele>419.663733</ele>
        <time>2011-01-29T14:29:00Z</time>
      </trkpt>
      <trkpt lat="46.78865" lon="4.7064">
        <ele>420.047246</ele>
        <time>2011-01-29T14:29:04Z</time>
      </trkpt>
      <trkpt lat="46.78874" lon="4.70632">
        <ele>420.707085</ele>
        <time>2011-01-29T14:29:08Z</time>
      </trkpt>
      <trkpt lat="46.78883" lon="4.70628">
        <ele>421.481533</ele>
        <time>2011-01-29T14:29:12Z</time>
      </trkpt>
      <trkpt lat="46.78894" lon="4.70623">
        <ele>422.175094</ele>
        <time>2011-01-29T14:29:16Z</time>
      </trkpt>
      <trkpt lat="46.78904" lon="4.70621">
        <ele>422.630519</ele>
        <time>2011-01-29T14:29:22Z</time>
      </trkpt>
      <trkpt lat="46.78904" lon="4.70621">
        <ele>422.782326</ele>
        <time>2011-01-29T14:29:24Z</time>
      </trkpt>
      <trkpt lat="46.78918" lon="4.70615">
        <ele>422.766718</ele>
        <time>2011-01-29T14:29:34Z</time>
      </trkpt>
      <trkpt lat="46.78929" lon="4.70612">
        <ele>422.7048</ele>
        <time>2011-01-29T14:29:38Z</time>
      </trkpt>
      <trkpt lat="46.7894" lon="4.70612">
        <ele>422.623024</ele>
        <time>2011-01-29T14:29:41Z</time>
      </trkpt>
      <trkpt lat="46.78952" lon="4.70614">
        <ele>422.497429</ele>
        <time>2011-01-29T14:29:44Z</time>
      </trkpt>
      <trkpt lat="46.78962" lon="4.70615">
        <ele>422.338805</ele>
        <time>2011-01-29T14:29:47Z</time>
      </trkpt>
      <trkpt lat="46.78972" lon="4.70617">
        <ele>422.120623</ele>
        <time>2011-01-29T14:29:50Z</time>
      </trkpt>
      <trkpt lat="46.78981" lon="4.70621">
        <ele>421.799832</ele>
        <time>2011-01-29T14:29:53Z</time>
      </trkpt>
      <trkpt lat="46.78991" lon="4.70624">
        <ele>421.472025</ele>
        <time>2011-01-29T14:29:56Z</time>
      </trkpt>
      <trkpt lat="46.79001" lon="4.70627">
        <ele>421.270119</ele>
        <time>2011-01-29T14:29:59Z</time>
      </trkpt>
      <trkpt lat="46.7901" lon="4.7063">
        <ele>421.188676</ele>
        <time>2011-01-29T14:30:02Z</time>
      </trkpt>
      <trkpt lat="46.79019" lon="4.70631">
        <ele>421.158577</ele>
        <time>2011-01-29T14:30:05Z</time>
      </trkpt>
      <trkpt lat="46.79033" lon="4.70634">
        <ele>421.132096</ele>
        <time>2011-01-29T14:30:08Z</time>
      </trkpt>
      <trkpt lat="46.79042" lon="4.70638">
        <ele>421.094044</ele>
        <time>2011-01-29T14:30:10Z</time>
      </trkpt>
      <trkpt lat="46.79051" lon="4.70641">
        <ele>421.046701</ele>
        <time>2011-01-29T14:30:12Z</time>
      </trkpt>
      <trkpt lat="46.79063" lon="4.70646">
        <ele>420.895216</ele>
        <time>2011-01-29T14:30:15Z</time>
      </trkpt>
      <trkpt lat="46.79073" lon="4.7065">
        <ele>420.523154</ele>
        <time>2011-01-29T14:30:18Z</time>
      </trkpt>
      <trkpt lat="46.79084" lon="4.70654">
        <ele>419.986018</ele>
        <time>2011-01-29T14:30:22Z</time>
      </trkpt>
      <trkpt lat="46.79094" lon="4.70655">
        <ele>419.359663</ele>
        <time>2011-01-29T14:30:25Z</time>
      </trkpt>
      <trkpt lat="46.79107" lon="4.70656">
        <ele>418.672823</ele>
        <time>2011-01-29T14:30:28Z</time>
      </trkpt>
      <trkpt lat="46.79118" lon="4.70658">
        <ele>418.075404</ele>
        <time>2011-01-29T14:30:31Z</time>
      </trkpt>
      <trkpt lat="46.79129" lon="4.70664">
        <ele>417.602149</ele>
        <time>2011-01-29T14:30:34Z</time>
      </trkpt>
      <trkpt lat="46.79143" lon="4.70675">
        <ele>416.93185</ele>
        <time>2011-01-29T14:30:37Z</time>
      </trkpt>
      <trkpt lat="46.79157" lon="4.70686">
        <ele>415.886998</ele>
        <time>2011-01-29T14:30:40Z</time>
      </trkpt>
      <trkpt lat="46.79157" lon="4.70686">
        <ele>414.847121</ele>
        <time>2011-01-29T14:30:43Z</time>
      </trkpt>
      <trkpt lat="46.79157" lon="4.70686">
        <ele>414.253573</ele>
        <time>2011-01-29T14:31:12Z</time>
      </trkpt>
      <trkpt lat="46.79181" lon="4.70703">
        <ele>413.986892</ele>
        <time>2011-01-29T14:34:36Z</time>
      </trkpt>
      <trkpt lat="46.79191" lon="4.70706">
        <ele>413.494693</ele>
        <time>2011-01-29T14:34:39Z</time>
      </trkpt>
      <trkpt lat="46.79202" lon="4.70708">
        <ele>412.376548</ele>
        <time>2011-01-29T14:34:42Z</time>
      </trkpt>
      <trkpt lat="46.7921" lon="4.70713">
        <ele>410.390786</ele>
        <time>2011-01-29T14:34:45Z</time>
      </trkpt>
      <trkpt lat="46.79221" lon="4.7072">
        <ele>407.890653</ele>
        <time>2011-01-29T14:34:48Z</time>
      </trkpt>
      <trkpt lat="46.79235" lon="4.70727">
        <ele>405.959818</ele>
        <time>2011-01-29T14:34:51Z</time>
      </trkpt>
      <trkpt lat="46.79249" lon="4.70733">
        <ele>405.153197</ele>
        <time>2011-01-29T14:34:54Z</time>
      </trkpt>
      <trkpt lat="46.79264" lon="4.70741">
        <ele>404.914636</ele>
        <time>2011-01-29T14:34:57Z</time>
      </trkpt>
      <trkpt lat="46.79279" lon="4.70751">
        <ele>404.553135</ele>
        <time>2011-01-29T14:35:00Z</time>
      </trkpt>
      <trkpt lat="46.79289" lon="4.70759">
        <ele>403.765326</ele>
        <time>2011-01-29T14:35:02Z</time>
      </trkpt>
      <trkpt lat="46.793" lon="4.70768">
        <ele>402.658898</ele>
        <time>2011-01-29T14:35:04Z</time>
      </trkpt>
      <trkpt lat="46.79311" lon="4.70776">
        <ele>401.501666</ele>
        <time>2011-01-29T14:35:06Z</time>
      </trkpt>
      <trkpt lat="46.79322" lon="4.70782">
        <ele>400.552566</ele>
        <time>2011-01-29T14:35:08Z</time>
      </trkpt>
      <trkpt lat="46.79338" lon="4.70789">
        <ele>399.933715</ele>
        <time>2011-01-29T14:35:11Z</time>
      </trkpt>
      <trkpt lat="46.79348" lon="4.70793">
        <ele>399.567243</ele>
        <time>2011-01-29T14:35:13Z</time>
      </trkpt>
      <trkpt lat="46.79364" lon="4.70798">
        <ele>399.295861</ele>
        <time>2011-01-29T14:35:16Z</time>
      </trkpt>
      <trkpt lat="46.79381" lon="4.70805">
        <ele>399.048117</ele>
        <time>2011-01-29T14:35:19Z</time>
      </trkpt>
      <trkpt lat="46.79391" lon="4.70809">
        <ele>398.821026</ele>
        <time>2011-01-29T14:35:21Z</time>
      </trkpt>
      <trkpt lat="46.79403" lon="4.70816">
        <ele>398.553881</ele>
        <time>2011-01-29T14:35:24Z</time>
      </trkpt>
      <trkpt lat="46.79417" lon="4.70824">
        <ele>398.156278</ele>
        <time>2011-01-29T14:35:27Z</time>
      </trkpt>
      <trkpt lat="46.79427" lon="4.70831">
        <ele>397.66415</ele>
        <time>2011-01-29T14:35:29Z</time>
      </trkpt>
      <trkpt lat="46.7944" lon="4.70839">
        <ele>397.091101</ele>
        <time>2011-01-29T14:35:32Z</time>
      </trkpt>
      <trkpt lat="46.7945" lon="4.70842">
        <ele>396.250948</ele>
        <time>2011-01-29T14:35:36Z</time>
      </trkpt>
      <trkpt lat="46.79462" lon="4.70845">
        <ele>395.127578</ele>
        <time>2011-01-29T14:35:39Z</time>
      </trkpt>
      <trkpt lat="46.79472" lon="4.70848">
        <ele>394.029057</ele>
        <time>2011-01-29T14:35:41Z</time>
      </trkpt>
      <trkpt lat="46.79483" lon="4.7085">
        <ele>393.221369</ele>
        <time>2011-01-29T14:35:44Z</time>
      </trkpt>
      <trkpt lat="46.79495" lon="4.70853">
        <ele>392.53818</ele>
        <time>2011-01-29T14:35:47Z</time>
      </trkpt>
      <trkpt lat="46.79503" lon="4.70856">
        <ele>391.644765</ele>
        <time>2011-01-29T14:35:49Z</time>
      </trkpt>
      <trkpt lat="46.79518" lon="4.70862">
        <ele>390.623581</ele>
        <time>2011-01-29T14:35:52Z</time>
      </trkpt>
      <trkpt lat="46.79527" lon="4.70866">
        <ele>389.727751</ele>
        <time>2011-01-29T14:35:54Z</time>
      </trkpt>
      <trkpt lat="46.7954" lon="4.70874">
        <ele>388.944583</ele>
        <time>2011-01-29T14:35:57Z</time>
      </trkpt>
      <trkpt lat="46.79549" lon="4.70883">
        <ele>388.181546</ele>
        <time>2011-01-29T14:36:00Z</time>
      </trkpt>
      <trkpt lat="46.79558" lon="4.70892">
        <ele>387.426959</ele>
        <time>2011-01-29T14:36:03Z</time>
      </trkpt>
      <trkpt lat="46.79567" lon="4.70899">
        <ele>386.720043</ele>
        <time>2011-01-29T14:36:07Z</time>
      </trkpt>
      <trkpt lat="46.79567" lon="4.70899">
        <ele>386.160789</ele>
        <time>2011-01-29T14:36:08Z</time>
      </trkpt>
      <trkpt lat="46.79582" lon="4.70913">
        <ele>385.790023</ele>
        <time>2011-01-29T14:36:22Z</time>
      </trkpt>
      <trkpt lat="46.79592" lon="4.70908">
        <ele>385.544619</ele>
        <time>2011-01-29T14:36:26Z</time>
      </trkpt>
      <trkpt lat="46.79603" lon="4.70912">
        <ele>385.312593</ele>
        <time>2011-01-29T14:36:30Z</time>
      </trkpt>
      <trkpt lat="46.79603" lon="4.70912">
        <ele>385.077151</ele>
        <time>2011-01-29T14:36:32Z</time>
      </trkpt>
      <trkpt lat="46.79618" lon="4.709">
        <ele>384.498558</ele>
        <time>2011-01-29T14:36:38Z</time>
      </trkpt>
      <trkpt lat="46.79628" lon="4.70893">
        <ele>383.282129</ele>
        <time>2011-01-29T14:36:42Z</time>
      </trkpt>
      <trkpt lat="46.79637" lon="4.70887">
        <ele>381.85987</ele>
        <time>2011-01-29T14:36:45Z</time>
      </trkpt>
      <trkpt lat="46.79648" lon="4.70883">
        <ele>380.693514</ele>
        <time>2011-01-29T14:36:48Z</time>
      </trkpt>
      <trkpt lat="46.7966" lon="4.70878">
        <ele>379.706376</ele>
        <time>2011-01-29T14:36:51Z</time>
      </trkpt>
      <trkpt lat="46.79672" lon="4.70873">
        <ele>378.879997</ele>
        <time>2011-01-29T14:36:54Z</time>
      </trkpt>
      <trkpt lat="46.79686" lon="4.70869">
        <ele>377.891143</ele>
        <time>2011-01-29T14:36:57Z</time>
      </trkpt>
      <trkpt lat="46.79702" lon="4.70865">
        <ele>376.168753</ele>
        <time>2011-01-29T14:37:00Z</time>
      </trkpt>
      <trkpt lat="46.79712" lon="4.70867">
        <ele>373.8779</ele>
        <time>2011-01-29T14:37:02Z</time>
      </trkpt>
      <trkpt lat="46.79726" lon="4.70871">
        <ele>371.75073</ele>
        <time>2011-01-29T14:37:05Z</time>
      </trkpt>
      <trkpt lat="46.79737" lon="4.70874">
        <ele>370.123115</ele>
        <time>2011-01-29T14:37:07Z</time>
      </trkpt>
      <trkpt lat="46.79755" lon="4.7088">
        <ele>368.884082</ele>
        <time>2011-01-29T14:37:10Z</time>
      </trkpt>
      <trkpt lat="46.79772" lon="4.70888">
        <ele>367.776019</ele>
        <time>2011-01-29T14:37:13Z</time>
      </trkpt>
      <trkpt lat="46.79786" lon="4.70895">
        <ele>366.689853</ele>
        <time>2011-01-29T14:37:16Z</time>
      </trkpt>
      <trkpt lat="46.798" lon="4.709">
        <ele>365.710422</ele>
        <time>2011-01-29T14:37:19Z</time>
      </trkpt>
      <trkpt lat="46.7981" lon="4.70902">
        <ele>364.852496</ele>
        <time>2011-01-29T14:37:21Z</time>
      </trkpt>
      <trkpt lat="46.79826" lon="4.70914">
        <ele>364.014269</ele>
        <time>2011-01-29T14:37:24Z</time>
      </trkpt>
      <trkpt lat="46.79837" lon="4.70926">
        <ele>363.142056</ele>
        <time>2011-01-29T14:37:26Z</time>
      </trkpt>
      <trkpt lat="46.79848" lon="4.70937">
        <ele>362.193012</ele>
        <time>2011-01-29T14:37:28Z</time>
      </trkpt>
      <trkpt lat="46.79859" lon="4.70947">
        <ele>360.980318</ele>
        <time>2011-01-29T14:37:30Z</time>
      </trkpt>
      <trkpt lat="46.7988" lon="4.70959">
        <ele>359.404591</ele>
        <time>2011-01-29T14:37:33Z</time>
      </trkpt>
      <trkpt lat="46.79904" lon="4.70965">
        <ele>357.72975</ele>
        <time>2011-01-29T14:37:36Z</time>
      </trkpt>
      <trkpt lat="46.7992" lon="4.70968">
        <ele>356.273277</ele>
        <time>2011-01-29T14:37:38Z</time>
      </trkpt>
      <trkpt lat="46.79941" lon="4.70975">
        <ele>354.98988</ele>
        <time>2011-01-29T14:37:41Z</time>
      </trkpt>
      <trkpt lat="46.79956" lon="4.70978">
        <ele>353.724195</ele>
        <time>2011-01-29T14:37:43Z</time>
      </trkpt>
      <trkpt lat="46.79976" lon="4.70981">
        <ele>352.462229</ele>
        <time>2011-01-29T14:37:46Z</time>
      </trkpt>
      <trkpt lat="46.79995" lon="4.70981">
        <ele>351.184239</ele>
        <time>2011-01-29T14:37:49Z</time>
      </trkpt>
      <trkpt lat="46.80007" lon="4.7098">
        <ele>349.829506</ele>
        <time>2011-01-29T14:37:51Z</time>
      </trkpt>
      <trkpt lat="46.8002" lon="4.70978">
        <ele>348.229527</ele>
        <time>2011-01-29T14:37:54Z</time>
      </trkpt>
      <trkpt lat="46.80031" lon="4.7098">
        <ele>346.116774</ele>
        <time>2011-01-29T14:37:56Z</time>
      </trkpt>
      <trkpt lat="46.80044" lon="4.70983">
        <ele>343.680683</ele>
        <time>2011-01-29T14:37:58Z</time>
      </trkpt>
      <trkpt lat="46.80067" lon="4.70988">
        <ele>341.442626</ele>
        <time>2011-01-29T14:38:01Z</time>
      </trkpt>
      <trkpt lat="46.80082" lon="4.70991">
        <ele>339.543401</ele>
        <time>2011-01-29T14:38:03Z</time>
      </trkpt>
      <trkpt lat="46.80108" lon="4.70998">
        <ele>337.874433</ele>
        <time>2011-01-29T14:38:06Z</time>
      </trkpt>
      <trkpt lat="46.80136" lon="4.71009">
        <ele>336.394503</ele>
        <time>2011-01-29T14:38:09Z</time>
      </trkpt>
      <trkpt lat="46.80164" lon="4.71024">
        <ele>335.106243</ele>
        <time>2011-01-29T14:38:12Z</time>
      </trkpt>
      <trkpt lat="46.80191" lon="4.7104">
        <ele>333.927899</ele>
        <time>2011-01-29T14:38:15Z</time>
      </trkpt>
      <trkpt lat="46.80207" lon="4.71047">
        <ele>332.702592</ele>
        <time>2011-01-29T14:38:17Z</time>
      </trkpt>
      <trkpt lat="46.80223" lon="4.71052">
        <ele>331.328611</ele>
        <time>2011-01-29T14:38:19Z</time>
      </trkpt>
      <trkpt lat="46.8024" lon="4.71058">
        <ele>329.910764</ele>
        <time>2011-01-29T14:38:21Z</time>
      </trkpt>
      <trkpt lat="46.80269" lon="4.71068">
        <ele>328.730718</ele>
        <time>2011-01-29T14:38:24Z</time>
      </trkpt>
      <trkpt lat="46.80289" lon="4.71076">
        <ele>327.972442</ele>
        <time>2011-01-29T14:38:26Z</time>
      </trkpt>
      <trkpt lat="46.80306" lon="4.71085">
        <ele>327.451052</ele>
        <time>2011-01-29T14:38:28Z</time>
      </trkpt>
      <trkpt lat="46.80323" lon="4.7109">
        <ele>326.857366</ele>
        <time>2011-01-29T14:38:31Z</time>
      </trkpt>
      <trkpt lat="46.80332" lon="4.7109">
        <ele>326.084452</ele>
        <time>2011-01-29T14:38:34Z</time>
      </trkpt>
      <trkpt lat="46.80332" lon="4.7109">
        <ele>325.332013</ele>
        <time>2011-01-29T14:38:35Z</time>
      </trkpt>
      <trkpt lat="46.80325" lon="4.71067">
        <ele>324.593135</ele>
        <time>2011-01-29T14:38:58Z</time>
      </trkpt>
      <trkpt lat="46.80319" lon="4.71056">
        <ele>323.416304</ele>
        <time>2011-01-29T14:39:00Z</time>
      </trkpt>
      <trkpt lat="46.80308" lon="4.71033">
        <ele>321.724394</ele>
        <time>2011-01-29T14:39:03Z</time>
      </trkpt>
      <trkpt lat="46.803" lon="4.71017">
        <ele>319.781541</ele>
        <time>2011-01-29T14:39:05Z</time>
      </trkpt>
      <trkpt lat="46.80296" lon="4.70998">
        <ele>317.222838</ele>
        <time>2011-01-29T14:39:08Z</time>
      </trkpt>
      <trkpt lat="46.80307" lon="4.70991">
        <ele>313.000738</ele>
        <time>2011-01-29T14:39:12Z</time>
      </trkpt>
      <trkpt lat="46.80321" lon="4.70992">
        <ele>307.197255</ele>
        <time>2011-01-29T14:39:15Z</time>
      </trkpt>
      <trkpt lat="46.80335" lon="4.70994">
        <ele>301.651651</ele>
        <time>2011-01-29T14:39:17Z</time>
      </trkpt>
      <trkpt lat="46.80355" lon="4.70998">
        <ele>297.999876</ele>
        <time>2011-01-29T14:39:20Z</time>
      </trkpt>
      <trkpt lat="46.80373" lon="4.71006">
        <ele>295.882049</ele>
        <time>2011-01-29T14:39:23Z</time>
      </trkpt>
      <trkpt lat="46.80394" lon="4.71011">
        <ele>294.008916</ele>
        <time>2011-01-29T14:39:26Z</time>
      </trkpt>
      <trkpt lat="46.80413" lon="4.71016">
        <ele>291.658977</ele>
        <time>2011-01-29T14:39:29Z</time>
      </trkpt>
      <trkpt lat="46.80425" lon="4.71018">
        <ele>288.943514</ele>
        <time>2011-01-29T14:39:31Z</time>
      </trkpt>
      <trkpt lat="46.80442" lon="4.7102">
        <ele>286.037139</ele>
        <time>2011-01-29T14:39:34Z</time>
      </trkpt>
      <trkpt lat="46.80453" lon="4.71019">
        <ele>282.998</ele>
        <time>2011-01-29T14:39:37Z</time>
      </trkpt>
      <trkpt lat="46.80463" lon="4.71018">
        <ele>280.018407</ele>
        <time>2011-01-29T14:39:40Z</time>
      </trkpt>
      <trkpt lat="46.80471" lon="4.71012">
        <ele>277.396725</ele>
        <time>2011-01-29T14:39:42Z</time>
      </trkpt>
      <trkpt lat="46.80477" lon="4.71001">
        <ele>275.117066</ele>
        <time>2011-01-29T14:39:44Z</time>
      </trkpt>
      <trkpt lat="46.80482" lon="4.70987">
        <ele>272.960766</ele>
        <time>2011-01-29T14:39:46Z</time>
      </trkpt>
      <trkpt lat="46.80486" lon="4.7097">
        <ele>270.817157</ele>
        <time>2011-01-29T14:39:48Z</time>
      </trkpt>
      <trkpt lat="46.80488" lon="4.70954">
        <ele>268.608923</ele>
        <time>2011-01-29T14:39:50Z</time>
      </trkpt>
      <trkpt lat="46.80485" lon="4.70931">
        <ele>266.35618</ele>
        <time>2011-01-29T14:39:52Z</time>
      </trkpt>
      <trkpt lat="46.80478" lon="4.70895">
        <ele>264.202254</ele>
        <time>2011-01-29T14:39:55Z</time>
      </trkpt>
      <trkpt lat="46.80467" lon="4.70863">
        <ele>262.271516</ele>
        <time>2011-01-29T14:39:58Z</time>
      </trkpt>
      <trkpt lat="46.80462" lon="4.70849">
        <ele>260.586113</ele>
        <time>2011-01-29T14:40:00Z</time>
      </trkpt>
      <trkpt lat="46.80464" lon="4.70836">
        <ele>258.84992</ele>
        <time>2011-01-29T14:40:03Z</time>
      </trkpt>
      <trkpt lat="46.80475" lon="4.70837">
        <ele>256.564615</ele>
        <time>2011-01-29T14:40:07Z</time>
      </trkpt>
      <trkpt lat="46.80487" lon="4.70848">
        <ele>253.90692</ele>
        <time>2011-01-29T14:40:10Z</time>
      </trkpt>
      <trkpt lat="46.80494" lon="4.70856">
        <ele>251.744691</ele>
        <time>2011-01-29T14:40:12Z</time>
      </trkpt>
      <trkpt lat="46.80507" lon="4.70868">
        <ele>250.428046</ele>
        <time>2011-01-29T14:40:15Z</time>
      </trkpt>
      <trkpt lat="46.80516" lon="4.70876">
        <ele>249.185527</ele>
        <time>2011-01-29T14:40:17Z</time>
      </trkpt>
      <trkpt lat="46.80526" lon="4.70883">
        <ele>247.274795</ele>
        <time>2011-01-29T14:40:19Z</time>
      </trkpt>
      <trkpt lat="46.80536" lon="4.70892">
        <ele>244.824021</ele>
        <time>2011-01-29T14:40:21Z</time>
      </trkpt>
      <trkpt lat="46.80546" lon="4.709">
        <ele>242.362922</ele>
        <time>2011-01-29T14:40:23Z</time>
      </trkpt>
      <trkpt lat="46.8056" lon="4.70911">
        <ele>240.371426</ele>
        <time>2011-01-29T14:40:26Z</time>
      </trkpt>
      <trkpt lat="46.8057" lon="4.70919">
        <ele>239.100081</ele>
        <time>2011-01-29T14:40:28Z</time>
      </trkpt>
      <trkpt lat="46.80585" lon="4.70934">
        <ele>238.392954</ele>
        <time>2011-01-29T14:40:31Z</time>
      </trkpt>
      <trkpt lat="46.80594" lon="4.70946">
        <ele>237.912561</ele>
        <time>2011-01-29T14:40:33Z</time>
      </trkpt>
      <trkpt lat="46.80608" lon="4.70967">
        <ele>237.382538</ele>
        <time>2011-01-29T14:40:36Z</time>
      </trkpt>
      <trkpt lat="46.80616" lon="4.70982">
        <ele>236.684006</ele>
        <time>2011-01-29T14:40:38Z</time>
      </trkpt>
      <trkpt lat="46.80627" lon="4.71004">
        <ele>235.840542</ele>
        <time>2011-01-29T14:40:41Z</time>
      </trkpt>
      <trkpt lat="46.80635" lon="4.71019">
        <ele>234.976165</ele>
        <time>2011-01-29T14:40:43Z</time>
      </trkpt>
      <trkpt lat="46.80652" lon="4.7104">
        <ele>234.227346</ele>
        <time>2011-01-29T14:40:46Z</time>
      </trkpt>
      <trkpt lat="46.80669" lon="4.7106">
        <ele>233.58573</ele>
        <time>2011-01-29T14:40:49Z</time>
      </trkpt>
      <trkpt lat="46.80681" lon="4.71073">
        <ele>232.925107</ele>
        <time>2011-01-29T14:40:51Z</time>
      </trkpt>
      <trkpt lat="46.80693" lon="4.71086">
        <ele>232.17372</ele>
        <time>2011-01-29T14:40:53Z</time>
      </trkpt>
      <trkpt lat="46.80704" lon="4.71098">
        <ele>231.397288</ele>
        <time>2011-01-29T14:40:55Z</time>
      </trkpt>
      <trkpt lat="46.80719" lon="4.71112">
        <ele>230.698144</ele>
        <time>2011-01-29T14:40:58Z</time>
      </trkpt>
      <trkpt lat="46.80729" lon="4.71121">
        <ele>230.137032</ele>
        <time>2011-01-29T14:41:00Z</time>
      </trkpt>
      <trkpt lat="46.80739" lon="4.71129">
        <ele>229.654728</ele>
        <time>2011-01-29T14:41:02Z</time>
      </trkpt>
      <trkpt lat="46.80753" lon="4.71139">
        <ele>229.083178</ele>
        <time>2011-01-29T14:41:05Z</time>
      </trkpt>
      <trkpt lat="46.80762" lon="4.71145">
        <ele>228.29776</ele>
        <time>2011-01-29T14:41:07Z</time>
      </trkpt>
      <trkpt lat="46.80777" lon="4.71155">
        <ele>227.345301</ele>
        <time>2011-01-29T14:41:10Z</time>
      </trkpt>
      <trkpt lat="46.80787" lon="4.71164">
        <ele>226.328334</ele>
        <time>2011-01-29T14:41:12Z</time>
      </trkpt>
      <trkpt lat="46.80801" lon="4.71176">
        <ele>225.350629</ele>
        <time>2011-01-29T14:41:15Z</time>
      </trkpt>
      <trkpt lat="46.80814" lon="4.71188">
        <ele>224.517384</ele>
        <time>2011-01-29T14:41:18Z</time>
      </trkpt>
      <trkpt lat="46.80821" lon="4.71197">
        <ele>223.852083</ele>
        <time>2011-01-29T14:41:20Z</time>
      </trkpt>
      <trkpt lat="46.80833" lon="4.7121">
        <ele>223.322083</ele>
        <time>2011-01-29T14:41:23Z</time>
      </trkpt>
      <trkpt lat="46.80841" lon="4.71218">
        <ele>222.924844</ele>
        <time>2011-01-29T14:41:25Z</time>
      </trkpt>
      <trkpt lat="46.80845" lon="4.71233">
        <ele>222.64998</ele>
        <time>2011-01-29T14:41:28Z</time>
      </trkpt>
      <trkpt lat="46.80845" lon="4.71233">
        <ele>222.476861</ele>
        <time>2011-01-29T14:41:30Z</time>
      </trkpt>
      <trkpt lat="46.80845" lon="4.71233">
        <ele>222.371215</ele>
        <time>2011-01-29T14:42:05Z</time>
      </trkpt>
      <trkpt lat="46.80866" lon="4.7125">
        <ele>222.296766</ele>
        <time>2011-01-29T14:43:30Z</time>
      </trkpt>
      <trkpt lat="46.80877" lon="4.71259">
        <ele>222.234429</ele>
        <time>2011-01-29T14:43:33Z</time>
      </trkpt>
      <trkpt lat="46.80889" lon="4.71273">
        <ele>222.166871</ele>
        <time>2011-01-29T14:43:36Z</time>
      </trkpt>
      <trkpt lat="46.80905" lon="4.7129">
        <ele>221.961224</ele>
        <time>2011-01-29T14:43:39Z</time>
      </trkpt>
      <trkpt lat="46.80923" lon="4.71308">
        <ele>221.407942</ele>
        <time>2011-01-29T14:43:42Z</time>
      </trkpt>
      <trkpt lat="46.80939" lon="4.71327">
        <ele>220.526661</ele>
        <time>2011-01-29T14:43:45Z</time>
      </trkpt>
      <trkpt lat="46.80955" lon="4.71349">
        <ele>219.683936</ele>
        <time>2011-01-29T14:43:48Z</time>
      </trkpt>
      <trkpt lat="46.8097" lon="4.71372">
        <ele>219.208484</ele>
        <time>2011-01-29T14:43:51Z</time>
      </trkpt>
      <trkpt lat="46.80984" lon="4.71397">
        <ele>219.091072</ele>
        <time>2011-01-29T14:43:54Z</time>
      </trkpt>
      <trkpt lat="46.80993" lon="4.71416">
        <ele>219.204264</ele>
        <time>2011-01-29T14:43:56Z</time>
      </trkpt>
      <trkpt lat="46.81003" lon="4.71445">
        <ele>219.445133</ele>
        <time>2011-01-29T14:43:59Z</time>
      </trkpt>
      <trkpt lat="46.81007" lon="4.71464">
        <ele>219.660022</ele>
        <time>2011-01-29T14:44:01Z</time>
      </trkpt>
      <trkpt lat="46.81011" lon="4.71491">
        <ele>219.752982</ele>
        <time>2011-01-29T14:44:04Z</time>
      </trkpt>
      <trkpt lat="46.81013" lon="4.71521">
        <ele>219.731778</ele>
        <time>2011-01-29T14:44:07Z</time>
      </trkpt>
      <trkpt lat="46.81014" lon="4.7154">
        <ele>219.455402</ele>
        <time>2011-01-29T14:44:09Z</time>
      </trkpt>
      <trkpt lat="46.81017" lon="4.7157">
        <ele>218.639255</ele>
        <time>2011-01-29T14:44:12Z</time>
      </trkpt>
      <trkpt lat="46.81019" lon="4.7159">
        <ele>217.295655</ele>
        <time>2011-01-29T14:44:14Z</time>
      </trkpt>
      <trkpt lat="46.81022" lon="4.7161">
        <ele>215.780808</ele>
        <time>2011-01-29T14:44:16Z</time>
      </trkpt>
      <trkpt lat="46.81027" lon="4.71639">
        <ele>214.322135</ele>
        <time>2011-01-29T14:44:19Z</time>
      </trkpt>
      <trkpt lat="46.81033" lon="4.71666">
        <ele>213.056339</ele>
        <time>2011-01-29T14:44:22Z</time>
      </trkpt>
      <trkpt lat="46.81037" lon="4.71684">
        <ele>212.187415</ele>
        <time>2011-01-29T14:44:24Z</time>
      </trkpt>
      <trkpt lat="46.81042" lon="4.71703">
        <ele>211.69958</ele>
        <time>2011-01-29T14:44:26Z</time>
      </trkpt>
      <trkpt lat="46.81046" lon="4.71722">
        <ele>211.331871</ele>
        <time>2011-01-29T14:44:28Z</time>
      </trkpt>
      <trkpt lat="46.81051" lon="4.7175">
        <ele>210.907736</ele>
        <time>2011-01-29T14:44:31Z</time>
      </trkpt>
      <trkpt lat="46.81056" lon="4.71778">
        <ele>210.440327</ele>
        <time>2011-01-29T14:44:34Z</time>
      </trkpt>
      <trkpt lat="46.81058" lon="4.71796">
        <ele>210.009752</ele>
        <time>2011-01-29T14:44:36Z</time>
      </trkpt>
      <trkpt lat="46.81061" lon="4.71823">
        <ele>209.632228</ele>
        <time>2011-01-29T14:44:39Z</time>
      </trkpt>
      <trkpt lat="46.81065" lon="4.71841">
        <ele>209.297939</ele>
        <time>2011-01-29T14:44:41Z</time>
      </trkpt>
      <trkpt lat="46.81069" lon="4.71868">
        <ele>209.028052</ele>
        <time>2011-01-29T14:44:44Z</time>
      </trkpt>
      <trkpt lat="46.81073" lon="4.71895">
        <ele>208.734923</ele>
        <time>2011-01-29T14:44:47Z</time>
      </trkpt>
      <trkpt lat="46.81077" lon="4.71921">
        <ele>208.263264</ele>
        <time>2011-01-29T14:44:50Z</time>
      </trkpt>
      <trkpt lat="46.81079" lon="4.71938">
        <ele>207.629359</ele>
        <time>2011-01-29T14:44:52Z</time>
      </trkpt>
      <trkpt lat="46.81082" lon="4.71964">
        <ele>206.948132</ele>
        <time>2011-01-29T14:44:55Z</time>
      </trkpt>
      <trkpt lat="46.81085" lon="4.71991">
        <ele>206.296082</ele>
        <time>2011-01-29T14:44:58Z</time>
      </trkpt>
      <trkpt lat="46.81086" lon="4.72017">
        <ele>205.773692</ele>
        <time>2011-01-29T14:45:01Z</time>
      </trkpt>
      <trkpt lat="46.81086" lon="4.72035">
        <ele>205.417419</ele>
        <time>2011-01-29T14:45:03Z</time>
      </trkpt>
      <trkpt lat="46.81087" lon="4.72061">
        <ele>205.133665</ele>
        <time>2011-01-29T14:45:06Z</time>
      </trkpt>
      <trkpt lat="46.81088" lon="4.72078">
        <ele>204.834553</ele>
        <time>2011-01-29T14:45:08Z</time>
      </trkpt>
      <trkpt lat="46.81088" lon="4.72095">
        <ele>204.494291</ele>
        <time>2011-01-29T14:45:10Z</time>
      </trkpt>
      <trkpt lat="46.81088" lon="4.7211">
        <ele>204.087635</ele>
        <time>2011-01-29T14:45:12Z</time>
      </trkpt>
      <trkpt lat="46.81088" lon="4.72136">
        <ele>203.628735</ele>
        <time>2011-01-29T14:45:15Z</time>
      </trkpt>
      <trkpt lat="46.81088" lon="4.72161">
        <ele>203.194521</ele>
        <time>2011-01-29T14:45:18Z</time>
      </trkpt>
      <trkpt lat="46.81087" lon="4.72186">
        <ele>202.826695</ele>
        <time>2011-01-29T14:45:21Z</time>
      </trkpt>
      <trkpt lat="46.81085" lon="4.72211">
        <ele>202.472708</ele>
        <time>2011-01-29T14:45:24Z</time>
      </trkpt>
      <trkpt lat="46.81084" lon="4.72227">
        <ele>202.089503</ele>
        <time>2011-01-29T14:45:26Z</time>
      </trkpt>
      <trkpt lat="46.81082" lon="4.72243">
        <ele>201.72039</ele>
        <time>2011-01-29T14:45:28Z</time>
      </trkpt>
      <trkpt lat="46.8108" lon="4.72259">
        <ele>201.413384</ele>
        <time>2011-01-29T14:45:30Z</time>
      </trkpt>
      <trkpt lat="46.81076" lon="4.72281">
        <ele>201.172419</ele>
        <time>2011-01-29T14:45:33Z</time>
      </trkpt>
      <trkpt lat="46.81072" lon="4.72295">
        <ele>200.989365</ele>
        <time>2011-01-29T14:45:35Z</time>
      </trkpt>
      <trkpt lat="46.81066" lon="4.72315">
        <ele>200.8344</ele>
        <time>2011-01-29T14:45:38Z</time>
      </trkpt>
      <trkpt lat="46.81059" lon="4.72337">
        <ele>200.630375</ele>
        <time>2011-01-29T14:45:41Z</time>
      </trkpt>
      <trkpt lat="46.81055" lon="4.72352">
        <ele>200.29861</ele>
        <time>2011-01-29T14:45:43Z</time>
      </trkpt>
      <trkpt lat="46.81049" lon="4.72376">
        <ele>199.68403</ele>
        <time>2011-01-29T14:45:46Z</time>
      </trkpt>
      <trkpt lat="46.81047" lon="4.72391">
        <ele>198.29951</ele>
        <time>2011-01-29T14:45:48Z</time>
      </trkpt>
      <trkpt lat="46.81047" lon="4.72415">
        <ele>196.033017</ele>
        <time>2011-01-29T14:45:51Z</time>
      </trkpt>
      <trkpt lat="46.81048" lon="4.72433">
        <ele>193.687169</ele>
        <time>2011-01-29T14:45:53Z</time>
      </trkpt>
      <trkpt lat="46.8105" lon="4.7246">
        <ele>191.986123</ele>
        <time>2011-01-29T14:45:56Z</time>
      </trkpt>
      <trkpt lat="46.81051" lon="4.72488">
        <ele>191.011468</ele>
        <time>2011-01-29T14:45:59Z</time>
      </trkpt>
      <trkpt lat="46.81052" lon="4.72518">
        <ele>190.645967</ele>
        <time>2011-01-29T14:46:02Z</time>
      </trkpt>
      <trkpt lat="46.81052" lon="4.72541">
        <ele>190.648824</ele>
        <time>2011-01-29T14:46:04Z</time>
      </trkpt>
      <trkpt lat="46.81054" lon="4.72561">
        <ele>190.800582</ele>
        <time>2011-01-29T14:46:06Z</time>
      </trkpt>
      <trkpt lat="46.81056" lon="4.7259">
        <ele>191.133003</ele>
        <time>2011-01-29T14:46:09Z</time>
      </trkpt>
      <trkpt lat="46.81059" lon="4.72619">
        <ele>191.824482</ele>
        <time>2011-01-29T14:46:12Z</time>
      </trkpt>
      <trkpt lat="46.8106" lon="4.72637">
        <ele>192.925486</ele>
        <time>2011-01-29T14:46:14Z</time>
      </trkpt>
      <trkpt lat="46.81061" lon="4.72665">
        <ele>194.409905</ele>
        <time>2011-01-29T14:46:17Z</time>
      </trkpt>
      <trkpt lat="46.81062" lon="4.72693">
        <ele>196.201097</ele>
        <time>2011-01-29T14:46:20Z</time>
      </trkpt>
      <trkpt lat="46.81064" lon="4.7272">
        <ele>197.914402</ele>
        <time>2011-01-29T14:46:23Z</time>
      </trkpt>
      <trkpt lat="46.81064" lon="4.72737">
        <ele>199.054391</ele>
        <time>2011-01-29T14:46:25Z</time>
      </trkpt>
      <trkpt lat="46.81064" lon="4.72754">
        <ele>199.53208</ele>
        <time>2011-01-29T14:46:27Z</time>
      </trkpt>
      <trkpt lat="46.81076" lon="4.72768">
        <ele>199.61471</ele>
        <time>2011-01-29T14:46:29Z</time>
      </trkpt>
      <trkpt lat="46.81088" lon="4.72779">
        <ele>199.574588</ele>
        <time>2011-01-29T14:46:31Z</time>
      </trkpt>
      <trkpt lat="46.81105" lon="4.72795">
        <ele>199.563251</ele>
        <time>2011-01-29T14:46:34Z</time>
      </trkpt>
      <trkpt lat="46.81117" lon="4.72804">
        <ele>199.624358</ele>
        <time>2011-01-29T14:46:36Z</time>
      </trkpt>
      <trkpt lat="46.81128" lon="4.72814">
        <ele>199.711297</ele>
        <time>2011-01-29T14:46:38Z</time>
      </trkpt>
      <trkpt lat="46.81143" lon="4.7283">
        <ele>199.768183</ele>
        <time>2011-01-29T14:46:41Z</time>
      </trkpt>
      <trkpt lat="46.81157" lon="4.7285">
        <ele>199.79528</ele>
        <time>2011-01-29T14:46:44Z</time>
      </trkpt>
      <trkpt lat="46.81165" lon="4.72865">
        <ele>199.868099</ele>
        <time>2011-01-29T14:46:46Z</time>
      </trkpt>
      <trkpt lat="46.81171" lon="4.72881">
        <ele>200.115921</ele>
        <time>2011-01-29T14:46:48Z</time>
      </trkpt>
      <trkpt lat="46.81178" lon="4.72905">
        <ele>200.546337</ele>
        <time>2011-01-29T14:46:51Z</time>
      </trkpt>
      <trkpt lat="46.8118" lon="4.72927">
        <ele>200.990256</ele>
        <time>2011-01-29T14:46:54Z</time>
      </trkpt>
      <trkpt lat="46.81178" lon="4.72941">
        <ele>201.316422</ele>
        <time>2011-01-29T14:46:56Z</time>
      </trkpt>
      <trkpt lat="46.81178" lon="4.72962">
        <ele>201.554167</ele>
        <time>2011-01-29T14:46:59Z</time>
      </trkpt>
      <trkpt lat="46.8118" lon="4.72976">
        <ele>201.783261</ele>
        <time>2011-01-29T14:47:01Z</time>
      </trkpt>
      <trkpt lat="46.81181" lon="4.72997">
        <ele>202.049752</ele>
        <time>2011-01-29T14:47:04Z</time>
      </trkpt>
      <trkpt lat="46.81182" lon="4.73011">
        <ele>202.395513</ele>
        <time>2011-01-29T14:47:06Z</time>
      </trkpt>
      <trkpt lat="46.81183" lon="4.73025">
        <ele>202.821456</ele>
        <time>2011-01-29T14:47:08Z</time>
      </trkpt>
      <trkpt lat="46.81185" lon="4.73046">
        <ele>203.261809</ele>
        <time>2011-01-29T14:47:11Z</time>
      </trkpt>
      <trkpt lat="46.81186" lon="4.73067">
        <ele>203.653391</ele>
        <time>2011-01-29T14:47:14Z</time>
      </trkpt>
      <trkpt lat="46.8119" lon="4.73087">
        <ele>203.968844</ele>
        <time>2011-01-29T14:47:17Z</time>
      </trkpt>
      <trkpt lat="46.81193" lon="4.731">
        <ele>204.221338</ele>
        <time>2011-01-29T14:47:19Z</time>
      </trkpt>
      <trkpt lat="46.81199" lon="4.73119">
        <ele>204.452377</ele>
        <time>2011-01-29T14:47:22Z</time>
      </trkpt>
      <trkpt lat="46.81205" lon="4.73137">
        <ele>204.646738</ele>
        <time>2011-01-29T14:47:25Z</time>
      </trkpt>
      <trkpt lat="46.81211" lon="4.73154">
        <ele>204.755976</ele>
        <time>2011-01-29T14:47:28Z</time>
      </trkpt>
      <trkpt lat="46.81215" lon="4.73165">
        <ele>204.782742</ele>
        <time>2011-01-29T14:47:30Z</time>
      </trkpt>
      <trkpt lat="46.8122" lon="4.73177">
        <ele>204.686115</ele>
        <time>2011-01-29T14:47:32Z</time>
      </trkpt>
      <trkpt lat="46.81225" lon="4.73188">
        <ele>204.387673</ele>
        <time>2011-01-29T14:47:34Z</time>
      </trkpt>
      <trkpt lat="46.81231" lon="4.73204">
        <ele>203.969924</ele>
        <time>2011-01-29T14:47:37Z</time>
      </trkpt>
      <trkpt lat="46.81235" lon="4.7322">
        <ele>203.609571</ele>
        <time>2011-01-29T14:47:40Z</time>
      </trkpt>
      <trkpt lat="46.81241" lon="4.73234">
        <ele>203.36556</ele>
        <time>2011-01-29T14:47:43Z</time>
      </trkpt>
      <trkpt lat="46.81246" lon="4.73248">
        <ele>203.219342</ele>
        <time>2011-01-29T14:47:46Z</time>
      </trkpt>
      <trkpt lat="46.81251" lon="4.73267">
        <ele>203.149779</ele>
        <time>2011-01-29T14:47:49Z</time>
      </trkpt>
      <trkpt lat="46.81259" lon="4.7329">
        <ele>203.112646</ele>
        <time>2011-01-29T14:47:52Z</time>
      </trkpt>
      <trkpt lat="46.81266" lon="4.73316">
        <ele>203.064438</ele>
        <time>2011-01-29T14:47:55Z</time>
      </trkpt>
      <trkpt lat="46.81271" lon="4.73335">
        <ele>202.953601</ele>
        <time>2011-01-29T14:47:57Z</time>
      </trkpt>
      <trkpt lat="46.8128" lon="4.73364">
        <ele>202.68179</ele>
        <time>2011-01-29T14:48:00Z</time>
      </trkpt>
      <trkpt lat="46.8129" lon="4.73391">
        <ele>202.207317</ele>
        <time>2011-01-29T14:48:03Z</time>
      </trkpt>
      <trkpt lat="46.81304" lon="4.73415">
        <ele>201.648072</ele>
        <time>2011-01-29T14:48:06Z</time>
      </trkpt>
      <trkpt lat="46.81313" lon="4.73431">
        <ele>201.101355</ele>
        <time>2011-01-29T14:48:08Z</time>
      </trkpt>
      <trkpt lat="46.8133" lon="4.73456">
        <ele>200.535411</ele>
        <time>2011-01-29T14:48:11Z</time>
      </trkpt>
      <trkpt lat="46.81347" lon="4.73477">
        <ele>199.972553</ele>
        <time>2011-01-29T14:48:14Z</time>
      </trkpt>
      <trkpt lat="46.81358" lon="4.73487">
        <ele>199.538699</ele>
        <time>2011-01-29T14:48:16Z</time>
      </trkpt>
      <trkpt lat="46.81375" lon="4.73502">
        <ele>199.242789</ele>
        <time>2011-01-29T14:48:19Z</time>
      </trkpt>
      <trkpt lat="46.81391" lon="4.73518">
        <ele>199.014856</ele>
        <time>2011-01-29T14:48:22Z</time>
      </trkpt>
      <trkpt lat="46.81407" lon="4.73535">
        <ele>198.840903</ele>
        <time>2011-01-29T14:48:25Z</time>
      </trkpt>
      <trkpt lat="46.81418" lon="4.73545">
        <ele>198.687368</ele>
        <time>2011-01-29T14:48:27Z</time>
      </trkpt>
      <trkpt lat="46.81432" lon="4.73558">
        <ele>198.454554</ele>
        <time>2011-01-29T14:48:30Z</time>
      </trkpt>
      <trkpt lat="46.81441" lon="4.73567">
        <ele>198.072458</ele>
        <time>2011-01-29T14:48:32Z</time>
      </trkpt>
      <trkpt lat="46.81454" lon="4.73579">
        <ele>197.569347</ele>
        <time>2011-01-29T14:48:35Z</time>
      </trkpt>
      <trkpt lat="46.81467" lon="4.73591">
        <ele>197.031341</ele>
        <time>2011-01-29T14:48:38Z</time>
      </trkpt>
      <trkpt lat="46.81475" lon="4.73599">
        <ele>196.546916</ele>
        <time>2011-01-29T14:48:40Z</time>
      </trkpt>
      <trkpt lat="46.81486" lon="4.73611">
        <ele>196.196031</ele>
        <time>2011-01-29T14:48:43Z</time>
      </trkpt>
      <trkpt lat="46.81496" lon="4.73622">
        <ele>195.982685</ele>
        <time>2011-01-29T14:48:46Z</time>
      </trkpt>
      <trkpt lat="46.81506" lon="4.73633">
        <ele>195.828755</ele>
        <time>2011-01-29T14:48:49Z</time>
      </trkpt>
      <trkpt lat="46.81516" lon="4.73644">
        <ele>195.660043</ele>
        <time>2011-01-29T14:48:52Z</time>
      </trkpt>
      <trkpt lat="46.81525" lon="4.73656">
        <ele>195.473896</ele>
        <time>2011-01-29T14:48:55Z</time>
      </trkpt>
      <trkpt lat="46.81534" lon="4.73668">
        <ele>195.339025</ele>
        <time>2011-01-29T14:48:58Z</time>
      </trkpt>
      <trkpt lat="46.81542" lon="4.73682">
        <ele>195.290643</ele>
        <time>2011-01-29T14:49:01Z</time>
      </trkpt>
      <trkpt lat="46.8155" lon="4.73696">
        <ele>195.29269</ele>
        <time>2011-01-29T14:49:04Z</time>
      </trkpt>
      <trkpt lat="46.81557" lon="4.73711">
        <ele>195.308014</ele>
        <time>2011-01-29T14:49:07Z</time>
      </trkpt>
      <trkpt lat="46.81563" lon="4.73724">
        <ele>195.318954</ele>
        <time>2011-01-29T14:49:10Z</time>
      </trkpt>
      <trkpt lat="46.81568" lon="4.73735">
        <ele>195.310522</ele>
        <time>2011-01-29T14:49:13Z</time>
      </trkpt>
      <trkpt lat="46.81573" lon="4.73746">
        <ele>195.268088</ele>
        <time>2011-01-29T14:49:16Z</time>
      </trkpt>
      <trkpt lat="46.8158" lon="4.73759">
        <ele>195.19611</ele>
        <time>2011-01-29T14:49:20Z</time>
      </trkpt>
      <trkpt lat="46.81586" lon="4.73774">
        <ele>195.113298</ele>
        <time>2011-01-29T14:49:24Z</time>
      </trkpt>
      <trkpt lat="46.81591" lon="4.73785">
        <ele>195.040902</ele>
        <time>2011-01-29T14:49:27Z</time>
      </trkpt>
      <trkpt lat="46.81595" lon="4.73799">
        <ele>194.997751</ele>
        <time>2011-01-29T14:49:30Z</time>
      </trkpt>
      <trkpt lat="46.81599" lon="4.73813">
        <ele>194.984515</ele>
        <time>2011-01-29T14:49:33Z</time>
      </trkpt>
      <trkpt lat="46.81603" lon="4.73825">
        <ele>194.988271</ele>
        <time>2011-01-29T14:49:36Z</time>
      </trkpt>
      <trkpt lat="46.81607" lon="4.73837">
        <ele>195.000967</ele>
        <time>2011-01-29T14:49:39Z</time>
      </trkpt>
      <trkpt lat="46.81612" lon="4.73851">
        <ele>195.027884</ele>
        <time>2011-01-29T14:49:43Z</time>
      </trkpt>
      <trkpt lat="46.81616" lon="4.73863">
        <ele>195.081021</ele>
        <time>2011-01-29T14:49:46Z</time>
      </trkpt>
      <trkpt lat="46.8162" lon="4.73876">
        <ele>195.171851</ele>
        <time>2011-01-29T14:49:49Z</time>
      </trkpt>
      <trkpt lat="46.81623" lon="4.73892">
        <ele>195.327225</ele>
        <time>2011-01-29T14:49:53Z</time>
      </trkpt>
      <trkpt lat="46.81626" lon="4.73909">
        <ele>195.566639</ele>
        <time>2011-01-29T14:49:57Z</time>
      </trkpt>
      <trkpt lat="46.8163" lon="4.73926">
        <ele>195.868178</ele>
        <time>2011-01-29T14:50:01Z</time>
      </trkpt>
      <trkpt lat="46.81631" lon="4.73939">
        <ele>196.229701</ele>
        <time>2011-01-29T14:50:04Z</time>
      </trkpt>
      <trkpt lat="46.81633" lon="4.73955">
        <ele>196.696459</ele>
        <time>2011-01-29T14:50:07Z</time>
      </trkpt>
      <trkpt lat="46.81634" lon="4.73972">
        <ele>197.274599</ele>
        <time>2011-01-29T14:50:10Z</time>
      </trkpt>
      <trkpt lat="46.81635" lon="4.73987">
        <ele>197.892817</ele>
        <time>2011-01-29T14:50:13Z</time>
      </trkpt>
      <trkpt lat="46.81636" lon="4.74002">
        <ele>198.478571</ele>
        <time>2011-01-29T14:50:16Z</time>
      </trkpt>
      <trkpt lat="46.81638" lon="4.74019">
        <ele>199.022636</ele>
        <time>2011-01-29T14:50:19Z</time>
      </trkpt>
      <trkpt lat="46.81641" lon="4.74037">
        <ele>199.558979</ele>
        <time>2011-01-29T14:50:22Z</time>
      </trkpt>
      <trkpt lat="46.81643" lon="4.74058">
        <ele>200.116835</ele>
        <time>2011-01-29T14:50:25Z</time>
      </trkpt>
      <trkpt lat="46.81645" lon="4.74071">
        <ele>201.171407</ele>
        <time>2011-01-29T14:50:27Z</time>
      </trkpt>
      <trkpt lat="46.81648" lon="4.74092">
        <ele>203.376682</ele>
        <time>2011-01-29T14:50:30Z</time>
      </trkpt>
      <trkpt lat="46.81649" lon="4.74107">
        <ele>206.453775</ele>
        <time>2011-01-29T14:50:32Z</time>
      </trkpt>
      <trkpt lat="46.81649" lon="4.74122">
        <ele>209.325502</ele>
        <time>2011-01-29T14:50:34Z</time>
      </trkpt>
      <trkpt lat="46.81649" lon="4.74139">
        <ele>211.364852</ele>
        <time>2011-01-29T14:50:36Z</time>
      </trkpt>
      <trkpt lat="46.81647" lon="4.74165">
        <ele>212.6149</ele>
        <time>2011-01-29T14:50:39Z</time>
      </trkpt>
      <trkpt lat="46.81645" lon="4.74184">
        <ele>213.324229</ele>
        <time>2011-01-29T14:50:41Z</time>
      </trkpt>
      <trkpt lat="46.81642" lon="4.74213">
        <ele>213.7117</ele>
        <time>2011-01-29T14:50:44Z</time>
      </trkpt>
      <trkpt lat="46.81639" lon="4.74233">
        <ele>213.994993</ele>
        <time>2011-01-29T14:50:46Z</time>
      </trkpt>
      <trkpt lat="46.81634" lon="4.74263">
        <ele>214.262737</ele>
        <time>2011-01-29T14:50:49Z</time>
      </trkpt>
      <trkpt lat="46.8163" lon="4.74297">
        <ele>214.459345</ele>
        <time>2011-01-29T14:50:52Z</time>
      </trkpt>
      <trkpt lat="46.81627" lon="4.74321">
        <ele>214.541038</ele>
        <time>2011-01-29T14:50:54Z</time>
      </trkpt>
      <trkpt lat="46.81623" lon="4.74344">
        <ele>214.546451</ele>
        <time>2011-01-29T14:50:56Z</time>
      </trkpt>
      <trkpt lat="46.81619" lon="4.74381">
        <ele>214.464646</ele>
        <time>2011-01-29T14:50:59Z</time>
      </trkpt>
      <trkpt lat="46.81615" lon="4.74405">
        <ele>214.234522</ele>
        <time>2011-01-29T14:51:01Z</time>
      </trkpt>
      <trkpt lat="46.81609" lon="4.74442">
        <ele>213.856156</ele>
        <time>2011-01-29T14:51:04Z</time>
      </trkpt>
      <trkpt lat="46.81605" lon="4.74465">
        <ele>213.341954</ele>
        <time>2011-01-29T14:51:06Z</time>
      </trkpt>
      <trkpt lat="46.81597" lon="4.745">
        <ele>212.746203</ele>
        <time>2011-01-29T14:51:09Z</time>
      </trkpt>
      <trkpt lat="46.81588" lon="4.74534">
        <ele>212.224415</ele>
        <time>2011-01-29T14:51:12Z</time>
      </trkpt>
      <trkpt lat="46.8158" lon="4.74568">
        <ele>211.86241</ele>
        <time>2011-01-29T14:51:15Z</time>
      </trkpt>
      <trkpt lat="46.81574" lon="4.74591">
        <ele>211.602235</ele>
        <time>2011-01-29T14:51:17Z</time>
      </trkpt>
      <trkpt lat="46.81567" lon="4.74624">
        <ele>211.300261</ele>
        <time>2011-01-29T14:51:20Z</time>
      </trkpt>
      <trkpt lat="46.8156" lon="4.74655">
        <ele>210.741206</ele>
        <time>2011-01-29T14:51:23Z</time>
      </trkpt>
      <trkpt lat="46.81555" lon="4.74676">
        <ele>209.857589</ele>
        <time>2011-01-29T14:51:25Z</time>
      </trkpt>
      <trkpt lat="46.81548" lon="4.74707">
        <ele>208.831659</ele>
        <time>2011-01-29T14:51:28Z</time>
      </trkpt>
      <trkpt lat="46.81542" lon="4.74736">
        <ele>207.89092</ele>
        <time>2011-01-29T14:51:31Z</time>
      </trkpt>
      <trkpt lat="46.81535" lon="4.74765">
        <ele>207.133028</ele>
        <time>2011-01-29T14:51:34Z</time>
      </trkpt>
      <trkpt lat="46.8153" lon="4.74783">
        <ele>206.538492</ele>
        <time>2011-01-29T14:51:36Z</time>
      </trkpt>
      <trkpt lat="46.81526" lon="4.74802">
        <ele>206.032584</ele>
        <time>2011-01-29T14:51:38Z</time>
      </trkpt>
      <trkpt lat="46.8152" lon="4.74828">
        <ele>205.550786</ele>
        <time>2011-01-29T14:51:41Z</time>
      </trkpt>
      <trkpt lat="46.81513" lon="4.74853">
        <ele>205.066521</ele>
        <time>2011-01-29T14:51:44Z</time>
      </trkpt>
      <trkpt lat="46.81505" lon="4.74878">
        <ele>204.573505</ele>
        <time>2011-01-29T14:51:47Z</time>
      </trkpt>
      <trkpt lat="46.81497" lon="4.74902">
        <ele>204.02117</ele>
        <time>2011-01-29T14:51:50Z</time>
      </trkpt>
      <trkpt lat="46.81491" lon="4.74917">
        <ele>203.373095</ele>
        <time>2011-01-29T14:51:52Z</time>
      </trkpt>
      <trkpt lat="46.81486" lon="4.74932">
        <ele>202.755285</ele>
        <time>2011-01-29T14:51:54Z</time>
      </trkpt>
      <trkpt lat="46.81481" lon="4.74947">
        <ele>202.342412</ele>
        <time>2011-01-29T14:51:56Z</time>
      </trkpt>
      <trkpt lat="46.81476" lon="4.74971">
        <ele>202.157168</ele>
        <time>2011-01-29T14:51:59Z</time>
      </trkpt>
      <trkpt lat="46.81473" lon="4.74987">
        <ele>202.10882</ele>
        <time>2011-01-29T14:52:01Z</time>
      </trkpt>
      <trkpt lat="46.81471" lon="4.75012">
        <ele>202.112255</ele>
        <time>2011-01-29T14:52:04Z</time>
      </trkpt>
      <trkpt lat="46.81471" lon="4.75038">
        <ele>202.107445</ele>
        <time>2011-01-29T14:52:07Z</time>
      </trkpt>
      <trkpt lat="46.81472" lon="4.75055">
        <ele>202.081428</ele>
        <time>2011-01-29T14:52:09Z</time>
      </trkpt>
      <trkpt lat="46.81472" lon="4.75073">
        <ele>202.042223</ele>
        <time>2011-01-29T14:52:11Z</time>
      </trkpt>
      <trkpt lat="46.81472" lon="4.7509">
        <ele>201.997105</ele>
        <time>2011-01-29T14:52:13Z</time>
      </trkpt>
      <trkpt lat="46.81471" lon="4.75117">
        <ele>201.950629</ele>
        <time>2011-01-29T14:52:16Z</time>
      </trkpt>
      <trkpt lat="46.8147" lon="4.75144">
        <ele>201.910223</ele>
        <time>2011-01-29T14:52:19Z</time>
      </trkpt>
      <trkpt lat="46.81469" lon="4.75167">
        <ele>201.862468</ele>
        <time>2011-01-29T14:52:22Z</time>
      </trkpt>
      <trkpt lat="46.81467" lon="4.7518">
        <ele>201.692602</ele>
        <time>2011-01-29T14:52:24Z</time>
      </trkpt>
      <trkpt lat="46.81466" lon="4.75196">
        <ele>201.288849</ele>
        <time>2011-01-29T14:52:27Z</time>
      </trkpt>
      <trkpt lat="46.81466" lon="4.75211">
        <ele>200.790566</ele>
        <time>2011-01-29T14:52:31Z</time>
      </trkpt>
      <trkpt lat="46.81466" lon="4.75211">
        <ele>200.452932</ele>
        <time>2011-01-29T14:52:33Z</time>
      </trkpt>
      <trkpt lat="46.81479" lon="4.75221">
        <ele>200.338225</ele>
        <time>2011-01-29T14:52:37Z</time>
      </trkpt>
      <trkpt lat="46.8149" lon="4.75221">
        <ele>200.33756</ele>
        <time>2011-01-29T14:52:39Z</time>
      </trkpt>
      <trkpt lat="46.815" lon="4.75221">
        <ele>200.344263</ele>
        <time>2011-01-29T14:52:41Z</time>
      </trkpt>
      <trkpt lat="46.81513" lon="4.75218">
        <ele>200.32203</ele>
        <time>2011-01-29T14:52:44Z</time>
      </trkpt>
      <trkpt lat="46.81526" lon="4.75216">
        <ele>200.260855</ele>
        <time>2011-01-29T14:52:47Z</time>
      </trkpt>
      <trkpt lat="46.81535" lon="4.75212">
        <ele>200.159887</ele>
        <time>2011-01-29T14:52:49Z</time>
      </trkpt>
      <trkpt lat="46.81546" lon="4.75207">
        <ele>200.013338</ele>
        <time>2011-01-29T14:52:52Z</time>
      </trkpt>
      <trkpt lat="46.81558" lon="4.75203">
        <ele>199.830157</ele>
        <time>2011-01-29T14:52:55Z</time>
      </trkpt>
      <trkpt lat="46.81568" lon="4.75197">
        <ele>199.638447</ele>
        <time>2011-01-29T14:52:58Z</time>
      </trkpt>
      <trkpt lat="46.81579" lon="4.75196">
        <ele>199.461658</ele>
        <time>2011-01-29T14:53:01Z</time>
      </trkpt>
      <trkpt lat="46.81588" lon="4.75204">
        <ele>199.32203</ele>
        <time>2011-01-29T14:53:05Z</time>
      </trkpt>
      <trkpt lat="46.81591" lon="4.75218">
        <ele>199.245062</ele>
        <time>2011-01-29T14:53:09Z</time>
      </trkpt>
      <trkpt lat="46.81597" lon="4.75231">
        <ele>199.218322</ele>
        <time>2011-01-29T14:53:13Z</time>
      </trkpt>
      <trkpt lat="46.81607" lon="4.75238">
        <ele>199.219063</ele>
        <time>2011-01-29T14:53:17Z</time>
      </trkpt>
      <trkpt lat="46.81616" lon="4.75237">
        <ele>199.227239</ele>
        <time>2011-01-29T14:53:20Z</time>
      </trkpt>
      <trkpt lat="46.81627" lon="4.75236">
        <ele>199.237106</ele>
        <time>2011-01-29T14:53:23Z</time>
      </trkpt>
      <trkpt lat="46.8164" lon="4.75233">
        <ele>199.249477</ele>
        <time>2011-01-29T14:53:26Z</time>
      </trkpt>
      <trkpt lat="46.81652" lon="4.7523">
        <ele>199.267506</ele>
        <time>2011-01-29T14:53:29Z</time>
      </trkpt>
      <trkpt lat="46.81664" lon="4.75224">
        <ele>199.292139</ele>
        <time>2011-01-29T14:53:32Z</time>
      </trkpt>
      <trkpt lat="46.81675" lon="4.75217">
        <ele>199.317319</ele>
        <time>2011-01-29T14:53:35Z</time>
      </trkpt>
      <trkpt lat="46.81685" lon="4.7521">
        <ele>199.34897</ele>
        <time>2011-01-29T14:53:38Z</time>
      </trkpt>
      <trkpt lat="46.81697" lon="4.75205">
        <ele>199.406892</ele>
        <time>2011-01-29T14:53:41Z</time>
      </trkpt>
      <trkpt lat="46.81709" lon="4.75201">
        <ele>199.508012</ele>
        <time>2011-01-29T14:53:44Z</time>
      </trkpt>
      <trkpt lat="46.81721" lon="4.75199">
        <ele>199.664279</ele>
        <time>2011-01-29T14:53:47Z</time>
      </trkpt>
      <trkpt lat="46.81733" lon="4.75199">
        <ele>199.95833</ele>
        <time>2011-01-29T14:53:50Z</time>
      </trkpt>
      <trkpt lat="46.81743" lon="4.75199">
        <ele>200.578035</ele>
        <time>2011-01-29T14:53:53Z</time>
      </trkpt>
      <trkpt lat="46.81754" lon="4.75198">
        <ele>201.556595</ele>
        <time>2011-01-29T14:53:56Z</time>
      </trkpt>
      <trkpt lat="46.81765" lon="4.75199">
        <ele>202.574689</ele>
        <time>2011-01-29T14:53:59Z</time>
      </trkpt>
      <trkpt lat="46.81777" lon="4.75199">
        <ele>203.256993</ele>
        <time>2011-01-29T14:54:02Z</time>
      </trkpt>
      <trkpt lat="46.81788" lon="4.75199">
        <ele>203.518418</ele>
        <time>2011-01-29T14:54:05Z</time>
      </trkpt>
      <trkpt lat="46.818" lon="4.75199">
        <ele>203.520597</ele>
        <time>2011-01-29T14:54:08Z</time>
      </trkpt>
      <trkpt lat="46.81813" lon="4.75199">
        <ele>203.422004</ele>
        <time>2011-01-29T14:54:11Z</time>
      </trkpt>
      <trkpt lat="46.81822" lon="4.752">
        <ele>203.293813</ele>
        <time>2011-01-29T14:54:13Z</time>
      </trkpt>
      <trkpt lat="46.81836" lon="4.752">
        <ele>203.156803</ele>
        <time>2011-01-29T14:54:16Z</time>
      </trkpt>
      <trkpt lat="46.8185" lon="4.752">
        <ele>202.981643</ele>
        <time>2011-01-29T14:54:19Z</time>
      </trkpt>
      <trkpt lat="46.81864" lon="4.752">
        <ele>202.776151</ele>
        <time>2011-01-29T14:54:22Z</time>
      </trkpt>
      <trkpt lat="46.8188" lon="4.75202">
        <ele>202.626258</ele>
        <time>2011-01-29T14:54:25Z</time>
      </trkpt>
      <trkpt lat="46.8189" lon="4.75203">
        <ele>202.393379</ele>
        <time>2011-01-29T14:54:27Z</time>
      </trkpt>
      <trkpt lat="46.81907" lon="4.75205">
        <ele>201.806617</ele>
        <time>2011-01-29T14:54:30Z</time>
      </trkpt>
      <trkpt lat="46.81917" lon="4.75205">
        <ele>200.903084</ele>
        <time>2011-01-29T14:54:32Z</time>
      </trkpt>
      <trkpt lat="46.81933" lon="4.75204">
        <ele>199.9677</ele>
        <time>2011-01-29T14:54:35Z</time>
      </trkpt>
      <trkpt lat="46.81949" lon="4.75205">
        <ele>199.181434</ele>
        <time>2011-01-29T14:54:38Z</time>
      </trkpt>
      <trkpt lat="46.8196" lon="4.75206">
        <ele>198.559093</ele>
        <time>2011-01-29T14:54:40Z</time>
      </trkpt>
      <trkpt lat="46.81971" lon="4.75206">
        <ele>198.096805</ele>
        <time>2011-01-29T14:54:42Z</time>
      </trkpt>
      <trkpt lat="46.81987" lon="4.75207">
        <ele>197.850186</ele>
        <time>2011-01-29T14:54:45Z</time>
      </trkpt>
      <trkpt lat="46.81997" lon="4.75208">
        <ele>197.796454</ele>
        <time>2011-01-29T14:54:47Z</time>
      </trkpt>
      <trkpt lat="46.82012" lon="4.75209">
        <ele>197.855393</ele>
        <time>2011-01-29T14:54:50Z</time>
      </trkpt>
      <trkpt lat="46.82023" lon="4.7521">
        <ele>198.086913</ele>
        <time>2011-01-29T14:54:53Z</time>
      </trkpt>
      <trkpt lat="46.82036" lon="4.75211">
        <ele>198.565147</ele>
        <time>2011-01-29T14:54:56Z</time>
      </trkpt>
      <trkpt lat="46.82048" lon="4.75212">
        <ele>199.233008</ele>
        <time>2011-01-29T14:54:59Z</time>
      </trkpt>
      <trkpt lat="46.8206" lon="4.75212">
        <ele>199.961452</ele>
        <time>2011-01-29T14:55:02Z</time>
      </trkpt>
      <trkpt lat="46.8206" lon="4.75212">
        <ele>200.56163</ele>
        <time>2011-01-29T14:55:05Z</time>
      </trkpt>
      <trkpt lat="46.82085" lon="4.75209">
        <ele>200.951732</ele>
        <time>2011-01-29T14:55:12Z</time>
      </trkpt>
      <trkpt lat="46.82095" lon="4.75208">
        <ele>201.345765</ele>
        <time>2011-01-29T14:55:15Z</time>
      </trkpt>
      <trkpt lat="46.82105" lon="4.75207">
        <ele>201.909909</ele>
        <time>2011-01-29T14:55:18Z</time>
      </trkpt>
      <trkpt lat="46.82117" lon="4.75207">
        <ele>202.506426</ele>
        <time>2011-01-29T14:55:21Z</time>
      </trkpt>
      <trkpt lat="46.82127" lon="4.75207">
        <ele>202.938949</ele>
        <time>2011-01-29T14:55:24Z</time>
      </trkpt>
      <trkpt lat="46.82138" lon="4.75207">
        <ele>203.17793</ele>
        <time>2011-01-29T14:55:27Z</time>
      </trkpt>
      <trkpt lat="46.82149" lon="4.75207">
        <ele>203.317285</ele>
        <time>2011-01-29T14:55:30Z</time>
      </trkpt>
      <trkpt lat="46.82161" lon="4.75207">
        <ele>203.453416</ele>
        <time>2011-01-29T14:55:33Z</time>
      </trkpt>
      <trkpt lat="46.82173" lon="4.75206">
        <ele>203.629028</ele>
        <time>2011-01-29T14:55:36Z</time>
      </trkpt>
      <trkpt lat="46.82185" lon="4.75206">
        <ele>203.845718</ele>
        <time>2011-01-29T14:55:39Z</time>
      </trkpt>
      <trkpt lat="46.82197" lon="4.75207">
        <ele>204.087219</ele>
        <time>2011-01-29T14:55:42Z</time>
      </trkpt>
      <trkpt lat="46.8221" lon="4.75207">
        <ele>204.328821</ele>
        <time>2011-01-29T14:55:45Z</time>
      </trkpt>
      <trkpt lat="46.82223" lon="4.75208">
        <ele>204.747725</ele>
        <time>2011-01-29T14:55:48Z</time>
      </trkpt>
      <trkpt lat="46.82235" lon="4.75208">
        <ele>205.573991</ele>
        <time>2011-01-29T14:55:51Z</time>
      </trkpt>
      <trkpt lat="46.82246" lon="4.75208">
        <ele>206.653703</ele>
        <time>2011-01-29T14:55:54Z</time>
      </trkpt>
      <trkpt lat="46.82258" lon="4.75209">
        <ele>207.590577</ele>
        <time>2011-01-29T14:55:57Z</time>
      </trkpt>
      <trkpt lat="46.82271" lon="4.7521">
        <ele>208.166057</ele>
        <time>2011-01-29T14:56:00Z</time>
      </trkpt>
      <trkpt lat="46.82285" lon="4.75211">
        <ele>208.383499</ele>
        <time>2011-01-29T14:56:03Z</time>
      </trkpt>
      <trkpt lat="46.823" lon="4.75211">
        <ele>208.391674</ele>
        <time>2011-01-29T14:56:06Z</time>
      </trkpt>
      <trkpt lat="46.82314" lon="4.75211">
        <ele>208.339245</ele>
        <time>2011-01-29T14:56:09Z</time>
      </trkpt>
      <trkpt lat="46.82328" lon="4.75211">
        <ele>208.29749</ele>
        <time>2011-01-29T14:56:12Z</time>
      </trkpt>
      <trkpt lat="46.82338" lon="4.75212">
        <ele>208.274424</ele>
        <time>2011-01-29T14:56:14Z</time>
      </trkpt>
      <trkpt lat="46.82348" lon="4.75212">
        <ele>208.218425</ele>
        <time>2011-01-29T14:56:16Z</time>
      </trkpt>
      <trkpt lat="46.82362" lon="4.75212">
        <ele>208.098234</ele>
        <time>2011-01-29T14:56:19Z</time>
      </trkpt>
      <trkpt lat="46.82376" lon="4.75211">
        <ele>207.957419</ele>
        <time>2011-01-29T14:56:22Z</time>
      </trkpt>
      <trkpt lat="46.82387" lon="4.75211">
        <ele>207.848988</ele>
        <time>2011-01-29T14:56:25Z</time>
      </trkpt>
      <trkpt lat="46.82399" lon="4.75212">
        <ele>207.779602</ele>
        <time>2011-01-29T14:56:28Z</time>
      </trkpt>
      <trkpt lat="46.82407" lon="4.75221">
        <ele>207.738989</ele>
        <time>2011-01-29T14:56:31Z</time>
      </trkpt>
      <trkpt lat="46.82405" lon="4.75238">
        <ele>207.718478</ele>
        <time>2011-01-29T14:56:35Z</time>
      </trkpt>
      <trkpt lat="46.82404" lon="4.75253">
        <ele>207.714626</ele>
        <time>2011-01-29T14:56:38Z</time>
      </trkpt>
      <trkpt lat="46.82403" lon="4.75268">
        <ele>207.738067</ele>
        <time>2011-01-29T14:56:41Z</time>
      </trkpt>
      <trkpt lat="46.82402" lon="4.75281">
        <ele>207.80533</ele>
        <time>2011-01-29T14:56:44Z</time>
      </trkpt>
      <trkpt lat="46.82401" lon="4.75296">
        <ele>207.902196</ele>
        <time>2011-01-29T14:56:47Z</time>
      </trkpt>
      <trkpt lat="46.82399" lon="4.7531">
        <ele>208.006691</ele>
        <time>2011-01-29T14:56:50Z</time>
      </trkpt>
      <trkpt lat="46.82398" lon="4.75325">
        <ele>208.119347</ele>
        <time>2011-01-29T14:56:53Z</time>
      </trkpt>
      <trkpt lat="46.82396" lon="4.75343">
        <ele>208.246327</ele>
        <time>2011-01-29T14:56:56Z</time>
      </trkpt>
      <trkpt lat="46.82394" lon="4.75363">
        <ele>208.392673</ele>
        <time>2011-01-29T14:56:59Z</time>
      </trkpt>
      <trkpt lat="46.82392" lon="4.75382">
        <ele>208.559822</ele>
        <time>2011-01-29T14:57:02Z</time>
      </trkpt>
      <trkpt lat="46.8239" lon="4.75401">
        <ele>208.87278</ele>
        <time>2011-01-29T14:57:05Z</time>
      </trkpt>
      <trkpt lat="46.82389" lon="4.75414">
        <ele>209.432773</ele>
        <time>2011-01-29T14:57:07Z</time>
      </trkpt>
      <trkpt lat="46.82386" lon="4.7543">
        <ele>210.069512</ele>
        <time>2011-01-29T14:57:10Z</time>
      </trkpt>
      <trkpt lat="46.82385" lon="4.75445">
        <ele>210.525893</ele>
        <time>2011-01-29T14:57:13Z</time>
      </trkpt>
      <trkpt lat="46.82383" lon="4.75463">
        <ele>210.732878</ele>
        <time>2011-01-29T14:57:16Z</time>
      </trkpt>
      <trkpt lat="46.82381" lon="4.75482">
        <ele>210.765238</ele>
        <time>2011-01-29T14:57:19Z</time>
      </trkpt>
      <trkpt lat="46.82379" lon="4.75501">
        <ele>210.735108</ele>
        <time>2011-01-29T14:57:22Z</time>
      </trkpt>
      <trkpt lat="46.82377" lon="4.7552">
        <ele>210.69872</ele>
        <time>2011-01-29T14:57:25Z</time>
      </trkpt>
      <trkpt lat="46.82375" lon="4.7554">
        <ele>210.673195</ele>
        <time>2011-01-29T14:57:28Z</time>
      </trkpt>
      <trkpt lat="46.82373" lon="4.75559">
        <ele>210.611285</ele>
        <time>2011-01-29T14:57:31Z</time>
      </trkpt>
      <trkpt lat="46.82372" lon="4.75578">
        <ele>210.414603</ele>
        <time>2011-01-29T14:57:34Z</time>
      </trkpt>
      <trkpt lat="46.8237" lon="4.75597">
        <ele>210.05992</ele>
        <time>2011-01-29T14:57:37Z</time>
      </trkpt>
      <trkpt lat="46.82368" lon="4.75615">
        <ele>209.647853</ele>
        <time>2011-01-29T14:57:40Z</time>
      </trkpt>
      <trkpt lat="46.82366" lon="4.75635">
        <ele>209.315571</ele>
        <time>2011-01-29T14:57:43Z</time>
      </trkpt>
      <trkpt lat="46.82365" lon="4.75654">
        <ele>209.118979</ele>
        <time>2011-01-29T14:57:46Z</time>
      </trkpt>
      <trkpt lat="46.82363" lon="4.75672">
        <ele>208.973917</ele>
        <time>2011-01-29T14:57:49Z</time>
      </trkpt>
      <trkpt lat="46.82362" lon="4.75691">
        <ele>208.778999</ele>
        <time>2011-01-29T14:57:52Z</time>
      </trkpt>
      <trkpt lat="46.8236" lon="4.75709">
        <ele>208.539171</ele>
        <time>2011-01-29T14:57:55Z</time>
      </trkpt>
      <trkpt lat="46.82359" lon="4.75726">
        <ele>208.312191</ele>
        <time>2011-01-29T14:57:58Z</time>
      </trkpt>
      <trkpt lat="46.82358" lon="4.75743">
        <ele>208.090143</ele>
        <time>2011-01-29T14:58:01Z</time>
      </trkpt>
      <trkpt lat="46.82356" lon="4.75758">
        <ele>207.793199</ele>
        <time>2011-01-29T14:58:04Z</time>
      </trkpt>
      <trkpt lat="46.82355" lon="4.75772">
        <ele>207.4121</ele>
        <time>2011-01-29T14:58:07Z</time>
      </trkpt>
      <trkpt lat="46.82353" lon="4.75786">
        <ele>207.037622</ele>
        <time>2011-01-29T14:58:10Z</time>
      </trkpt>
      <trkpt lat="46.8235" lon="4.75799">
        <ele>206.743918</ele>
        <time>2011-01-29T14:58:14Z</time>
      </trkpt>
      <trkpt lat="46.82346" lon="4.75814">
        <ele>206.564176</ele>
        <time>2011-01-29T14:58:19Z</time>
      </trkpt>
      <trkpt lat="46.8234" lon="4.75827">
        <ele>206.499095</ele>
        <time>2011-01-29T14:58:24Z</time>
      </trkpt>
      <trkpt lat="46.8234" lon="4.75827">
        <ele>206.483989</ele>
        <time>2011-01-29T14:58:30Z</time>
      </trkpt>
      <trkpt lat="46.8233" lon="4.75797">
        <ele>206.458976</ele>
        <time>2011-01-29T14:59:06Z</time>
      </trkpt>
      <trkpt lat="46.82323" lon="4.75788">
        <ele>206.461839</ele>
        <time>2011-01-29T14:59:11Z</time>
      </trkpt>
      <trkpt lat="46.82315" lon="4.75779">
        <ele>206.589376</ele>
        <time>2011-01-29T14:59:16Z</time>
      </trkpt>
      <trkpt lat="46.82308" lon="4.75771">
        <ele>207.307435</ele>
        <time>2011-01-29T14:59:22Z</time>
      </trkpt>
      <trkpt lat="46.823" lon="4.75763">
        <ele>208.812012</ele>
        <time>2011-01-29T14:59:31Z</time>
      </trkpt>
      <trkpt lat="46.823" lon="4.75763">
        <ele>210.305525</ele>
        <time>2011-01-29T14:59:42Z</time>
      </trkpt>
      <trkpt lat="46.823" lon="4.75763">
        <ele>211.042178</ele>
        <time>2011-01-29T15:00:03Z</time>
      </trkpt>
      <trkpt lat="46.82276" lon="4.75735">
        <ele>211.226766</ele>
        <time>2011-01-29T15:00:24Z</time>
      </trkpt>
      <trkpt lat="46.82268" lon="4.75728">
        <ele>211.332506</ele>
        <time>2011-01-29T15:00:32Z</time>
      </trkpt>
      <trkpt lat="46.8226" lon="4.7572">
        <ele>211.613281</ele>
        <time>2011-01-29T15:00:39Z</time>
      </trkpt>
      <trkpt lat="46.8226" lon="4.7572">
        <ele>211.983588</ele>
        <time>2011-01-29T15:00:50Z</time>
      </trkpt>
      <trkpt lat="46.8226" lon="4.7572">
        <ele>212.170766</ele>
        <time>2011-01-29T15:01:41Z</time>
      </trkpt>
      <trkpt lat="46.82249" lon="4.75683">
        <ele>212.256083</ele>
        <time>2011-01-29T15:03:32Z</time>
      </trkpt>
      <trkpt lat="46.8225" lon="4.7567">
        <ele>212.547337</ele>
        <time>2011-01-29T15:03:38Z</time>
      </trkpt>
      <trkpt lat="46.82252" lon="4.75655">
        <ele>212.958218</ele>
        <time>2011-01-29T15:03:45Z</time>
      </trkpt>
      <trkpt lat="46.82253" lon="4.7564">
        <ele>213.702096</ele>
        <time>2011-01-29T15:03:52Z</time>
      </trkpt>
      <trkpt lat="46.82255" lon="4.75625">
        <ele>215.061164</ele>
        <time>2011-01-29T15:03:59Z</time>
      </trkpt>
      <trkpt lat="46.82257" lon="4.7561">
        <ele>216.374548</ele>
        <time>2011-01-29T15:04:06Z</time>
      </trkpt>
      <trkpt lat="46.8226" lon="4.75597">
        <ele>216.99473</ele>
        <time>2011-01-29T15:04:13Z</time>
      </trkpt>
      <trkpt lat="46.82261" lon="4.75583">
        <ele>217.093311</ele>
        <time>2011-01-29T15:04:19Z</time>
      </trkpt>
      <trkpt lat="46.82263" lon="4.75569">
        <ele>216.990738</ele>
        <time>2011-01-29T15:04:25Z</time>
      </trkpt>
      <trkpt lat="46.82265" lon="4.75556">
        <ele>216.885517</ele>
        <time>2011-01-29T15:04:32Z</time>
      </trkpt>
      <trkpt lat="46.82266" lon="4.75541">
        <ele>216.835621</ele>
        <time>2011-01-29T15:04:43Z</time>
      </trkpt>
      <trkpt lat="46.82268" lon="4.75527">
        <ele>216.82808</ele>
        <time>2011-01-29T15:04:50Z</time>
      </trkpt>
      <trkpt lat="46.8227" lon="4.75512">
        <ele>216.844356</ele>
        <time>2011-01-29T15:04:57Z</time>
      </trkpt>
      <trkpt lat="46.82269" lon="4.75498">
        <ele>216.881365</ele>
        <time>2011-01-29T15:05:04Z</time>
      </trkpt>
      <trkpt lat="46.82273" lon="4.75484">
        <ele>216.92767</ele>
        <time>2011-01-29T15:05:12Z</time>
      </trkpt>
      <trkpt lat="46.82275" lon="4.7547">
        <ele>216.960247</ele>
        <time>2011-01-29T15:05:19Z</time>
      </trkpt>
      <trkpt lat="46.82275" lon="4.75456">
        <ele>216.971551</ele>
        <time>2011-01-29T15:05:28Z</time>
      </trkpt>
      <trkpt lat="46.82277" lon="4.75442">
        <ele>216.945219</ele>
        <time>2011-01-29T15:05:35Z</time>
      </trkpt>
      <trkpt lat="46.82278" lon="4.75428">
        <ele>216.843635</ele>
        <time>2011-01-29T15:05:46Z</time>
      </trkpt>
      <trkpt lat="46.8228" lon="4.75415">
        <ele>216.66004</ele>
        <time>2011-01-29T15:05:53Z</time>
      </trkpt>
      <trkpt lat="46.82281" lon="4.75401">
        <ele>216.44549</ele>
        <time>2011-01-29T15:06:02Z</time>
      </trkpt>
      <trkpt lat="46.82283" lon="4.75387">
        <ele>216.247558</ele>
        <time>2011-01-29T15:06:11Z</time>
      </trkpt>
      <trkpt lat="46.82285" lon="4.75373">
        <ele>216.077184</ele>
        <time>2011-01-29T15:06:18Z</time>
      </trkpt>
      <trkpt lat="46.82286" lon="4.7536">
        <ele>215.936218</ele>
        <time>2011-01-29T15:06:26Z</time>
      </trkpt>
      <trkpt lat="46.82285" lon="4.75345">
        <ele>215.817273</ele>
        <time>2011-01-29T15:06:35Z</time>
      </trkpt>
      <trkpt lat="46.82287" lon="4.75332">
        <ele>215.691181</ele>
        <time>2011-01-29T15:06:42Z</time>
      </trkpt>
      <trkpt lat="46.82287" lon="4.75318">
        <ele>215.540658</ele>
        <time>2011-01-29T15:06:50Z</time>
      </trkpt>
      <trkpt lat="46.82289" lon="4.75305">
        <ele>215.372147</ele>
        <time>2011-01-29T15:06:58Z</time>
      </trkpt>
      <trkpt lat="46.82292" lon="4.75291">
        <ele>215.198536</ele>
        <time>2011-01-29T15:07:06Z</time>
      </trkpt>
      <trkpt lat="46.82295" lon="4.75278">
        <ele>215.026471</ele>
        <time>2011-01-29T15:07:14Z</time>
      </trkpt>
      <trkpt lat="46.82295" lon="4.75264">
        <ele>214.879903</ele>
        <time>2011-01-29T15:07:21Z</time>
      </trkpt>
      <trkpt lat="46.82294" lon="4.7525">
        <ele>214.795509</ele>
        <time>2011-01-29T15:07:28Z</time>
      </trkpt>
      <trkpt lat="46.82295" lon="4.75235">
        <ele>214.773807</ele>
        <time>2011-01-29T15:07:35Z</time>
      </trkpt>
      <trkpt lat="46.82297" lon="4.75222">
        <ele>214.792123</ele>
        <time>2011-01-29T15:07:43Z</time>
      </trkpt>
      <trkpt lat="46.82305" lon="4.75217">
        <ele>214.831696</ele>
        <time>2011-01-29T15:07:58Z</time>
      </trkpt>
      <trkpt lat="46.82315" lon="4.75216">
        <ele>214.866823</ele>
        <time>2011-01-29T15:08:07Z</time>
      </trkpt>
      <trkpt lat="46.82324" lon="4.75214">
        <ele>214.881962</ele>
        <time>2011-01-29T15:08:14Z</time>
      </trkpt>
      <trkpt lat="46.82334" lon="4.75211">
        <ele>214.881356</ele>
        <time>2011-01-29T15:08:23Z</time>
      </trkpt>
      <trkpt lat="46.82334" lon="4.75211">
        <ele>214.841371</ele>
        <time>2011-01-29T15:08:33Z</time>
      </trkpt>
      <trkpt lat="46.82334" lon="4.75211">
        <ele>214.745534</ele>
        <time>2011-01-29T15:08:54Z</time>
      </trkpt>
      <trkpt lat="46.82355" lon="4.75207">
        <ele>214.643082</ele>
        <time>2011-01-29T15:10:38Z</time>
      </trkpt>
      <trkpt lat="46.82365" lon="4.75207">
        <ele>214.587822</ele>
        <time>2011-01-29T15:10:41Z</time>
      </trkpt>
      <trkpt lat="46.82376" lon="4.75208">
        <ele>214.580985</ele>
        <time>2011-01-29T15:10:44Z</time>
      </trkpt>
      <trkpt lat="46.82386" lon="4.75207">
        <ele>214.733951</ele>
        <time>2011-01-29T15:10:47Z</time>
      </trkpt>
      <trkpt lat="46.82398" lon="4.75206">
        <ele>215.10278</ele>
        <time>2011-01-29T15:10:50Z</time>
      </trkpt>
      <trkpt lat="46.82412" lon="4.75206">
        <ele>215.473984</ele>
        <time>2011-01-29T15:10:53Z</time>
      </trkpt>
      <trkpt lat="46.82425" lon="4.75205">
        <ele>215.666261</ele>
        <time>2011-01-29T15:10:56Z</time>
      </trkpt>
      <trkpt lat="46.82438" lon="4.75205">
        <ele>215.859567</ele>
        <time>2011-01-29T15:10:59Z</time>
      </trkpt>
      <trkpt lat="46.8245" lon="4.75205">
        <ele>216.29058</ele>
        <time>2011-01-29T15:11:02Z</time>
      </trkpt>
      <trkpt lat="46.82463" lon="4.75205">
        <ele>216.902553</ele>
        <time>2011-01-29T15:11:05Z</time>
      </trkpt>
      <trkpt lat="46.82477" lon="4.75206">
        <ele>217.43815</ele>
        <time>2011-01-29T15:11:08Z</time>
      </trkpt>
      <trkpt lat="46.82491" lon="4.75207">
        <ele>217.749055</ele>
        <time>2011-01-29T15:11:11Z</time>
      </trkpt>
      <trkpt lat="46.82504" lon="4.75207">
        <ele>217.847923</ele>
        <time>2011-01-29T15:11:14Z</time>
      </trkpt>
      <trkpt lat="46.82517" lon="4.75208">
        <ele>217.833685</ele>
        <time>2011-01-29T15:11:17Z</time>
      </trkpt>
      <trkpt lat="46.82529" lon="4.75209">
        <ele>217.794808</ele>
        <time>2011-01-29T15:11:20Z</time>
      </trkpt>
      <trkpt lat="46.82542" lon="4.75209">
        <ele>217.769631</ele>
        <time>2011-01-29T15:11:23Z</time>
      </trkpt>
      <trkpt lat="46.82554" lon="4.7521">
        <ele>217.761775</ele>
        <time>2011-01-29T15:11:26Z</time>
      </trkpt>
      <trkpt lat="46.82566" lon="4.7521">
        <ele>217.790586</ele>
        <time>2011-01-29T15:11:29Z</time>
      </trkpt>
      <trkpt lat="46.82578" lon="4.75211">
        <ele>217.865518</ele>
        <time>2011-01-29T15:11:32Z</time>
      </trkpt>
      <trkpt lat="46.82589" lon="4.75211">
        <ele>217.9412</ele>
        <time>2011-01-29T15:11:35Z</time>
      </trkpt>
      <trkpt lat="46.826" lon="4.75211">
        <ele>217.97676</ele>
        <time>2011-01-29T15:11:38Z</time>
      </trkpt>
      <trkpt lat="46.82612" lon="4.75211">
        <ele>217.972955</ele>
        <time>2011-01-29T15:11:41Z</time>
      </trkpt>
      <trkpt lat="46.82624" lon="4.75211">
        <ele>217.943322</ele>
        <time>2011-01-29T15:11:44Z</time>
      </trkpt>
      <trkpt lat="46.82636" lon="4.75211">
        <ele>217.912007</ele>
        <time>2011-01-29T15:11:47Z</time>
      </trkpt>
      <trkpt lat="46.82648" lon="4.75212">
        <ele>217.893515</ele>
        <time>2011-01-29T15:11:50Z</time>
      </trkpt>
      <trkpt lat="46.8266" lon="4.75212">
        <ele>217.8838</ele>
        <time>2011-01-29T15:11:53Z</time>
      </trkpt>
      <trkpt lat="46.82672" lon="4.75212">
        <ele>217.876296</ele>
        <time>2011-01-29T15:11:56Z</time>
      </trkpt>
      <trkpt lat="46.82684" lon="4.75212">
        <ele>217.865218</ele>
        <time>2011-01-29T15:11:59Z</time>
      </trkpt>
      <trkpt lat="46.82696" lon="4.75212">
        <ele>217.827278</ele>
        <time>2011-01-29T15:12:02Z</time>
      </trkpt>
      <trkpt lat="46.82708" lon="4.75212">
        <ele>217.698601</ele>
        <time>2011-01-29T15:12:05Z</time>
      </trkpt>
      <trkpt lat="46.8272" lon="4.75212">
        <ele>217.449034</ele>
        <time>2011-01-29T15:12:08Z</time>
      </trkpt>
      <trkpt lat="46.82732" lon="4.75213">
        <ele>217.161726</ele>
        <time>2011-01-29T15:12:11Z</time>
      </trkpt>
      <trkpt lat="46.82744" lon="4.75213">
        <ele>216.943018</ele>
        <time>2011-01-29T15:12:14Z</time>
      </trkpt>
      <trkpt lat="46.82756" lon="4.75214">
        <ele>216.793839</ele>
        <time>2011-01-29T15:12:17Z</time>
      </trkpt>
      <trkpt lat="46.82768" lon="4.75214">
        <ele>216.652792</ele>
        <time>2011-01-29T15:12:20Z</time>
      </trkpt>
      <trkpt lat="46.8278" lon="4.75213">
        <ele>216.478863</ele>
        <time>2011-01-29T15:12:23Z</time>
      </trkpt>
      <trkpt lat="46.82792" lon="4.75213">
        <ele>216.296566</ele>
        <time>2011-01-29T15:12:26Z</time>
      </trkpt>
      <trkpt lat="46.82804" lon="4.75213">
        <ele>216.172397</ele>
        <time>2011-01-29T15:12:29Z</time>
      </trkpt>
      <trkpt lat="46.82816" lon="4.75213">
        <ele>216.130966</ele>
        <time>2011-01-29T15:12:32Z</time>
      </trkpt>
      <trkpt lat="46.82827" lon="4.75213">
        <ele>216.142212</ele>
        <time>2011-01-29T15:12:35Z</time>
      </trkpt>
      <trkpt lat="46.82839" lon="4.75213">
        <ele>216.177908</ele>
        <time>2011-01-29T15:12:38Z</time>
      </trkpt>
      <trkpt lat="46.8285" lon="4.75214">
        <ele>216.213068</ele>
        <time>2011-01-29T15:12:41Z</time>
      </trkpt>
      <trkpt lat="46.82862" lon="4.75214">
        <ele>216.231765</ele>
        <time>2011-01-29T15:12:44Z</time>
      </trkpt>
      <trkpt lat="46.82874" lon="4.75215">
        <ele>216.233377</ele>
        <time>2011-01-29T15:12:47Z</time>
      </trkpt>
      <trkpt lat="46.82886" lon="4.75215">
        <ele>216.203827</ele>
        <time>2011-01-29T15:12:50Z</time>
      </trkpt>
      <trkpt lat="46.82899" lon="4.75215">
        <ele>216.13993</ele>
        <time>2011-01-29T15:12:53Z</time>
      </trkpt>
      <trkpt lat="46.82912" lon="4.75216">
        <ele>216.079365</ele>
        <time>2011-01-29T15:12:56Z</time>
      </trkpt>
      <trkpt lat="46.82924" lon="4.75216">
        <ele>216.052027</ele>
        <time>2011-01-29T15:12:59Z</time>
      </trkpt>
      <trkpt lat="46.82936" lon="4.75216">
        <ele>216.046496</ele>
        <time>2011-01-29T15:13:02Z</time>
      </trkpt>
      <trkpt lat="46.82948" lon="4.75216">
        <ele>216.056139</ele>
        <time>2011-01-29T15:13:05Z</time>
      </trkpt>
      <trkpt lat="46.8296" lon="4.75215">
        <ele>216.081531</ele>
        <time>2011-01-29T15:13:08Z</time>
      </trkpt>
      <trkpt lat="46.82971" lon="4.75215">
        <ele>216.108024</ele>
        <time>2011-01-29T15:13:11Z</time>
      </trkpt>
      <trkpt lat="46.82979" lon="4.75223">
        <ele>216.110565</ele>
        <time>2011-01-29T15:13:15Z</time>
      </trkpt>
      <trkpt lat="46.8298" lon="4.7524">
        <ele>216.049035</ele>
        <time>2011-01-29T15:13:18Z</time>
      </trkpt>
      <trkpt lat="46.82979" lon="4.75261">
        <ele>215.912877</ele>
        <time>2011-01-29T15:13:21Z</time>
      </trkpt>
      <trkpt lat="46.82979" lon="4.75276">
        <ele>215.749702</ele>
        <time>2011-01-29T15:13:23Z</time>
      </trkpt>
      <trkpt lat="46.82978" lon="4.753">
        <ele>215.481573</ele>
        <time>2011-01-29T15:13:26Z</time>
      </trkpt>
      <trkpt lat="46.82976" lon="4.75325">
        <ele>215.037598</ele>
        <time>2011-01-29T15:13:29Z</time>
      </trkpt>
      <trkpt lat="46.82975" lon="4.75341">
        <ele>214.609271</ele>
        <time>2011-01-29T15:13:31Z</time>
      </trkpt>
      <trkpt lat="46.82973" lon="4.75357">
        <ele>214.393184</ele>
        <time>2011-01-29T15:13:33Z</time>
      </trkpt>
      <trkpt lat="46.82971" lon="4.75374">
        <ele>214.352733</ele>
        <time>2011-01-29T15:13:35Z</time>
      </trkpt>
      <trkpt lat="46.82968" lon="4.75398">
        <ele>214.436148</ele>
        <time>2011-01-29T15:13:38Z</time>
      </trkpt>
      <trkpt lat="46.82965" lon="4.75413">
        <ele>214.646864</ele>
        <time>2011-01-29T15:13:40Z</time>
      </trkpt>
      <trkpt lat="46.82958" lon="4.75436">
        <ele>214.936135</ele>
        <time>2011-01-29T15:13:43Z</time>
      </trkpt>
      <trkpt lat="46.8295" lon="4.75457">
        <ele>215.239571</ele>
        <time>2011-01-29T15:13:46Z</time>
      </trkpt>
      <trkpt lat="46.82942" lon="4.75479">
        <ele>215.512029</ele>
        <time>2011-01-29T15:13:49Z</time>
      </trkpt>
      <trkpt lat="46.82937" lon="4.75501">
        <ele>215.683256</ele>
        <time>2011-01-29T15:13:52Z</time>
      </trkpt>
      <trkpt lat="46.82936" lon="4.75515">
        <ele>215.734384</ele>
        <time>2011-01-29T15:13:54Z</time>
      </trkpt>
      <trkpt lat="46.82937" lon="4.75532">
        <ele>215.721324</ele>
        <time>2011-01-29T15:13:57Z</time>
      </trkpt>
      <trkpt lat="46.8294" lon="4.75545">
        <ele>215.685926</ele>
        <time>2011-01-29T15:14:00Z</time>
      </trkpt>
      <trkpt lat="46.82942" lon="4.75557">
        <ele>215.6198</ele>
        <time>2011-01-29T15:14:03Z</time>
      </trkpt>
      <trkpt lat="46.82944" lon="4.75574">
        <ele>215.495177</ele>
        <time>2011-01-29T15:14:07Z</time>
      </trkpt>
      <trkpt lat="46.82946" lon="4.7559">
        <ele>215.33316</ele>
        <time>2011-01-29T15:14:10Z</time>
      </trkpt>
      <trkpt lat="46.82948" lon="4.75607">
        <ele>215.186236</ele>
        <time>2011-01-29T15:14:13Z</time>
      </trkpt>
      <trkpt lat="46.82949" lon="4.7562">
        <ele>215.067609</ele>
        <time>2011-01-29T15:14:15Z</time>
      </trkpt>
      <trkpt lat="46.8295" lon="4.7564">
        <ele>214.916548</ele>
        <time>2011-01-29T15:14:18Z</time>
      </trkpt>
      <trkpt lat="46.82952" lon="4.7566">
        <ele>214.573029</ele>
        <time>2011-01-29T15:14:21Z</time>
      </trkpt>
      <trkpt lat="46.82952" lon="4.75679">
        <ele>214.035351</ele>
        <time>2011-01-29T15:14:24Z</time>
      </trkpt>
      <trkpt lat="46.82951" lon="4.75692">
        <ele>213.576257</ele>
        <time>2011-01-29T15:14:26Z</time>
      </trkpt>
      <trkpt lat="46.82949" lon="4.75712">
        <ele>213.376597</ele>
        <time>2011-01-29T15:14:29Z</time>
      </trkpt>
      <trkpt lat="46.82945" lon="4.75732">
        <ele>213.357266</ele>
        <time>2011-01-29T15:14:32Z</time>
      </trkpt>
      <trkpt lat="46.8294" lon="4.75752">
        <ele>213.448019</ele>
        <time>2011-01-29T15:14:35Z</time>
      </trkpt>
      <trkpt lat="46.82935" lon="4.75771">
        <ele>213.618833</ele>
        <time>2011-01-29T15:14:38Z</time>
      </trkpt>
      <trkpt lat="46.8293" lon="4.75792">
        <ele>213.783526</ele>
        <time>2011-01-29T15:14:41Z</time>
      </trkpt>
      <trkpt lat="46.82926" lon="4.75813">
        <ele>213.866097</ele>
        <time>2011-01-29T15:14:44Z</time>
      </trkpt>
      <trkpt lat="46.82924" lon="4.75828">
        <ele>213.888621</ele>
        <time>2011-01-29T15:14:46Z</time>
      </trkpt>
      <trkpt lat="46.82921" lon="4.75849">
        <ele>213.895664</ele>
        <time>2011-01-29T15:14:49Z</time>
      </trkpt>
      <trkpt lat="46.82917" lon="4.7587">
        <ele>213.901901</ele>
        <time>2011-01-29T15:14:52Z</time>
      </trkpt>
      <trkpt lat="46.82912" lon="4.75889">
        <ele>213.904585</ele>
        <time>2011-01-29T15:14:55Z</time>
      </trkpt>
      <trkpt lat="46.82907" lon="4.75902">
        <ele>213.92297</ele>
        <time>2011-01-29T15:14:57Z</time>
      </trkpt>
      <trkpt lat="46.82899" lon="4.75919">
        <ele>213.996968</ele>
        <time>2011-01-29T15:15:00Z</time>
      </trkpt>
      <trkpt lat="46.82891" lon="4.75934">
        <ele>214.124739</ele>
        <time>2011-01-29T15:15:03Z</time>
      </trkpt>
      <trkpt lat="46.82883" lon="4.75951">
        <ele>214.243001</ele>
        <time>2011-01-29T15:15:06Z</time>
      </trkpt>
      <trkpt lat="46.82877" lon="4.75968">
        <ele>214.304132</ele>
        <time>2011-01-29T15:15:09Z</time>
      </trkpt>
      <trkpt lat="46.82873" lon="4.75987">
        <ele>214.312926</ele>
        <time>2011-01-29T15:15:12Z</time>
      </trkpt>
      <trkpt lat="46.82869" lon="4.76004">
        <ele>214.290548</ele>
        <time>2011-01-29T15:15:15Z</time>
      </trkpt>
      <trkpt lat="46.82865" lon="4.76023">
        <ele>214.16332</ele>
        <time>2011-01-29T15:15:18Z</time>
      </trkpt>
      <trkpt lat="46.82859" lon="4.76039">
        <ele>213.824791</ele>
        <time>2011-01-29T15:15:21Z</time>
      </trkpt>
      <trkpt lat="46.82854" lon="4.7605">
        <ele>213.299843</ele>
        <time>2011-01-29T15:15:24Z</time>
      </trkpt>
      <trkpt lat="46.82847" lon="4.76064">
        <ele>212.717981</ele>
        <time>2011-01-29T15:15:27Z</time>
      </trkpt>
      <trkpt lat="46.82841" lon="4.76074">
        <ele>212.152812</ele>
        <time>2011-01-29T15:15:29Z</time>
      </trkpt>
      <trkpt lat="46.82832" lon="4.76087">
        <ele>211.654731</ele>
        <time>2011-01-29T15:15:32Z</time>
      </trkpt>
      <trkpt lat="46.82824" lon="4.76099">
        <ele>211.267829</ele>
        <time>2011-01-29T15:15:35Z</time>
      </trkpt>
      <trkpt lat="46.82814" lon="4.76113">
        <ele>210.761544</ele>
        <time>2011-01-29T15:15:38Z</time>
      </trkpt>
      <trkpt lat="46.82805" lon="4.76127">
        <ele>209.526558</ele>
        <time>2011-01-29T15:15:41Z</time>
      </trkpt>
      <trkpt lat="46.82799" lon="4.76138">
        <ele>207.438931</ele>
        <time>2011-01-29T15:15:43Z</time>
      </trkpt>
      <trkpt lat="46.82789" lon="4.76154">
        <ele>204.80074</ele>
        <time>2011-01-29T15:15:46Z</time>
      </trkpt>
      <trkpt lat="46.82783" lon="4.76163">
        <ele>201.752522</ele>
        <time>2011-01-29T15:15:48Z</time>
      </trkpt>
      <trkpt lat="46.82775" lon="4.76175">
        <ele>198.688389</ele>
        <time>2011-01-29T15:15:51Z</time>
      </trkpt>
      <trkpt lat="46.82766" lon="4.76187">
        <ele>196.108982</ele>
        <time>2011-01-29T15:15:54Z</time>
      </trkpt>
      <trkpt lat="46.82759" lon="4.76199">
        <ele>194.182006</ele>
        <time>2011-01-29T15:15:56Z</time>
      </trkpt>
      <trkpt lat="46.82749" lon="4.76218">
        <ele>193.084504</ele>
        <time>2011-01-29T15:15:59Z</time>
      </trkpt>
      <trkpt lat="46.8274" lon="4.76234">
        <ele>192.735498</ele>
        <time>2011-01-29T15:16:02Z</time>
      </trkpt>
      <trkpt lat="46.82732" lon="4.76248">
        <ele>192.178975</ele>
        <time>2011-01-29T15:16:05Z</time>
      </trkpt>
      <trkpt lat="46.82725" lon="4.76262">
        <ele>190.286962</ele>
        <time>2011-01-29T15:16:07Z</time>
      </trkpt>
      <trkpt lat="46.82713" lon="4.76288">
        <ele>187.493478</ele>
        <time>2011-01-29T15:16:10Z</time>
      </trkpt>
      <trkpt lat="46.82706" lon="4.76321">
        <ele>185.401725</ele>
        <time>2011-01-29T15:16:13Z</time>
      </trkpt>
      <trkpt lat="46.82703" lon="4.76344">
        <ele>184.624724</ele>
        <time>2011-01-29T15:16:15Z</time>
      </trkpt>
      <trkpt lat="46.82699" lon="4.7638">
        <ele>184.865488</ele>
        <time>2011-01-29T15:16:18Z</time>
      </trkpt>
      <trkpt lat="46.82696" lon="4.764">
        <ele>185.951647</ele>
        <time>2011-01-29T15:16:21Z</time>
      </trkpt>
      <trkpt lat="46.82689" lon="4.76419">
        <ele>187.409385</ele>
        <time>2011-01-29T15:16:24Z</time>
      </trkpt>
      <trkpt lat="46.82671" lon="4.76436">
        <ele>188.455465</ele>
        <time>2011-01-29T15:16:27Z</time>
      </trkpt>
      <trkpt lat="46.8265" lon="4.76452">
        <ele>188.909613</ele>
        <time>2011-01-29T15:16:30Z</time>
      </trkpt>
      <trkpt lat="46.82634" lon="4.76461">
        <ele>189.126831</ele>
        <time>2011-01-29T15:16:33Z</time>
      </trkpt>
      <trkpt lat="46.82625" lon="4.76465">
        <ele>189.281135</ele>
        <time>2011-01-29T15:16:35Z</time>
      </trkpt>
      <trkpt lat="46.82613" lon="4.76471">
        <ele>189.355511</ele>
        <time>2011-01-29T15:16:38Z</time>
      </trkpt>
      <trkpt lat="46.82604" lon="4.76474">
        <ele>189.541067</ele>
        <time>2011-01-29T15:16:41Z</time>
      </trkpt>
      <trkpt lat="46.82594" lon="4.76478">
        <ele>190.110169</ele>
        <time>2011-01-29T15:16:44Z</time>
      </trkpt>
      <trkpt lat="46.82584" lon="4.76481">
        <ele>191.080401</ele>
        <time>2011-01-29T15:16:47Z</time>
      </trkpt>
      <trkpt lat="46.82584" lon="4.76481">
        <ele>192.114676</ele>
        <time>2011-01-29T15:16:51Z</time>
      </trkpt>
      <trkpt lat="46.82572" lon="4.76458">
        <ele>192.925695</ele>
        <time>2011-01-29T15:16:57Z</time>
      </trkpt>
      <trkpt lat="46.82571" lon="4.76444">
        <ele>193.565012</ele>
        <time>2011-01-29T15:17:01Z</time>
      </trkpt>
      <trkpt lat="46.82564" lon="4.76432">
        <ele>194.181153</ele>
        <time>2011-01-29T15:17:05Z</time>
      </trkpt>
      <trkpt lat="46.82554" lon="4.76423">
        <ele>194.881997</ele>
        <time>2011-01-29T15:17:09Z</time>
      </trkpt>
      <trkpt lat="46.82545" lon="4.76416">
        <ele>195.766808</ele>
        <time>2011-01-29T15:17:13Z</time>
      </trkpt>
      <trkpt lat="46.82535" lon="4.76408">
        <ele>196.716333</ele>
        <time>2011-01-29T15:17:17Z</time>
      </trkpt>
      <trkpt lat="46.82535" lon="4.76408">
        <ele>197.468837</ele>
        <time>2011-01-29T15:17:19Z</time>
      </trkpt>
      <trkpt lat="46.82509" lon="4.76381">
        <ele>197.956834</ele>
        <time>2011-01-29T15:17:30Z</time>
      </trkpt>
      <trkpt lat="46.82509" lon="4.76381">
        <ele>198.279358</ele>
        <time>2011-01-29T15:17:34Z</time>
      </trkpt>
      <trkpt lat="46.82483" lon="4.76363">
        <ele>198.545637</ele>
        <time>2011-01-29T15:17:43Z</time>
      </trkpt>
      <trkpt lat="46.82483" lon="4.76363">
        <ele>198.785595</ele>
        <time>2011-01-29T15:17:47Z</time>
      </trkpt>
      <trkpt lat="46.82455" lon="4.76351">
        <ele>198.998009</ele>
        <time>2011-01-29T15:17:59Z</time>
      </trkpt>
      <trkpt lat="46.82446" lon="4.76343">
        <ele>199.178297</ele>
        <time>2011-01-29T15:18:04Z</time>
      </trkpt>
      <trkpt lat="46.82438" lon="4.76337">
        <ele>199.39201</ele>
        <time>2011-01-29T15:18:08Z</time>
      </trkpt>
      <trkpt lat="46.82428" lon="4.76328">
        <ele>199.760239</ele>
        <time>2011-01-29T15:18:13Z</time>
      </trkpt>
      <trkpt lat="46.8242" lon="4.76317">
        <ele>200.300407</ele>
        <time>2011-01-29T15:18:18Z</time>
      </trkpt>
      <trkpt lat="46.82412" lon="4.76306">
        <ele>200.822166</ele>
        <time>2011-01-29T15:18:23Z</time>
      </trkpt>
      <trkpt lat="46.82404" lon="4.76296">
        <ele>201.196084</ele>
        <time>2011-01-29T15:18:26Z</time>
      </trkpt>
      <trkpt lat="46.82404" lon="4.76296">
        <ele>201.435538</ele>
        <time>2011-01-29T15:18:28Z</time>
      </trkpt>
      <trkpt lat="46.82376" lon="4.76275">
        <ele>201.59597</ele>
        <time>2011-01-29T15:18:39Z</time>
      </trkpt>
      <trkpt lat="46.82376" lon="4.76275">
        <ele>201.733316</ele>
        <time>2011-01-29T15:18:43Z</time>
      </trkpt>
      <trkpt lat="46.82345" lon="4.76265">
        <ele>201.857086</ele>
        <time>2011-01-29T15:18:54Z</time>
      </trkpt>
      <trkpt lat="46.82337" lon="4.76277">
        <ele>201.948732</ele>
        <time>2011-01-29T15:18:57Z</time>
      </trkpt>
      <trkpt lat="46.82333" lon="4.76297">
        <ele>201.962618</ele>
        <time>2011-01-29T15:19:00Z</time>
      </trkpt>
      <trkpt lat="46.8233" lon="4.76314">
        <ele>201.824613</ele>
        <time>2011-01-29T15:19:02Z</time>
      </trkpt>
      <trkpt lat="46.82324" lon="4.76342">
        <ele>201.58782</ele>
        <time>2011-01-29T15:19:05Z</time>
      </trkpt>
      <trkpt lat="46.82319" lon="4.76362">
        <ele>200.765061</ele>
        <time>2011-01-29T15:19:07Z</time>
      </trkpt>
      <trkpt lat="46.82313" lon="4.76397">
        <ele>198.715059</ele>
        <time>2011-01-29T15:19:10Z</time>
      </trkpt>
      <trkpt lat="46.8231" lon="4.76421">
        <ele>195.912161</ele>
        <time>2011-01-29T15:19:12Z</time>
      </trkpt>
      <trkpt lat="46.82304" lon="4.76456">
        <ele>193.474411</ele>
        <time>2011-01-29T15:19:15Z</time>
      </trkpt>
      <trkpt lat="46.823" lon="4.76491">
        <ele>191.887007</ele>
        <time>2011-01-29T15:19:18Z</time>
      </trkpt>
      <trkpt lat="46.82297" lon="4.76516">
        <ele>191.053022</ele>
        <time>2011-01-29T15:19:20Z</time>
      </trkpt>
      <trkpt lat="46.82293" lon="4.76555">
        <ele>190.65681</ele>
        <time>2011-01-29T15:19:23Z</time>
      </trkpt>
      <trkpt lat="46.82287" lon="4.76593">
        <ele>190.481374</ele>
        <time>2011-01-29T15:19:26Z</time>
      </trkpt>
      <trkpt lat="46.82281" lon="4.7663">
        <ele>190.392571</ele>
        <time>2011-01-29T15:19:29Z</time>
      </trkpt>
      <trkpt lat="46.82278" lon="4.76654">
        <ele>190.236894</ele>
        <time>2011-01-29T15:19:31Z</time>
      </trkpt>
      <trkpt lat="46.82269" lon="4.76688">
        <ele>189.893069</ele>
        <time>2011-01-29T15:19:34Z</time>
      </trkpt>
      <trkpt lat="46.82264" lon="4.7671">
        <ele>189.34691</ele>
        <time>2011-01-29T15:19:36Z</time>
      </trkpt>
      <trkpt lat="46.8226" lon="4.76731">
        <ele>188.702078</ele>
        <time>2011-01-29T15:19:38Z</time>
      </trkpt>
      <trkpt lat="46.82257" lon="4.76751">
        <ele>188.129092</ele>
        <time>2011-01-29T15:19:40Z</time>
      </trkpt>
      <trkpt lat="46.82254" lon="4.7677">
        <ele>187.710293</ele>
        <time>2011-01-29T15:19:42Z</time>
      </trkpt>
      <trkpt lat="46.82251" lon="4.76796">
        <ele>187.405179</ele>
        <time>2011-01-29T15:19:45Z</time>
      </trkpt>
      <trkpt lat="46.82249" lon="4.76814">
        <ele>187.192405</ele>
        <time>2011-01-29T15:19:47Z</time>
      </trkpt>
      <trkpt lat="46.82247" lon="4.7683">
        <ele>186.954718</ele>
        <time>2011-01-29T15:19:49Z</time>
      </trkpt>
      <trkpt lat="46.82244" lon="4.76854">
        <ele>186.491217</ele>
        <time>2011-01-29T15:19:52Z</time>
      </trkpt>
      <trkpt lat="46.82242" lon="4.76869">
        <ele>185.820146</ele>
        <time>2011-01-29T15:19:54Z</time>
      </trkpt>
      <trkpt lat="46.82239" lon="4.76892">
        <ele>185.132558</ele>
        <time>2011-01-29T15:19:57Z</time>
      </trkpt>
      <trkpt lat="46.82237" lon="4.76906">
        <ele>184.405777</ele>
        <time>2011-01-29T15:19:59Z</time>
      </trkpt>
      <trkpt lat="46.82235" lon="4.76921">
        <ele>183.49201</ele>
        <time>2011-01-29T15:20:01Z</time>
      </trkpt>
      <trkpt lat="46.82231" lon="4.76944">
        <ele>182.373195</ele>
        <time>2011-01-29T15:20:04Z</time>
      </trkpt>
      <trkpt lat="46.82229" lon="4.7696">
        <ele>181.28431</ele>
        <time>2011-01-29T15:20:06Z</time>
      </trkpt>
      <trkpt lat="46.82225" lon="4.76985">
        <ele>180.557848</ele>
        <time>2011-01-29T15:20:09Z</time>
      </trkpt>
      <trkpt lat="46.82222" lon="4.77009">
        <ele>180.237649</ele>
        <time>2011-01-29T15:20:12Z</time>
      </trkpt>
      <trkpt lat="46.82219" lon="4.77025">
        <ele>180.097605</ele>
        <time>2011-01-29T15:20:14Z</time>
      </trkpt>
      <trkpt lat="46.82217" lon="4.7704">
        <ele>179.987652</ele>
        <time>2011-01-29T15:20:16Z</time>
      </trkpt>
      <trkpt lat="46.82214" lon="4.77057">
        <ele>179.759978</ele>
        <time>2011-01-29T15:20:18Z</time>
      </trkpt>
      <trkpt lat="46.82211" lon="4.77074">
        <ele>179.303533</ele>
        <time>2011-01-29T15:20:20Z</time>
      </trkpt>
      <trkpt lat="46.82208" lon="4.77091">
        <ele>178.71033</ele>
        <time>2011-01-29T15:20:22Z</time>
      </trkpt>
      <trkpt lat="46.82204" lon="4.77118">
        <ele>178.067396</ele>
        <time>2011-01-29T15:20:25Z</time>
      </trkpt>
      <trkpt lat="46.82201" lon="4.77135">
        <ele>177.372717</ele>
        <time>2011-01-29T15:20:27Z</time>
      </trkpt>
      <trkpt lat="46.82195" lon="4.77161">
        <ele>176.747133</ele>
        <time>2011-01-29T15:20:30Z</time>
      </trkpt>
      <trkpt lat="46.82191" lon="4.77185">
        <ele>176.212552</ele>
        <time>2011-01-29T15:20:33Z</time>
      </trkpt>
      <trkpt lat="46.82188" lon="4.772">
        <ele>175.620177</ele>
        <time>2011-01-29T15:20:35Z</time>
      </trkpt>
      <trkpt lat="46.82184" lon="4.77223">
        <ele>175.02957</ele>
        <time>2011-01-29T15:20:38Z</time>
      </trkpt>
      <trkpt lat="46.82181" lon="4.77246">
        <ele>174.622377</ele>
        <time>2011-01-29T15:20:41Z</time>
      </trkpt>
      <trkpt lat="46.82178" lon="4.77269">
        <ele>174.364307</ele>
        <time>2011-01-29T15:20:44Z</time>
      </trkpt>
      <trkpt lat="46.82173" lon="4.77292">
        <ele>173.853694</ele>
        <time>2011-01-29T15:20:47Z</time>
      </trkpt>
      <trkpt lat="46.8217" lon="4.77306">
        <ele>172.683826</ele>
        <time>2011-01-29T15:20:49Z</time>
      </trkpt>
      <trkpt lat="46.82166" lon="4.77326">
        <ele>170.992592</ele>
        <time>2011-01-29T15:20:52Z</time>
      </trkpt>
      <trkpt lat="46.82162" lon="4.77346">
        <ele>169.410951</ele>
        <time>2011-01-29T15:20:55Z</time>
      </trkpt>
      <trkpt lat="46.82158" lon="4.77366">
        <ele>168.446351</ele>
        <time>2011-01-29T15:20:58Z</time>
      </trkpt>
      <trkpt lat="46.82156" lon="4.77389">
        <ele>168.122264</ele>
        <time>2011-01-29T15:21:01Z</time>
      </trkpt>
      <trkpt lat="46.82155" lon="4.77411">
        <ele>168.084209</ele>
        <time>2011-01-29T15:21:04Z</time>
      </trkpt>
      <trkpt lat="46.82152" lon="4.7743">
        <ele>167.955563</ele>
        <time>2011-01-29T15:21:07Z</time>
      </trkpt>
      <trkpt lat="46.8215" lon="4.77449">
        <ele>167.487646</ele>
        <time>2011-01-29T15:21:10Z</time>
      </trkpt>
      <trkpt lat="46.82148" lon="4.77462">
        <ele>166.792397</ele>
        <time>2011-01-29T15:21:12Z</time>
      </trkpt>
      <trkpt lat="46.82145" lon="4.7748">
        <ele>166.247302</ele>
        <time>2011-01-29T15:21:15Z</time>
      </trkpt>
      <trkpt lat="46.82141" lon="4.77499">
        <ele>166.030339</ele>
        <time>2011-01-29T15:21:18Z</time>
      </trkpt>
      <trkpt lat="46.82139" lon="4.77513">
        <ele>166.022501</ele>
        <time>2011-01-29T15:21:20Z</time>
      </trkpt>
      <trkpt lat="46.82136" lon="4.77533">
        <ele>166.169582</ele>
        <time>2011-01-29T15:21:23Z</time>
      </trkpt>
      <trkpt lat="46.82133" lon="4.77546">
        <ele>166.523103</ele>
        <time>2011-01-29T15:21:25Z</time>
      </trkpt>
      <trkpt lat="46.82127" lon="4.77566">
        <ele>166.999342</ele>
        <time>2011-01-29T15:21:28Z</time>
      </trkpt>
      <trkpt lat="46.82122" lon="4.77589">
        <ele>167.400001</ele>
        <time>2011-01-29T15:21:31Z</time>
      </trkpt>
      <trkpt lat="46.82118" lon="4.77606">
        <ele>167.62959</ele>
        <time>2011-01-29T15:21:33Z</time>
      </trkpt>
      <trkpt lat="46.82113" lon="4.77631">
        <ele>167.733032</ele>
        <time>2011-01-29T15:21:36Z</time>
      </trkpt>
      <trkpt lat="46.82109" lon="4.77655">
        <ele>167.806693</ele>
        <time>2011-01-29T15:21:39Z</time>
      </trkpt>
      <trkpt lat="46.82105" lon="4.7767">
        <ele>167.904651</ele>
        <time>2011-01-29T15:21:41Z</time>
      </trkpt>
      <trkpt lat="46.82101" lon="4.77685">
        <ele>168.021851</ele>
        <time>2011-01-29T15:21:43Z</time>
      </trkpt>
      <trkpt lat="46.82097" lon="4.77699">
        <ele>168.209649</ele>
        <time>2011-01-29T15:21:45Z</time>
      </trkpt>
      <trkpt lat="46.82093" lon="4.77715">
        <ele>168.629973</ele>
        <time>2011-01-29T15:21:48Z</time>
      </trkpt>
      <trkpt lat="46.82093" lon="4.77715">
        <ele>169.244086</ele>
        <time>2011-01-29T15:21:49Z</time>
      </trkpt>
      <trkpt lat="46.82086" lon="4.77738">
        <ele>169.833707</ele>
        <time>2011-01-29T15:21:55Z</time>
      </trkpt>
      <trkpt lat="46.82083" lon="4.7775">
        <ele>170.353263</ele>
        <time>2011-01-29T15:21:57Z</time>
      </trkpt>
      <trkpt lat="46.8208" lon="4.77764">
        <ele>170.834531</ele>
        <time>2011-01-29T15:21:59Z</time>
      </trkpt>
      <trkpt lat="46.82077" lon="4.77788">
        <ele>171.255559</ele>
        <time>2011-01-29T15:22:02Z</time>
      </trkpt>
      <trkpt lat="46.82075" lon="4.77803">
        <ele>171.643293</ele>
        <time>2011-01-29T15:22:04Z</time>
      </trkpt>
      <trkpt lat="46.82071" lon="4.77826">
        <ele>172.144015</ele>
        <time>2011-01-29T15:22:07Z</time>
      </trkpt>
      <trkpt lat="46.82069" lon="4.77841">
        <ele>173.06385</ele>
        <time>2011-01-29T15:22:09Z</time>
      </trkpt>
      <trkpt lat="46.82064" lon="4.77865">
        <ele>174.412434</ele>
        <time>2011-01-29T15:22:12Z</time>
      </trkpt>
      <trkpt lat="46.82062" lon="4.77882">
        <ele>175.732083</ele>
        <time>2011-01-29T15:22:14Z</time>
      </trkpt>
      <trkpt lat="46.82058" lon="4.77907">
        <ele>176.65585</ele>
        <time>2011-01-29T15:22:17Z</time>
      </trkpt>
      <trkpt lat="46.82055" lon="4.77923">
        <ele>177.16209</ele>
        <time>2011-01-29T15:22:19Z</time>
      </trkpt>
      <trkpt lat="46.8205" lon="4.77946">
        <ele>177.389571</ele>
        <time>2011-01-29T15:22:22Z</time>
      </trkpt>
      <trkpt lat="46.82046" lon="4.7797">
        <ele>177.535248</ele>
        <time>2011-01-29T15:22:25Z</time>
      </trkpt>
      <trkpt lat="46.82044" lon="4.77986">
        <ele>177.70982</ele>
        <time>2011-01-29T15:22:27Z</time>
      </trkpt>
      <trkpt lat="46.8204" lon="4.78009">
        <ele>177.872882</ele>
        <time>2011-01-29T15:22:30Z</time>
      </trkpt>
      <trkpt lat="46.82037" lon="4.78025">
        <ele>177.95957</ele>
        <time>2011-01-29T15:22:32Z</time>
      </trkpt>
      <trkpt lat="46.82031" lon="4.78049">
        <ele>177.978296</ele>
        <time>2011-01-29T15:22:35Z</time>
      </trkpt>
      <trkpt lat="46.82027" lon="4.78065">
        <ele>178.032791</ele>
        <time>2011-01-29T15:22:37Z</time>
      </trkpt>
      <trkpt lat="46.82022" lon="4.78091">
        <ele>178.201974</ele>
        <time>2011-01-29T15:22:40Z</time>
      </trkpt>
      <trkpt lat="46.8202" lon="4.78119">
        <ele>178.509988</ele>
        <time>2011-01-29T15:22:43Z</time>
      </trkpt>
      <trkpt lat="46.82018" lon="4.78135">
        <ele>178.905065</ele>
        <time>2011-01-29T15:22:45Z</time>
      </trkpt>
      <trkpt lat="46.82014" lon="4.78161">
        <ele>179.221674</ele>
        <time>2011-01-29T15:22:48Z</time>
      </trkpt>
      <trkpt lat="46.82012" lon="4.78178">
        <ele>179.347186</ele>
        <time>2011-01-29T15:22:50Z</time>
      </trkpt>
      <trkpt lat="46.82011" lon="4.78204">
        <ele>179.25814</ele>
        <time>2011-01-29T15:22:53Z</time>
      </trkpt>
      <trkpt lat="46.8201" lon="4.7822">
        <ele>178.972128</ele>
        <time>2011-01-29T15:22:55Z</time>
      </trkpt>
      <trkpt lat="46.82005" lon="4.78243">
        <ele>178.639714</ele>
        <time>2011-01-29T15:22:58Z</time>
      </trkpt>
      <trkpt lat="46.82001" lon="4.78267">
        <ele>178.321971</ele>
        <time>2011-01-29T15:23:01Z</time>
      </trkpt>
      <trkpt lat="46.81997" lon="4.78294">
        <ele>177.928516</ele>
        <time>2011-01-29T15:23:04Z</time>
      </trkpt>
      <trkpt lat="46.81994" lon="4.78311">
        <ele>177.378</ele>
        <time>2011-01-29T15:23:06Z</time>
      </trkpt>
      <trkpt lat="46.8199" lon="4.78337">
        <ele>176.712637</ele>
        <time>2011-01-29T15:23:09Z</time>
      </trkpt>
      <trkpt lat="46.81989" lon="4.78355">
        <ele>176.150574</ele>
        <time>2011-01-29T15:23:11Z</time>
      </trkpt>
      <trkpt lat="46.81986" lon="4.78383">
        <ele>175.741354</ele>
        <time>2011-01-29T15:23:14Z</time>
      </trkpt>
      <trkpt lat="46.81983" lon="4.78411">
        <ele>175.249638</ele>
        <time>2011-01-29T15:23:17Z</time>
      </trkpt>
      <trkpt lat="46.81979" lon="4.78437">
        <ele>174.61662</ele>
        <time>2011-01-29T15:23:20Z</time>
      </trkpt>
      <trkpt lat="46.81975" lon="4.78463">
        <ele>174.012357</ele>
        <time>2011-01-29T15:23:23Z</time>
      </trkpt>
      <trkpt lat="46.81974" lon="4.78481">
        <ele>173.560187</ele>
        <time>2011-01-29T15:23:25Z</time>
      </trkpt>
      <trkpt lat="46.81969" lon="4.78508">
        <ele>173.299584</ele>
        <time>2011-01-29T15:23:28Z</time>
      </trkpt>
      <trkpt lat="46.81964" lon="4.78534">
        <ele>173.210827</ele>
        <time>2011-01-29T15:23:31Z</time>
      </trkpt>
      <trkpt lat="46.81961" lon="4.78552">
        <ele>173.186914</ele>
        <time>2011-01-29T15:23:33Z</time>
      </trkpt>
      <trkpt lat="46.81959" lon="4.7857">
        <ele>173.137335</ele>
        <time>2011-01-29T15:23:35Z</time>
      </trkpt>
      <trkpt lat="46.81954" lon="4.78597">
        <ele>173.068561</ele>
        <time>2011-01-29T15:23:38Z</time>
      </trkpt>
      <trkpt lat="46.8195" lon="4.78623">
        <ele>172.981712</ele>
        <time>2011-01-29T15:23:41Z</time>
      </trkpt>
      <trkpt lat="46.81948" lon="4.7864">
        <ele>172.764876</ele>
        <time>2011-01-29T15:23:43Z</time>
      </trkpt>
      <trkpt lat="46.81944" lon="4.78666">
        <ele>172.345827</ele>
        <time>2011-01-29T15:23:46Z</time>
      </trkpt>
      <trkpt lat="46.81941" lon="4.78692">
        <ele>171.794893</ele>
        <time>2011-01-29T15:23:49Z</time>
      </trkpt>
      <trkpt lat="46.81938" lon="4.78708">
        <ele>171.245531</ele>
        <time>2011-01-29T15:23:51Z</time>
      </trkpt>
      <trkpt lat="46.81935" lon="4.78723">
        <ele>170.68371</ele>
        <time>2011-01-29T15:23:53Z</time>
      </trkpt>
      <trkpt lat="46.8193" lon="4.78744">
        <ele>169.944439</ele>
        <time>2011-01-29T15:23:56Z</time>
      </trkpt>
      <trkpt lat="46.81927" lon="4.78763">
        <ele>169.004205</ele>
        <time>2011-01-29T15:23:59Z</time>
      </trkpt>
      <trkpt lat="46.81923" lon="4.78778">
        <ele>168.074032</ele>
        <time>2011-01-29T15:24:02Z</time>
      </trkpt>
      <trkpt lat="46.81919" lon="4.78793">
        <ele>167.370425</ele>
        <time>2011-01-29T15:24:06Z</time>
      </trkpt>
      <trkpt lat="46.81916" lon="4.78809">
        <ele>166.996536</ele>
        <time>2011-01-29T15:24:09Z</time>
      </trkpt>
      <trkpt lat="46.81913" lon="4.78824">
        <ele>166.8998</ele>
        <time>2011-01-29T15:24:12Z</time>
      </trkpt>
      <trkpt lat="46.81909" lon="4.78842">
        <ele>166.933588</ele>
        <time>2011-01-29T15:24:15Z</time>
      </trkpt>
      <trkpt lat="46.81905" lon="4.78859">
        <ele>167.008316</ele>
        <time>2011-01-29T15:24:18Z</time>
      </trkpt>
      <trkpt lat="46.81902" lon="4.78872">
        <ele>167.143014</ele>
        <time>2011-01-29T15:24:20Z</time>
      </trkpt>
      <trkpt lat="46.81898" lon="4.78891">
        <ele>167.443739</ele>
        <time>2011-01-29T15:24:23Z</time>
      </trkpt>
      <trkpt lat="46.81895" lon="4.78907">
        <ele>167.93049</ele>
        <time>2011-01-29T15:24:26Z</time>
      </trkpt>
      <trkpt lat="46.81892" lon="4.78923">
        <ele>168.443662</ele>
        <time>2011-01-29T15:24:29Z</time>
      </trkpt>
      <trkpt lat="46.81889" lon="4.78936">
        <ele>168.862447</ele>
        <time>2011-01-29T15:24:32Z</time>
      </trkpt>
      <trkpt lat="46.81886" lon="4.7895">
        <ele>169.240744</ele>
        <time>2011-01-29T15:24:35Z</time>
      </trkpt>
      <trkpt lat="46.81882" lon="4.78963">
        <ele>169.65625</ele>
        <time>2011-01-29T15:24:38Z</time>
      </trkpt>
      <trkpt lat="46.81878" lon="4.78977">
        <ele>170.140976</ele>
        <time>2011-01-29T15:24:41Z</time>
      </trkpt>
      <trkpt lat="46.81874" lon="4.78989">
        <ele>170.713569</ele>
        <time>2011-01-29T15:24:43Z</time>
      </trkpt>
      <trkpt lat="46.81869" lon="4.79005">
        <ele>171.374981</ele>
        <time>2011-01-29T15:24:46Z</time>
      </trkpt>
      <trkpt lat="46.81864" lon="4.79021">
        <ele>172.116323</ele>
        <time>2011-01-29T15:24:49Z</time>
      </trkpt>
      <trkpt lat="46.81862" lon="4.79037">
        <ele>172.947954</ele>
        <time>2011-01-29T15:24:52Z</time>
      </trkpt>
      <trkpt lat="46.81858" lon="4.79055">
        <ele>173.921948</ele>
        <time>2011-01-29T15:24:55Z</time>
      </trkpt>
      <trkpt lat="46.81855" lon="4.79072">
        <ele>175.011005</ele>
        <time>2011-01-29T15:24:58Z</time>
      </trkpt>
      <trkpt lat="46.81851" lon="4.79087">
        <ele>176.036313</ele>
        <time>2011-01-29T15:25:01Z</time>
      </trkpt>
      <trkpt lat="46.81846" lon="4.79101">
        <ele>176.858721</ele>
        <time>2011-01-29T15:25:04Z</time>
      </trkpt>
      <trkpt lat="46.81839" lon="4.79121">
        <ele>177.528047</ele>
        <time>2011-01-29T15:25:07Z</time>
      </trkpt>
      <trkpt lat="46.81834" lon="4.79136">
        <ele>178.160916</ele>
        <time>2011-01-29T15:25:10Z</time>
      </trkpt>
      <trkpt lat="46.81831" lon="4.7915">
        <ele>178.831846</ele>
        <time>2011-01-29T15:25:13Z</time>
      </trkpt>
      <trkpt lat="46.81827" lon="4.79164">
        <ele>179.648238</ele>
        <time>2011-01-29T15:25:17Z</time>
      </trkpt>
      <trkpt lat="46.81827" lon="4.79164">
        <ele>180.543615</ele>
        <time>2011-01-29T15:25:19Z</time>
      </trkpt>
      <trkpt lat="46.81827" lon="4.79164">
        <ele>181.183247</ele>
        <time>2011-01-29T15:25:59Z</time>
      </trkpt>
      <trkpt lat="46.81831" lon="4.79205">
        <ele>181.615518</ele>
        <time>2011-01-29T15:27:00Z</time>
      </trkpt>
      <trkpt lat="46.81839" lon="4.79214">
        <ele>182.331286</ele>
        <time>2011-01-29T15:27:03Z</time>
      </trkpt>
      <trkpt lat="46.81839" lon="4.79214">
        <ele>183.305826</ele>
        <time>2011-01-29T15:27:17Z</time>
      </trkpt>
      <trkpt lat="46.81839" lon="4.79214">
        <ele>183.881437</ele>
        <time>2011-01-29T15:28:29Z</time>
      </trkpt>
      <trkpt lat="46.81818" lon="4.7921">
        <ele>183.770109</ele>
        <time>2011-01-29T15:30:03Z</time>
      </trkpt>
      <trkpt lat="46.81818" lon="4.7921">
        <ele>183.442691</ele>
        <time>2011-01-29T15:30:14Z</time>
      </trkpt>
      <trkpt lat="46.81841" lon="4.79221">
        <ele>184.2578</ele>
        <time>2011-01-29T15:30:31Z</time>
      </trkpt>
      <trkpt lat="46.81841" lon="4.79221">
        <ele>185.872058</ele>
        <time>2011-01-29T15:30:39Z</time>
      </trkpt>
      <trkpt lat="46.81841" lon="4.79221">
        <ele>186.202033</ele>
        <time>2011-01-29T15:31:00Z</time>
      </trkpt>
      <trkpt lat="46.81835" lon="4.79192">
        <ele>185.369921</ele>
        <time>2011-01-29T15:32:34Z</time>
      </trkpt>
      <trkpt lat="46.81827" lon="4.79186">
        <ele>186.562422</ele>
        <time>2011-01-29T15:32:38Z</time>
      </trkpt>
      <trkpt lat="46.81816" lon="4.79179">
        <ele>190.582557</ele>
        <time>2011-01-29T15:32:43Z</time>
      </trkpt>
      <trkpt lat="46.81805" lon="4.79175">
        <ele>194.554023</ele>
        <time>2011-01-29T15:32:47Z</time>
      </trkpt>
      <trkpt lat="46.81795" lon="4.79171">
        <ele>196.203932</ele>
        <time>2011-01-29T15:32:50Z</time>
      </trkpt>
      <trkpt lat="46.81783" lon="4.79166">
        <ele>196.169852</ele>
        <time>2011-01-29T15:32:53Z</time>
      </trkpt>
      <trkpt lat="46.81768" lon="4.79161">
        <ele>195.596833</ele>
        <time>2011-01-29T15:32:56Z</time>
      </trkpt>
      <trkpt lat="46.81749" lon="4.79156">
        <ele>195.120411</ele>
        <time>2011-01-29T15:32:59Z</time>
      </trkpt>
      <trkpt lat="46.81728" lon="4.79158">
        <ele>194.766693</ele>
        <time>2011-01-29T15:33:02Z</time>
      </trkpt>
      <trkpt lat="46.81715" lon="4.79157">
        <ele>194.412252</ele>
        <time>2011-01-29T15:33:04Z</time>
      </trkpt>
      <trkpt lat="46.81702" lon="4.79156">
        <ele>193.367697</ele>
        <time>2011-01-29T15:33:06Z</time>
      </trkpt>
      <trkpt lat="46.81686" lon="4.79153">
        <ele>190.736236</ele>
        <time>2011-01-29T15:33:09Z</time>
      </trkpt>
      <trkpt lat="46.81677" lon="4.79152">
        <ele>187.095705</ele>
        <time>2011-01-29T15:33:11Z</time>
      </trkpt>
      <trkpt lat="46.81665" lon="4.79149">
        <ele>184.026631</ele>
        <time>2011-01-29T15:33:14Z</time>
      </trkpt>
      <trkpt lat="46.81653" lon="4.79147">
        <ele>182.062861</ele>
        <time>2011-01-29T15:33:17Z</time>
      </trkpt>
      <trkpt lat="46.81638" lon="4.79148">
        <ele>180.863518</ele>
        <time>2011-01-29T15:33:20Z</time>
      </trkpt>
      <trkpt lat="46.81625" lon="4.7915">
        <ele>180.210812</ele>
        <time>2011-01-29T15:33:23Z</time>
      </trkpt>
      <trkpt lat="46.81613" lon="4.79151">
        <ele>179.874347</ele>
        <time>2011-01-29T15:33:26Z</time>
      </trkpt>
      <trkpt lat="46.81602" lon="4.7915">
        <ele>179.035584</ele>
        <time>2011-01-29T15:33:29Z</time>
      </trkpt>
      <trkpt lat="46.81591" lon="4.79148">
        <ele>177.10881</ele>
        <time>2011-01-29T15:33:32Z</time>
      </trkpt>
      <trkpt lat="46.81579" lon="4.79146">
        <ele>174.860958</ele>
        <time>2011-01-29T15:33:35Z</time>
      </trkpt>
      <trkpt lat="46.81566" lon="4.79143">
        <ele>173.453514</ele>
        <time>2011-01-29T15:33:38Z</time>
      </trkpt>
      <trkpt lat="46.81556" lon="4.7914">
        <ele>173.035627</ele>
        <time>2011-01-29T15:33:40Z</time>
      </trkpt>
      <trkpt lat="46.8154" lon="4.79138">
        <ele>173.241884</ele>
        <time>2011-01-29T15:33:43Z</time>
      </trkpt>
      <trkpt lat="46.81523" lon="4.79138">
        <ele>173.82141</ele>
        <time>2011-01-29T15:33:46Z</time>
      </trkpt>
      <trkpt lat="46.81506" lon="4.79139">
        <ele>174.473552</ele>
        <time>2011-01-29T15:33:49Z</time>
      </trkpt>
      <trkpt lat="46.81495" lon="4.79139">
        <ele>174.882836</ele>
        <time>2011-01-29T15:33:51Z</time>
      </trkpt>
      <trkpt lat="46.81483" lon="4.79138">
        <ele>175.004793</ele>
        <time>2011-01-29T15:33:53Z</time>
      </trkpt>
      <trkpt lat="46.81472" lon="4.79136">
        <ele>174.921597</ele>
        <time>2011-01-29T15:33:55Z</time>
      </trkpt>
      <trkpt lat="46.81455" lon="4.79134">
        <ele>174.707041</ele>
        <time>2011-01-29T15:33:58Z</time>
      </trkpt>
      <trkpt lat="46.81437" lon="4.79134">
        <ele>174.445832</ele>
        <time>2011-01-29T15:34:01Z</time>
      </trkpt>
      <trkpt lat="46.81418" lon="4.79135">
        <ele>174.212121</ele>
        <time>2011-01-29T15:34:04Z</time>
      </trkpt>
      <trkpt lat="46.81406" lon="4.79136">
        <ele>174.062672</ele>
        <time>2011-01-29T15:34:06Z</time>
      </trkpt>
      <trkpt lat="46.81388" lon="4.79138">
        <ele>174.016882</ele>
        <time>2011-01-29T15:34:09Z</time>
      </trkpt>
      <trkpt lat="46.81371" lon="4.79142">
        <ele>174.083948</ele>
        <time>2011-01-29T15:34:12Z</time>
      </trkpt>
      <trkpt lat="46.81359" lon="4.79144">
        <ele>174.325911</ele>
        <time>2011-01-29T15:34:14Z</time>
      </trkpt>
      <trkpt lat="46.8134" lon="4.79147">
        <ele>174.830755</ele>
        <time>2011-01-29T15:34:17Z</time>
      </trkpt>
      <trkpt lat="46.81322" lon="4.79152">
        <ele>175.620598</ele>
        <time>2011-01-29T15:34:20Z</time>
      </trkpt>
      <trkpt lat="46.81309" lon="4.79158">
        <ele>176.453829</ele>
        <time>2011-01-29T15:34:22Z</time>
      </trkpt>
      <trkpt lat="46.81296" lon="4.79164">
        <ele>176.978685</ele>
        <time>2011-01-29T15:34:24Z</time>
      </trkpt>
      <trkpt lat="46.81277" lon="4.79174">
        <ele>177.135953</ele>
        <time>2011-01-29T15:34:27Z</time>
      </trkpt>
      <trkpt lat="46.81265" lon="4.79183">
        <ele>177.04057</ele>
        <time>2011-01-29T15:34:29Z</time>
      </trkpt>
      <trkpt lat="46.81253" lon="4.79193">
        <ele>176.790421</ele>
        <time>2011-01-29T15:34:31Z</time>
      </trkpt>
      <trkpt lat="46.81241" lon="4.79201">
        <ele>176.498545</ele>
        <time>2011-01-29T15:34:33Z</time>
      </trkpt>
      <trkpt lat="46.8123" lon="4.7921">
        <ele>176.184284</ele>
        <time>2011-01-29T15:34:35Z</time>
      </trkpt>
      <trkpt lat="46.81212" lon="4.79223">
        <ele>175.732945</ele>
        <time>2011-01-29T15:34:38Z</time>
      </trkpt>
      <trkpt lat="46.81195" lon="4.79234">
        <ele>175.163386</ele>
        <time>2011-01-29T15:34:41Z</time>
      </trkpt>
      <trkpt lat="46.81185" lon="4.79242">
        <ele>174.663963</ele>
        <time>2011-01-29T15:34:43Z</time>
      </trkpt>
      <trkpt lat="46.81169" lon="4.79252">
        <ele>174.36081</ele>
        <time>2011-01-29T15:34:46Z</time>
      </trkpt>
      <trkpt lat="46.81153" lon="4.79259">
        <ele>174.236418</ele>
        <time>2011-01-29T15:34:49Z</time>
      </trkpt>
      <trkpt lat="46.81143" lon="4.79261">
        <ele>174.224096</ele>
        <time>2011-01-29T15:34:51Z</time>
      </trkpt>
      <trkpt lat="46.81127" lon="4.79261">
        <ele>174.250271</ele>
        <time>2011-01-29T15:34:54Z</time>
      </trkpt>
      <trkpt lat="46.81111" lon="4.79262">
        <ele>174.317</ele>
        <time>2011-01-29T15:34:57Z</time>
      </trkpt>
      <trkpt lat="46.81094" lon="4.79265">
        <ele>174.528168</ele>
        <time>2011-01-29T15:35:00Z</time>
      </trkpt>
      <trkpt lat="46.81077" lon="4.7927">
        <ele>175.000408</ele>
        <time>2011-01-29T15:35:03Z</time>
      </trkpt>
      <trkpt lat="46.81066" lon="4.79274">
        <ele>175.778049</ele>
        <time>2011-01-29T15:35:05Z</time>
      </trkpt>
      <trkpt lat="46.81055" lon="4.79276">
        <ele>176.833183</ele>
        <time>2011-01-29T15:35:07Z</time>
      </trkpt>
      <trkpt lat="46.81044" lon="4.79277">
        <ele>178.122141</ele>
        <time>2011-01-29T15:35:09Z</time>
      </trkpt>
      <trkpt lat="46.81028" lon="4.79275">
        <ele>179.52492</ele>
        <time>2011-01-29T15:35:12Z</time>
      </trkpt>
      <trkpt lat="46.81018" lon="4.79274">
        <ele>180.705964</ele>
        <time>2011-01-29T15:35:14Z</time>
      </trkpt>
      <trkpt lat="46.81007" lon="4.79273">
        <ele>181.371008</ele>
        <time>2011-01-29T15:35:16Z</time>
      </trkpt>
      <trkpt lat="46.80997" lon="4.79271">
        <ele>181.599134</ele>
        <time>2011-01-29T15:35:18Z</time>
      </trkpt>
      <trkpt lat="46.80981" lon="4.79266">
        <ele>181.724547</ele>
        <time>2011-01-29T15:35:21Z</time>
      </trkpt>
      <trkpt lat="46.80964" lon="4.7926">
        <ele>181.98922</ele>
        <time>2011-01-29T15:35:24Z</time>
      </trkpt>
      <trkpt lat="46.80954" lon="4.79256">
        <ele>182.34492</ele>
        <time>2011-01-29T15:35:26Z</time>
      </trkpt>
      <trkpt lat="46.80938" lon="4.7925">
        <ele>182.644462</ele>
        <time>2011-01-29T15:35:29Z</time>
      </trkpt>
      <trkpt lat="46.80922" lon="4.79246">
        <ele>182.934581</ele>
        <time>2011-01-29T15:35:32Z</time>
      </trkpt>
      <trkpt lat="46.80911" lon="4.79243">
        <ele>183.300403</ele>
        <time>2011-01-29T15:35:34Z</time>
      </trkpt>
      <trkpt lat="46.80899" lon="4.79238">
        <ele>183.651967</ele>
        <time>2011-01-29T15:35:36Z</time>
      </trkpt>
      <trkpt lat="46.80889" lon="4.79233">
        <ele>184.075684</ele>
        <time>2011-01-29T15:35:38Z</time>
      </trkpt>
      <trkpt lat="46.80872" lon="4.79228">
        <ele>184.901716</ele>
        <time>2011-01-29T15:35:41Z</time>
      </trkpt>
      <trkpt lat="46.80853" lon="4.79226">
        <ele>186.230755</ele>
        <time>2011-01-29T15:35:44Z</time>
      </trkpt>
      <trkpt lat="46.80842" lon="4.79223">
        <ele>187.768083</ele>
        <time>2011-01-29T15:35:46Z</time>
      </trkpt>
      <trkpt lat="46.80832" lon="4.79217">
        <ele>189.030625</ele>
        <time>2011-01-29T15:35:48Z</time>
      </trkpt>
      <trkpt lat="46.80822" lon="4.79213">
        <ele>189.814036</ele>
        <time>2011-01-29T15:35:50Z</time>
      </trkpt>
      <trkpt lat="46.8081" lon="4.79209">
        <ele>190.296691</ele>
        <time>2011-01-29T15:35:53Z</time>
      </trkpt>
      <trkpt lat="46.80797" lon="4.79204">
        <ele>190.572728</ele>
        <time>2011-01-29T15:35:56Z</time>
      </trkpt>
      <trkpt lat="46.80784" lon="4.792">
        <ele>190.642779</ele>
        <time>2011-01-29T15:35:59Z</time>
      </trkpt>
      <trkpt lat="46.80769" lon="4.79195">
        <ele>190.515207</ele>
        <time>2011-01-29T15:36:02Z</time>
      </trkpt>
      <trkpt lat="46.80769" lon="4.79195">
        <ele>190.211097</ele>
        <time>2011-01-29T15:36:05Z</time>
      </trkpt>
      <trkpt lat="46.80731" lon="4.79196">
        <ele>189.69463</ele>
        <time>2011-01-29T15:36:18Z</time>
      </trkpt>
      <trkpt lat="46.80727" lon="4.79209">
        <ele>188.818743</ele>
        <time>2011-01-29T15:36:21Z</time>
      </trkpt>
      <trkpt lat="46.80723" lon="4.79225">
        <ele>187.401505</ele>
        <time>2011-01-29T15:36:24Z</time>
      </trkpt>
      <trkpt lat="46.80718" lon="4.79242">
        <ele>185.60012</ele>
        <time>2011-01-29T15:36:27Z</time>
      </trkpt>
      <trkpt lat="46.80713" lon="4.79262">
        <ele>184.044832</ele>
        <time>2011-01-29T15:36:30Z</time>
      </trkpt>
      <trkpt lat="46.80709" lon="4.79282">
        <ele>183.160301</ele>
        <time>2011-01-29T15:36:33Z</time>
      </trkpt>
      <trkpt lat="46.80704" lon="4.79303">
        <ele>182.565864</ele>
        <time>2011-01-29T15:36:36Z</time>
      </trkpt>
      <trkpt lat="46.80701" lon="4.79317">
        <ele>181.786103</ele>
        <time>2011-01-29T15:36:38Z</time>
      </trkpt>
      <trkpt lat="46.80698" lon="4.79331">
        <ele>180.840491</ele>
        <time>2011-01-29T15:36:40Z</time>
      </trkpt>
      <trkpt lat="46.80693" lon="4.79353">
        <ele>180.043383</ele>
        <time>2011-01-29T15:36:43Z</time>
      </trkpt>
      <trkpt lat="46.80688" lon="4.79375">
        <ele>179.566357</ele>
        <time>2011-01-29T15:36:46Z</time>
      </trkpt>
      <trkpt lat="46.80683" lon="4.79397">
        <ele>179.32212</ele>
        <time>2011-01-29T15:36:49Z</time>
      </trkpt>
      <trkpt lat="46.80679" lon="4.79411">
        <ele>178.987727</ele>
        <time>2011-01-29T15:36:51Z</time>
      </trkpt>
      <trkpt lat="46.80674" lon="4.79433">
        <ele>178.260301</ele>
        <time>2011-01-29T15:36:54Z</time>
      </trkpt>
      <trkpt lat="46.8067" lon="4.79448">
        <ele>177.212893</ele>
        <time>2011-01-29T15:36:56Z</time>
      </trkpt>
      <trkpt lat="46.80665" lon="4.79469">
        <ele>176.19925</ele>
        <time>2011-01-29T15:36:59Z</time>
      </trkpt>
      <trkpt lat="46.80659" lon="4.79491">
        <ele>175.428178</ele>
        <time>2011-01-29T15:37:02Z</time>
      </trkpt>
      <trkpt lat="46.80655" lon="4.79506">
        <ele>174.896547</ele>
        <time>2011-01-29T15:37:04Z</time>
      </trkpt>
      <trkpt lat="46.80651" lon="4.79521">
        <ele>174.504551</ele>
        <time>2011-01-29T15:37:06Z</time>
      </trkpt>
      <trkpt lat="46.80646" lon="4.79543">
        <ele>174.121416</ele>
        <time>2011-01-29T15:37:09Z</time>
      </trkpt>
      <trkpt lat="46.8064" lon="4.79565">
        <ele>173.698402</ele>
        <time>2011-01-29T15:37:12Z</time>
      </trkpt>
      <trkpt lat="46.80636" lon="4.79579">
        <ele>173.290051</ele>
        <time>2011-01-29T15:37:14Z</time>
      </trkpt>
      <trkpt lat="46.80633" lon="4.79601">
        <ele>172.902539</ele>
        <time>2011-01-29T15:37:17Z</time>
      </trkpt>
      <trkpt lat="46.8063" lon="4.79613">
        <ele>172.478673</ele>
        <time>2011-01-29T15:37:19Z</time>
      </trkpt>
      <trkpt lat="46.80626" lon="4.79632">
        <ele>172.005462</ele>
        <time>2011-01-29T15:37:22Z</time>
      </trkpt>
      <trkpt lat="46.80622" lon="4.7965">
        <ele>171.498503</ele>
        <time>2011-01-29T15:37:25Z</time>
      </trkpt>
      <trkpt lat="46.80617" lon="4.79669">
        <ele>170.963185</ele>
        <time>2011-01-29T15:37:28Z</time>
      </trkpt>
      <trkpt lat="46.80612" lon="4.79691">
        <ele>170.417141</ele>
        <time>2011-01-29T15:37:31Z</time>
      </trkpt>
      <trkpt lat="46.80608" lon="4.79705">
        <ele>169.910123</ele>
        <time>2011-01-29T15:37:33Z</time>
      </trkpt>
      <trkpt lat="46.80605" lon="4.79719">
        <ele>169.435434</ele>
        <time>2011-01-29T15:37:35Z</time>
      </trkpt>
      <trkpt lat="46.806" lon="4.7974">
        <ele>168.864432</ele>
        <time>2011-01-29T15:37:38Z</time>
      </trkpt>
      <trkpt lat="46.80595" lon="4.79761">
        <ele>168.152027</ele>
        <time>2011-01-29T15:37:41Z</time>
      </trkpt>
      <trkpt lat="46.80591" lon="4.79782">
        <ele>167.487165</ele>
        <time>2011-01-29T15:37:44Z</time>
      </trkpt>
      <trkpt lat="46.80588" lon="4.79797">
        <ele>166.96767</ele>
        <time>2011-01-29T15:37:46Z</time>
      </trkpt>
      <trkpt lat="46.80585" lon="4.79812">
        <ele>166.51277</ele>
        <time>2011-01-29T15:37:48Z</time>
      </trkpt>
      <trkpt lat="46.80581" lon="4.79835">
        <ele>166.146653</ele>
        <time>2011-01-29T15:37:51Z</time>
      </trkpt>
      <trkpt lat="46.80576" lon="4.79857">
        <ele>165.955603</ele>
        <time>2011-01-29T15:37:54Z</time>
      </trkpt>
      <trkpt lat="46.80572" lon="4.79879">
        <ele>165.897643</ele>
        <time>2011-01-29T15:37:57Z</time>
      </trkpt>
      <trkpt lat="46.8057" lon="4.79895">
        <ele>165.866794</ele>
        <time>2011-01-29T15:37:59Z</time>
      </trkpt>
      <trkpt lat="46.80567" lon="4.79918">
        <ele>165.817626</ele>
        <time>2011-01-29T15:38:02Z</time>
      </trkpt>
      <trkpt lat="46.80565" lon="4.79934">
        <ele>165.773008</ele>
        <time>2011-01-29T15:38:04Z</time>
      </trkpt>
      <trkpt lat="46.80563" lon="4.79957">
        <ele>165.753465</ele>
        <time>2011-01-29T15:38:07Z</time>
      </trkpt>
      <trkpt lat="46.80561" lon="4.79972">
        <ele>165.847657</ele>
        <time>2011-01-29T15:38:09Z</time>
      </trkpt>
      <trkpt lat="46.80558" lon="4.79994">
        <ele>166.172639</ele>
        <time>2011-01-29T15:38:12Z</time>
      </trkpt>
      <trkpt lat="46.80556" lon="4.80009">
        <ele>166.698757</ele>
        <time>2011-01-29T15:38:14Z</time>
      </trkpt>
      <trkpt lat="46.80553" lon="4.80032">
        <ele>167.258432</ele>
        <time>2011-01-29T15:38:17Z</time>
      </trkpt>
      <trkpt lat="46.80551" lon="4.80047">
        <ele>167.7113</ele>
        <time>2011-01-29T15:38:19Z</time>
      </trkpt>
      <trkpt lat="46.80549" lon="4.80069">
        <ele>168.02908</ele>
        <time>2011-01-29T15:38:22Z</time>
      </trkpt>
      <trkpt lat="46.80546" lon="4.80092">
        <ele>168.296813</ele>
        <time>2011-01-29T15:38:25Z</time>
      </trkpt>
      <trkpt lat="46.80543" lon="4.80117">
        <ele>168.584598</ele>
        <time>2011-01-29T15:38:28Z</time>
      </trkpt>
      <trkpt lat="46.80542" lon="4.80132">
        <ele>168.88735</ele>
        <time>2011-01-29T15:38:30Z</time>
      </trkpt>
      <trkpt lat="46.8054" lon="4.80152">
        <ele>169.139004</ele>
        <time>2011-01-29T15:38:33Z</time>
      </trkpt>
      <trkpt lat="46.80535" lon="4.80168">
        <ele>169.279029</ele>
        <time>2011-01-29T15:38:36Z</time>
      </trkpt>
      <trkpt lat="46.80528" lon="4.80177">
        <ele>169.312621</ele>
        <time>2011-01-29T15:38:39Z</time>
      </trkpt>
      <trkpt lat="46.80519" lon="4.80181">
        <ele>169.253833</ele>
        <time>2011-01-29T15:38:42Z</time>
      </trkpt>
      <trkpt lat="46.80509" lon="4.8018">
        <ele>168.979409</ele>
        <time>2011-01-29T15:38:45Z</time>
      </trkpt>
      <trkpt lat="46.80497" lon="4.80178">
        <ele>168.488421</ele>
        <time>2011-01-29T15:38:48Z</time>
      </trkpt>
      <trkpt lat="46.80485" lon="4.80176">
        <ele>168.058554</ele>
        <time>2011-01-29T15:38:51Z</time>
      </trkpt>
      <trkpt lat="46.80472" lon="4.8018">
        <ele>167.875203</ele>
        <time>2011-01-29T15:38:54Z</time>
      </trkpt>
      <trkpt lat="46.80462" lon="4.80188">
        <ele>167.873359</ele>
        <time>2011-01-29T15:38:57Z</time>
      </trkpt>
      <trkpt lat="46.80456" lon="4.802">
        <ele>167.970294</ele>
        <time>2011-01-29T15:39:00Z</time>
      </trkpt>
      <trkpt lat="46.80452" lon="4.80215">
        <ele>168.356301</ele>
        <time>2011-01-29T15:39:03Z</time>
      </trkpt>
      <trkpt lat="46.80448" lon="4.8023">
        <ele>169.175293</ele>
        <time>2011-01-29T15:39:06Z</time>
      </trkpt>
      <trkpt lat="46.80442" lon="4.80241">
        <ele>170.040209</ele>
        <time>2011-01-29T15:39:09Z</time>
      </trkpt>
      <trkpt lat="46.80434" lon="4.80249">
        <ele>170.51857</ele>
        <time>2011-01-29T15:39:12Z</time>
      </trkpt>
      <trkpt lat="46.80427" lon="4.80256">
        <ele>170.64946</ele>
        <time>2011-01-29T15:39:15Z</time>
      </trkpt>
      <trkpt lat="46.80419" lon="4.80269">
        <ele>170.624872</ele>
        <time>2011-01-29T15:39:19Z</time>
      </trkpt>
      <trkpt lat="46.80414" lon="4.80282">
        <ele>170.571965</ele>
        <time>2011-01-29T15:39:22Z</time>
      </trkpt>
      <trkpt lat="46.80411" lon="4.80297">
        <ele>170.550608</ele>
        <time>2011-01-29T15:39:25Z</time>
      </trkpt>
      <trkpt lat="46.80409" lon="4.80311">
        <ele>170.595003</ele>
        <time>2011-01-29T15:39:28Z</time>
      </trkpt>
      <trkpt lat="46.80407" lon="4.80325">
        <ele>170.712107</ele>
        <time>2011-01-29T15:39:31Z</time>
      </trkpt>
      <trkpt lat="46.80405" lon="4.80341">
        <ele>170.872988</ele>
        <time>2011-01-29T15:39:34Z</time>
      </trkpt>
      <trkpt lat="46.80402" lon="4.80361">
        <ele>171.05376</ele>
        <time>2011-01-29T15:39:37Z</time>
      </trkpt>
      <trkpt lat="46.804" lon="4.8038">
        <ele>171.257842</ele>
        <time>2011-01-29T15:39:40Z</time>
      </trkpt>
      <trkpt lat="46.80397" lon="4.80398">
        <ele>171.580169</ele>
        <time>2011-01-29T15:39:43Z</time>
      </trkpt>
      <trkpt lat="46.80394" lon="4.80415">
        <ele>172.231732</ele>
        <time>2011-01-29T15:39:46Z</time>
      </trkpt>
      <trkpt lat="46.80391" lon="4.80432">
        <ele>173.185988</ele>
        <time>2011-01-29T15:39:49Z</time>
      </trkpt>
      <trkpt lat="46.80388" lon="4.80448">
        <ele>174.033461</ele>
        <time>2011-01-29T15:39:52Z</time>
      </trkpt>
      <trkpt lat="46.80384" lon="4.80461">
        <ele>174.469743</ele>
        <time>2011-01-29T15:39:55Z</time>
      </trkpt>
      <trkpt lat="46.80376" lon="4.8047">
        <ele>174.566309</ele>
        <time>2011-01-29T15:39:58Z</time>
      </trkpt>
      <trkpt lat="46.80366" lon="4.80474">
        <ele>174.532127</ele>
        <time>2011-01-29T15:40:02Z</time>
      </trkpt>
      <trkpt lat="46.80356" lon="4.80472">
        <ele>174.51748</ele>
        <time>2011-01-29T15:40:05Z</time>
      </trkpt>
      <trkpt lat="46.80344" lon="4.80472">
        <ele>174.571716</ele>
        <time>2011-01-29T15:40:08Z</time>
      </trkpt>
      <trkpt lat="46.80334" lon="4.80475">
        <ele>174.685954</ele>
        <time>2011-01-29T15:40:10Z</time>
      </trkpt>
      <trkpt lat="46.80323" lon="4.80474">
        <ele>174.834</ele>
        <time>2011-01-29T15:40:13Z</time>
      </trkpt>
      <trkpt lat="46.80313" lon="4.80473">
        <ele>175.005401</ele>
        <time>2011-01-29T15:40:16Z</time>
      </trkpt>
      <trkpt lat="46.80301" lon="4.80472">
        <ele>175.229568</ele>
        <time>2011-01-29T15:40:19Z</time>
      </trkpt>
      <trkpt lat="46.80292" lon="4.80471">
        <ele>175.5584</ele>
        <time>2011-01-29T15:40:22Z</time>
      </trkpt>
      <trkpt lat="46.80281" lon="4.80472">
        <ele>176.002422</ele>
        <time>2011-01-29T15:40:26Z</time>
      </trkpt>
      <trkpt lat="46.80281" lon="4.80472">
        <ele>176.442119</ele>
        <time>2011-01-29T15:40:27Z</time>
      </trkpt>
      <trkpt lat="46.80266" lon="4.8047">
        <ele>176.772716</ele>
        <time>2011-01-29T15:40:32Z</time>
      </trkpt>
      <trkpt lat="46.80266" lon="4.8047">
        <ele>177.008724</ele>
        <time>2011-01-29T15:40:36Z</time>
      </trkpt>
      <trkpt lat="46.80266" lon="4.8047">
        <ele>177.152828</ele>
        <time>2011-01-29T15:41:04Z</time>
      </trkpt>
      <trkpt lat="46.80241" lon="4.80471">
        <ele>177.243037</ele>
        <time>2011-01-29T15:46:54Z</time>
      </trkpt>
      <trkpt lat="46.80231" lon="4.8047">
        <ele>177.418356</ele>
        <time>2011-01-29T15:46:57Z</time>
      </trkpt>
      <trkpt lat="46.80222" lon="4.80468">
        <ele>177.775361</ele>
        <time>2011-01-29T15:46:59Z</time>
      </trkpt>
      <trkpt lat="46.80206" lon="4.80465">
        <ele>178.622263</ele>
        <time>2011-01-29T15:47:02Z</time>
      </trkpt>
      <trkpt lat="46.80196" lon="4.80463">
        <ele>179.986833</ele>
        <time>2011-01-29T15:47:04Z</time>
      </trkpt>
      <trkpt lat="46.80179" lon="4.80459">
        <ele>181.206628</ele>
        <time>2011-01-29T15:47:07Z</time>
      </trkpt>
      <trkpt lat="46.80162" lon="4.80455">
        <ele>181.826251</ele>
        <time>2011-01-29T15:47:10Z</time>
      </trkpt>
      <trkpt lat="46.80145" lon="4.80452">
        <ele>182.038835</ele>
        <time>2011-01-29T15:47:13Z</time>
      </trkpt>
      <trkpt lat="46.80133" lon="4.80449">
        <ele>182.097418</ele>
        <time>2011-01-29T15:47:15Z</time>
      </trkpt>
      <trkpt lat="46.80122" lon="4.80445">
        <ele>182.142174</ele>
        <time>2011-01-29T15:47:17Z</time>
      </trkpt>
      <trkpt lat="46.80104" lon="4.8044">
        <ele>182.188004</ele>
        <time>2011-01-29T15:47:20Z</time>
      </trkpt>
      <trkpt lat="46.80085" lon="4.80435">
        <ele>182.212595</ele>
        <time>2011-01-29T15:47:23Z</time>
      </trkpt>
      <trkpt lat="46.80066" lon="4.80431">
        <ele>182.215148</ele>
        <time>2011-01-29T15:47:26Z</time>
      </trkpt>
      <trkpt lat="46.80055" lon="4.80428">
        <ele>182.204726</ele>
        <time>2011-01-29T15:47:28Z</time>
      </trkpt>
      <trkpt lat="46.80044" lon="4.80424">
        <ele>182.193281</ele>
        <time>2011-01-29T15:47:30Z</time>
      </trkpt>
      <trkpt lat="46.80034" lon="4.80421">
        <ele>182.19394</ele>
        <time>2011-01-29T15:47:32Z</time>
      </trkpt>
      <trkpt lat="46.80019" lon="4.80417">
        <ele>182.199493</ele>
        <time>2011-01-29T15:47:35Z</time>
      </trkpt>
      <trkpt lat="46.80005" lon="4.80415">
        <ele>182.150225</ele>
        <time>2011-01-29T15:47:38Z</time>
      </trkpt>
      <trkpt lat="46.79996" lon="4.80413">
        <ele>182.019066</ele>
        <time>2011-01-29T15:47:40Z</time>
      </trkpt>
      <trkpt lat="46.79987" lon="4.80412">
        <ele>181.881394</ele>
        <time>2011-01-29T15:47:42Z</time>
      </trkpt>
      <trkpt lat="46.79973" lon="4.80408">
        <ele>181.727947</ele>
        <time>2011-01-29T15:47:45Z</time>
      </trkpt>
      <trkpt lat="46.7996" lon="4.80404">
        <ele>181.424491</ele>
        <time>2011-01-29T15:47:48Z</time>
      </trkpt>
      <trkpt lat="46.79946" lon="4.80401">
        <ele>180.953309</ele>
        <time>2011-01-29T15:47:51Z</time>
      </trkpt>
      <trkpt lat="46.79932" lon="4.80397">
        <ele>180.390008</ele>
        <time>2011-01-29T15:47:54Z</time>
      </trkpt>
      <trkpt lat="46.79919" lon="4.80394">
        <ele>179.694161</ele>
        <time>2011-01-29T15:47:57Z</time>
      </trkpt>
      <trkpt lat="46.7991" lon="4.80392">
        <ele>178.906622</ele>
        <time>2011-01-29T15:47:59Z</time>
      </trkpt>
      <trkpt lat="46.79896" lon="4.80389">
        <ele>178.260331</ele>
        <time>2011-01-29T15:48:02Z</time>
      </trkpt>
      <trkpt lat="46.79882" lon="4.80386">
        <ele>177.905429</ele>
        <time>2011-01-29T15:48:05Z</time>
      </trkpt>
      <trkpt lat="46.79869" lon="4.80382">
        <ele>177.791994</ele>
        <time>2011-01-29T15:48:08Z</time>
      </trkpt>
      <trkpt lat="46.79857" lon="4.8038">
        <ele>177.812398</ele>
        <time>2011-01-29T15:48:11Z</time>
      </trkpt>
      <trkpt lat="46.79845" lon="4.80379">
        <ele>177.877318</ele>
        <time>2011-01-29T15:48:14Z</time>
      </trkpt>
      <trkpt lat="46.79835" lon="4.80377">
        <ele>177.94403</ele>
        <time>2011-01-29T15:48:17Z</time>
      </trkpt>
      <trkpt lat="46.79825" lon="4.80376">
        <ele>177.98981</ele>
        <time>2011-01-29T15:48:20Z</time>
      </trkpt>
      <trkpt lat="46.79815" lon="4.80374">
        <ele>178.008213</ele>
        <time>2011-01-29T15:48:23Z</time>
      </trkpt>
      <trkpt lat="46.79804" lon="4.80372">
        <ele>178.010359</ele>
        <time>2011-01-29T15:48:27Z</time>
      </trkpt>
      <trkpt lat="46.79793" lon="4.80371">
        <ele>178.030992</ele>
        <time>2011-01-29T15:48:31Z</time>
      </trkpt>
      <trkpt lat="46.79793" lon="4.80371">
        <ele>178.087819</ele>
        <time>2011-01-29T15:48:35Z</time>
      </trkpt>
      <trkpt lat="46.79771" lon="4.80365">
        <ele>178.184881</ele>
        <time>2011-01-29T15:48:39Z</time>
      </trkpt>
      <trkpt lat="46.79763" lon="4.80373">
        <ele>178.369513</ele>
        <time>2011-01-29T15:48:43Z</time>
      </trkpt>
      <trkpt lat="46.79759" lon="4.80387">
        <ele>178.691409</ele>
        <time>2011-01-29T15:48:46Z</time>
      </trkpt>
      <trkpt lat="46.79756" lon="4.80402">
        <ele>179.189576</ele>
        <time>2011-01-29T15:48:49Z</time>
      </trkpt>
      <trkpt lat="46.79752" lon="4.80418">
        <ele>179.831423</ele>
        <time>2011-01-29T15:48:52Z</time>
      </trkpt>
      <trkpt lat="46.79749" lon="4.80435">
        <ele>180.438093</ele>
        <time>2011-01-29T15:48:55Z</time>
      </trkpt>
      <trkpt lat="46.79745" lon="4.80453">
        <ele>181.088593</ele>
        <time>2011-01-29T15:48:58Z</time>
      </trkpt>
      <trkpt lat="46.7974" lon="4.80472">
        <ele>182.05932</ele>
        <time>2011-01-29T15:49:01Z</time>
      </trkpt>
      <trkpt lat="46.79738" lon="4.80485">
        <ele>183.198821</ele>
        <time>2011-01-29T15:49:03Z</time>
      </trkpt>
      <trkpt lat="46.79734" lon="4.80504">
        <ele>184.091569</ele>
        <time>2011-01-29T15:49:06Z</time>
      </trkpt>
      <trkpt lat="46.7973" lon="4.80523">
        <ele>184.596469</ele>
        <time>2011-01-29T15:49:09Z</time>
      </trkpt>
      <trkpt lat="46.79726" lon="4.80542">
        <ele>184.800215</ele>
        <time>2011-01-29T15:49:12Z</time>
      </trkpt>
      <trkpt lat="46.79722" lon="4.80562">
        <ele>184.844836</ele>
        <time>2011-01-29T15:49:15Z</time>
      </trkpt>
      <trkpt lat="46.79719" lon="4.80575">
        <ele>184.838978</ele>
        <time>2011-01-29T15:49:17Z</time>
      </trkpt>
      <trkpt lat="46.79716" lon="4.80593">
        <ele>184.832513</ele>
        <time>2011-01-29T15:49:20Z</time>
      </trkpt>
      <trkpt lat="46.79713" lon="4.80612">
        <ele>184.829321</ele>
        <time>2011-01-29T15:49:23Z</time>
      </trkpt>
      <trkpt lat="46.79711" lon="4.80626">
        <ele>184.812867</ele>
        <time>2011-01-29T15:49:25Z</time>
      </trkpt>
      <trkpt lat="46.79707" lon="4.80647">
        <ele>184.762514</ele>
        <time>2011-01-29T15:49:28Z</time>
      </trkpt>
      <trkpt lat="46.79704" lon="4.80662">
        <ele>184.625076</ele>
        <time>2011-01-29T15:49:30Z</time>
      </trkpt>
      <trkpt lat="46.79701" lon="4.80677">
        <ele>184.365486</ele>
        <time>2011-01-29T15:49:32Z</time>
      </trkpt>
      <trkpt lat="46.79696" lon="4.80699">
        <ele>184.043241</ele>
        <time>2011-01-29T15:49:35Z</time>
      </trkpt>
      <trkpt lat="46.79693" lon="4.80714">
        <ele>183.741722</ele>
        <time>2011-01-29T15:49:37Z</time>
      </trkpt>
      <trkpt lat="46.79688" lon="4.80734">
        <ele>183.512405</ele>
        <time>2011-01-29T15:49:40Z</time>
      </trkpt>
      <trkpt lat="46.79683" lon="4.80749">
        <ele>183.393788</ele>
        <time>2011-01-29T15:49:43Z</time>
      </trkpt>
      <trkpt lat="46.79677" lon="4.80763">
        <ele>183.35243</ele>
        <time>2011-01-29T15:49:46Z</time>
      </trkpt>
      <trkpt lat="46.79673" lon="4.80777">
        <ele>183.319425</ele>
        <time>2011-01-29T15:49:48Z</time>
      </trkpt>
      <trkpt lat="46.79669" lon="4.808">
        <ele>183.282813</ele>
        <time>2011-01-29T15:49:51Z</time>
      </trkpt>
      <trkpt lat="46.79663" lon="4.80824">
        <ele>183.261405</ele>
        <time>2011-01-29T15:49:54Z</time>
      </trkpt>
      <trkpt lat="46.79656" lon="4.80851">
        <ele>183.221683</ele>
        <time>2011-01-29T15:49:57Z</time>
      </trkpt>
      <trkpt lat="46.7965" lon="4.80882">
        <ele>183.111544</ele>
        <time>2011-01-29T15:50:00Z</time>
      </trkpt>
      <trkpt lat="46.79645" lon="4.80903">
        <ele>182.961169</ele>
        <time>2011-01-29T15:50:02Z</time>
      </trkpt>
      <trkpt lat="46.7964" lon="4.80924">
        <ele>182.831627</ele>
        <time>2011-01-29T15:50:04Z</time>
      </trkpt>
      <trkpt lat="46.79634" lon="4.80956">
        <ele>182.734001</ele>
        <time>2011-01-29T15:50:07Z</time>
      </trkpt>
      <trkpt lat="46.79628" lon="4.80988">
        <ele>182.670351</ele>
        <time>2011-01-29T15:50:10Z</time>
      </trkpt>
      <trkpt lat="46.79623" lon="4.8101">
        <ele>182.638493</ele>
        <time>2011-01-29T15:50:12Z</time>
      </trkpt>
      <trkpt lat="46.79618" lon="4.81041">
        <ele>182.61859</ele>
        <time>2011-01-29T15:50:15Z</time>
      </trkpt>
      <trkpt lat="46.79613" lon="4.81075">
        <ele>182.604305</ele>
        <time>2011-01-29T15:50:18Z</time>
      </trkpt>
      <trkpt lat="46.79608" lon="4.81099">
        <ele>182.597526</ele>
        <time>2011-01-29T15:50:20Z</time>
      </trkpt>
      <trkpt lat="46.79603" lon="4.81123">
        <ele>182.552682</ele>
        <time>2011-01-29T15:50:22Z</time>
      </trkpt>
      <trkpt lat="46.79595" lon="4.81161">
        <ele>182.348666</ele>
        <time>2011-01-29T15:50:25Z</time>
      </trkpt>
      <trkpt lat="46.7959" lon="4.81187">
        <ele>181.949468</ele>
        <time>2011-01-29T15:50:27Z</time>
      </trkpt>
      <trkpt lat="46.79585" lon="4.81212">
        <ele>181.459615</ele>
        <time>2011-01-29T15:50:29Z</time>
      </trkpt>
      <trkpt lat="46.79578" lon="4.81246">
        <ele>180.913223</ele>
        <time>2011-01-29T15:50:32Z</time>
      </trkpt>
      <trkpt lat="46.79572" lon="4.81276">
        <ele>180.340966</ele>
        <time>2011-01-29T15:50:35Z</time>
      </trkpt>
      <trkpt lat="46.79569" lon="4.81307">
        <ele>179.916921</ele>
        <time>2011-01-29T15:50:38Z</time>
      </trkpt>
      <trkpt lat="46.79564" lon="4.81336">
        <ele>179.706673</ele>
        <time>2011-01-29T15:50:41Z</time>
      </trkpt>
      <trkpt lat="46.79558" lon="4.81364">
        <ele>179.577682</ele>
        <time>2011-01-29T15:50:44Z</time>
      </trkpt>
      <trkpt lat="46.79555" lon="4.81383">
        <ele>179.449194</ele>
        <time>2011-01-29T15:50:46Z</time>
      </trkpt>
      <trkpt lat="46.79551" lon="4.81401">
        <ele>179.344439</ele>
        <time>2011-01-29T15:50:48Z</time>
      </trkpt>
      <trkpt lat="46.79548" lon="4.81419">
        <ele>179.177351</ele>
        <time>2011-01-29T15:50:50Z</time>
      </trkpt>
      <trkpt lat="46.79542" lon="4.81445">
        <ele>178.830303</ele>
        <time>2011-01-29T15:50:53Z</time>
      </trkpt>
      <trkpt lat="46.79536" lon="4.81469">
        <ele>178.377729</ele>
        <time>2011-01-29T15:50:56Z</time>
      </trkpt>
      <trkpt lat="46.79533" lon="4.81484">
        <ele>177.933643</ele>
        <time>2011-01-29T15:50:58Z</time>
      </trkpt>
      <trkpt lat="46.79528" lon="4.81506">
        <ele>177.455824</ele>
        <time>2011-01-29T15:51:01Z</time>
      </trkpt>
      <trkpt lat="46.79525" lon="4.8152">
        <ele>176.925827</ele>
        <time>2011-01-29T15:51:03Z</time>
      </trkpt>
      <trkpt lat="46.79523" lon="4.81534">
        <ele>176.461071</ele>
        <time>2011-01-29T15:51:05Z</time>
      </trkpt>
      <trkpt lat="46.7952" lon="4.81551">
        <ele>176.173834</ele>
        <time>2011-01-29T15:51:08Z</time>
      </trkpt>
      <trkpt lat="46.79516" lon="4.81566">
        <ele>176.045518</ele>
        <time>2011-01-29T15:51:11Z</time>
      </trkpt>
      <trkpt lat="46.79512" lon="4.81581">
        <ele>175.995343</ele>
        <time>2011-01-29T15:51:14Z</time>
      </trkpt>
      <trkpt lat="46.79508" lon="4.81597">
        <ele>175.96384</ele>
        <time>2011-01-29T15:51:17Z</time>
      </trkpt>
      <trkpt lat="46.79503" lon="4.81616">
        <ele>175.933792</ele>
        <time>2011-01-29T15:51:20Z</time>
      </trkpt>
      <trkpt lat="46.79499" lon="4.81636">
        <ele>175.913428</ele>
        <time>2011-01-29T15:51:23Z</time>
      </trkpt>
      <trkpt lat="46.79497" lon="4.8165">
        <ele>175.906676</ele>
        <time>2011-01-29T15:51:25Z</time>
      </trkpt>
      <trkpt lat="46.79495" lon="4.81671">
        <ele>176.050829</ele>
        <time>2011-01-29T15:51:28Z</time>
      </trkpt>
      <trkpt lat="46.79493" lon="4.81689">
        <ele>176.516358</ele>
        <time>2011-01-29T15:51:31Z</time>
      </trkpt>
      <trkpt lat="46.79489" lon="4.81703">
        <ele>177.134573</ele>
        <time>2011-01-29T15:51:34Z</time>
      </trkpt>
      <trkpt lat="46.79489" lon="4.81703">
        <ele>177.556304</ele>
        <time>2011-01-29T15:51:36Z</time>
      </trkpt>
      <trkpt lat="46.79481" lon="4.81724">
        <ele>177.697288</ele>
        <time>2011-01-29T15:51:41Z</time>
      </trkpt>
      <trkpt lat="46.79479" lon="4.81742">
        <ele>177.674873</ele>
        <time>2011-01-29T15:51:44Z</time>
      </trkpt>
      <trkpt lat="46.79477" lon="4.81762">
        <ele>177.586286</ele>
        <time>2011-01-29T15:51:47Z</time>
      </trkpt>
      <trkpt lat="46.79473" lon="4.81776">
        <ele>177.480559</ele>
        <time>2011-01-29T15:51:49Z</time>
      </trkpt>
      <trkpt lat="46.7947" lon="4.8179">
        <ele>177.387849</ele>
        <time>2011-01-29T15:51:51Z</time>
      </trkpt>
      <trkpt lat="46.79466" lon="4.81812">
        <ele>177.313986</ele>
        <time>2011-01-29T15:51:54Z</time>
      </trkpt>
      <trkpt lat="46.79461" lon="4.81835">
        <ele>177.266928</ele>
        <time>2011-01-29T15:51:57Z</time>
      </trkpt>
      <trkpt lat="46.79457" lon="4.81858">
        <ele>177.261536</ele>
        <time>2011-01-29T15:52:00Z</time>
      </trkpt>
      <trkpt lat="46.79452" lon="4.81881">
        <ele>177.297504</ele>
        <time>2011-01-29T15:52:03Z</time>
      </trkpt>
      <trkpt lat="46.79448" lon="4.81904">
        <ele>177.438335</ele>
        <time>2011-01-29T15:52:06Z</time>
      </trkpt>
      <trkpt lat="46.79445" lon="4.81924">
        <ele>177.702736</ele>
        <time>2011-01-29T15:52:09Z</time>
      </trkpt>
      <trkpt lat="46.79441" lon="4.81943">
        <ele>177.943817</ele>
        <time>2011-01-29T15:52:12Z</time>
      </trkpt>
      <trkpt lat="46.79439" lon="4.81957">
        <ele>178.049768</ele>
        <time>2011-01-29T15:52:14Z</time>
      </trkpt>
      <trkpt lat="46.79435" lon="4.81977">
        <ele>177.946887</ele>
        <time>2011-01-29T15:52:17Z</time>
      </trkpt>
      <trkpt lat="46.79433" lon="4.81991">
        <ele>177.625174</ele>
        <time>2011-01-29T15:52:19Z</time>
      </trkpt>
      <trkpt lat="46.7943" lon="4.82013">
        <ele>177.287639</ele>
        <time>2011-01-29T15:52:22Z</time>
      </trkpt>
      <trkpt lat="46.79427" lon="4.82027">
        <ele>177.111685</ele>
        <time>2011-01-29T15:52:24Z</time>
      </trkpt>
      <trkpt lat="46.79422" lon="4.82049">
        <ele>177.062344</ele>
        <time>2011-01-29T15:52:27Z</time>
      </trkpt>
      <trkpt lat="46.79417" lon="4.82065">
        <ele>176.998052</ele>
        <time>2011-01-29T15:52:29Z</time>
      </trkpt>
      <trkpt lat="46.7941" lon="4.82093">
        <ele>176.833751</ele>
        <time>2011-01-29T15:52:32Z</time>
      </trkpt>
      <trkpt lat="46.79405" lon="4.82113">
        <ele>176.60449</ele>
        <time>2011-01-29T15:52:34Z</time>
      </trkpt>
      <trkpt lat="46.79395" lon="4.82145">
        <ele>176.319467</ele>
        <time>2011-01-29T15:52:37Z</time>
      </trkpt>
      <trkpt lat="46.79386" lon="4.8218">
        <ele>175.986724</ele>
        <time>2011-01-29T15:52:40Z</time>
      </trkpt>
      <trkpt lat="46.79379" lon="4.82204">
        <ele>175.694289</ele>
        <time>2011-01-29T15:52:42Z</time>
      </trkpt>
      <trkpt lat="46.79371" lon="4.82239">
        <ele>175.503295</ele>
        <time>2011-01-29T15:52:45Z</time>
      </trkpt>
      <trkpt lat="46.79366" lon="4.82262">
        <ele>175.396868</ele>
        <time>2011-01-29T15:52:47Z</time>
      </trkpt>
      <trkpt lat="46.79359" lon="4.82294">
        <ele>175.33019</ele>
        <time>2011-01-29T15:52:50Z</time>
      </trkpt>
      <trkpt lat="46.79356" lon="4.82312">
        <ele>175.288603</ele>
        <time>2011-01-29T15:52:52Z</time>
      </trkpt>
      <trkpt lat="46.79351" lon="4.82339">
        <ele>175.222624</ele>
        <time>2011-01-29T15:52:55Z</time>
      </trkpt>
      <trkpt lat="46.79348" lon="4.82357">
        <ele>174.960632</ele>
        <time>2011-01-29T15:52:57Z</time>
      </trkpt>
      <trkpt lat="46.7934" lon="4.82383">
        <ele>174.441867</ele>
        <time>2011-01-29T15:53:00Z</time>
      </trkpt>
      <trkpt lat="46.79335" lon="4.82414">
        <ele>173.860346</ele>
        <time>2011-01-29T15:53:03Z</time>
      </trkpt>
      <trkpt lat="46.79332" lon="4.82435">
        <ele>173.428066</ele>
        <time>2011-01-29T15:53:05Z</time>
      </trkpt>
      <trkpt lat="46.79325" lon="4.82467">
        <ele>173.186192</ele>
        <time>2011-01-29T15:53:08Z</time>
      </trkpt>
      <trkpt lat="46.79321" lon="4.82488">
        <ele>173.082888</ele>
        <time>2011-01-29T15:53:10Z</time>
      </trkpt>
      <trkpt lat="46.79317" lon="4.8251">
        <ele>173.011827</ele>
        <time>2011-01-29T15:53:12Z</time>
      </trkpt>
      <trkpt lat="46.7931" lon="4.82542">
        <ele>172.782298</ele>
        <time>2011-01-29T15:53:15Z</time>
      </trkpt>
      <trkpt lat="46.79306" lon="4.82563">
        <ele>172.288152</ele>
        <time>2011-01-29T15:53:17Z</time>
      </trkpt>
      <trkpt lat="46.793" lon="4.82594">
        <ele>171.673863</ele>
        <time>2011-01-29T15:53:20Z</time>
      </trkpt>
      <trkpt lat="46.79296" lon="4.82623">
        <ele>171.108406</ele>
        <time>2011-01-29T15:53:23Z</time>
      </trkpt>
      <trkpt lat="46.79293" lon="4.8264">
        <ele>170.637953</ele>
        <time>2011-01-29T15:53:25Z</time>
      </trkpt>
      <trkpt lat="46.7929" lon="4.8266">
        <ele>170.261697</ele>
        <time>2011-01-29T15:53:28Z</time>
      </trkpt>
      <trkpt lat="46.79288" lon="4.82675">
        <ele>169.882619</ele>
        <time>2011-01-29T15:53:30Z</time>
      </trkpt>
      <trkpt lat="46.79291" lon="4.8269">
        <ele>169.376723</ele>
        <time>2011-01-29T15:53:32Z</time>
      </trkpt>
      <trkpt lat="46.79294" lon="4.82716">
        <ele>168.694324</ele>
        <time>2011-01-29T15:53:35Z</time>
      </trkpt>
      <trkpt lat="46.79295" lon="4.82734">
        <ele>167.889542</ele>
        <time>2011-01-29T15:53:37Z</time>
      </trkpt>
      <trkpt lat="46.79291" lon="4.8276">
        <ele>167.149235</ele>
        <time>2011-01-29T15:53:40Z</time>
      </trkpt>
      <trkpt lat="46.79286" lon="4.82775">
        <ele>166.621659</ele>
        <time>2011-01-29T15:53:42Z</time>
      </trkpt>
      <trkpt lat="46.79278" lon="4.82795">
        <ele>166.279949</ele>
        <time>2011-01-29T15:53:45Z</time>
      </trkpt>
      <trkpt lat="46.79268" lon="4.82814">
        <ele>166.054473</ele>
        <time>2011-01-29T15:53:48Z</time>
      </trkpt>
      <trkpt lat="46.7926" lon="4.82825">
        <ele>165.907567</ele>
        <time>2011-01-29T15:53:50Z</time>
      </trkpt>
      <trkpt lat="46.79248" lon="4.82841">
        <ele>165.823182</ele>
        <time>2011-01-29T15:53:53Z</time>
      </trkpt>
      <trkpt lat="46.79236" lon="4.82856">
        <ele>165.721452</ele>
        <time>2011-01-29T15:53:56Z</time>
      </trkpt>
      <trkpt lat="46.79228" lon="4.82866">
        <ele>165.500258</ele>
        <time>2011-01-29T15:53:58Z</time>
      </trkpt>
      <trkpt lat="46.79217" lon="4.82882">
        <ele>165.171441</ele>
        <time>2011-01-29T15:54:01Z</time>
      </trkpt>
      <trkpt lat="46.79204" lon="4.829">
        <ele>164.814525</ele>
        <time>2011-01-29T15:54:04Z</time>
      </trkpt>
      <trkpt lat="46.79194" lon="4.8292">
        <ele>164.463553</ele>
        <time>2011-01-29T15:54:07Z</time>
      </trkpt>
      <trkpt lat="46.79188" lon="4.82933">
        <ele>164.048841</ele>
        <time>2011-01-29T15:54:09Z</time>
      </trkpt>
      <trkpt lat="46.79178" lon="4.82951">
        <ele>163.444348</ele>
        <time>2011-01-29T15:54:12Z</time>
      </trkpt>
      <trkpt lat="46.79166" lon="4.8297">
        <ele>162.645123</ele>
        <time>2011-01-29T15:54:15Z</time>
      </trkpt>
      <trkpt lat="46.79159" lon="4.82983">
        <ele>161.810526</ele>
        <time>2011-01-29T15:54:17Z</time>
      </trkpt>
      <trkpt lat="46.79151" lon="4.82995">
        <ele>161.023702</ele>
        <time>2011-01-29T15:54:19Z</time>
      </trkpt>
      <trkpt lat="46.7914" lon="4.83013">
        <ele>160.084171</ele>
        <time>2011-01-29T15:54:22Z</time>
      </trkpt>
      <trkpt lat="46.79133" lon="4.83026">
        <ele>158.908824</ele>
        <time>2011-01-29T15:54:24Z</time>
      </trkpt>
      <trkpt lat="46.79126" lon="4.83038">
        <ele>157.785773</ele>
        <time>2011-01-29T15:54:26Z</time>
      </trkpt>
      <trkpt lat="46.79115" lon="4.83059">
        <ele>156.778968</ele>
        <time>2011-01-29T15:54:29Z</time>
      </trkpt>
      <trkpt lat="46.79107" lon="4.83074">
        <ele>155.63092</ele>
        <time>2011-01-29T15:54:31Z</time>
      </trkpt>
      <trkpt lat="46.79097" lon="4.83094">
        <ele>154.299169</ele>
        <time>2011-01-29T15:54:34Z</time>
      </trkpt>
      <trkpt lat="46.79091" lon="4.83106">
        <ele>153.0841</ele>
        <time>2011-01-29T15:54:36Z</time>
      </trkpt>
      <trkpt lat="46.79082" lon="4.83124">
        <ele>152.325489</ele>
        <time>2011-01-29T15:54:39Z</time>
      </trkpt>
      <trkpt lat="46.79075" lon="4.83136">
        <ele>152.059926</ele>
        <time>2011-01-29T15:54:41Z</time>
      </trkpt>
      <trkpt lat="46.79068" lon="4.83147">
        <ele>152.045567</ele>
        <time>2011-01-29T15:54:43Z</time>
      </trkpt>
      <trkpt lat="46.79061" lon="4.83159">
        <ele>152.093527</ele>
        <time>2011-01-29T15:54:45Z</time>
      </trkpt>
      <trkpt lat="46.79055" lon="4.8317">
        <ele>152.134041</ele>
        <time>2011-01-29T15:54:47Z</time>
      </trkpt>
      <trkpt lat="46.79046" lon="4.83186">
        <ele>152.147396</ele>
        <time>2011-01-29T15:54:50Z</time>
      </trkpt>
      <trkpt lat="46.7904" lon="4.83197">
        <ele>152.135717</ele>
        <time>2011-01-29T15:54:52Z</time>
      </trkpt>
      <trkpt lat="46.79034" lon="4.83209">
        <ele>152.118549</ele>
        <time>2011-01-29T15:54:54Z</time>
      </trkpt>
      <trkpt lat="46.79023" lon="4.83225">
        <ele>152.113548</ele>
        <time>2011-01-29T15:54:57Z</time>
      </trkpt>
      <trkpt lat="46.79014" lon="4.83242">
        <ele>152.128396</ele>
        <time>2011-01-29T15:55:00Z</time>
      </trkpt>
      <trkpt lat="46.79006" lon="4.83258">
        <ele>152.156152</ele>
        <time>2011-01-29T15:55:03Z</time>
      </trkpt>
      <trkpt lat="46.78998" lon="4.83274">
        <ele>152.236995</ele>
        <time>2011-01-29T15:55:06Z</time>
      </trkpt>
      <trkpt lat="46.78991" lon="4.83289">
        <ele>152.419574</ele>
        <time>2011-01-29T15:55:09Z</time>
      </trkpt>
      <trkpt lat="46.78985" lon="4.83304">
        <ele>152.63951</ele>
        <time>2011-01-29T15:55:12Z</time>
      </trkpt>
      <trkpt lat="46.78979" lon="4.8332">
        <ele>152.789294</ele>
        <time>2011-01-29T15:55:15Z</time>
      </trkpt>
      <trkpt lat="46.78973" lon="4.83335">
        <ele>152.868535</ele>
        <time>2011-01-29T15:55:18Z</time>
      </trkpt>
      <trkpt lat="46.78967" lon="4.8335">
        <ele>152.928506</ele>
        <time>2011-01-29T15:55:21Z</time>
      </trkpt>
      <trkpt lat="46.78962" lon="4.83365">
        <ele>152.983681</ele>
        <time>2011-01-29T15:55:24Z</time>
      </trkpt>
      <trkpt lat="46.78957" lon="4.83379">
        <ele>153.029109</ele>
        <time>2011-01-29T15:55:27Z</time>
      </trkpt>
      <trkpt lat="46.78952" lon="4.83393">
        <ele>153.076107</ele>
        <time>2011-01-29T15:55:30Z</time>
      </trkpt>
      <trkpt lat="46.78946" lon="4.83406">
        <ele>153.126938</ele>
        <time>2011-01-29T15:55:33Z</time>
      </trkpt>
      <trkpt lat="46.7894" lon="4.83424">
        <ele>153.17174</ele>
        <time>2011-01-29T15:55:36Z</time>
      </trkpt>
      <trkpt lat="46.78936" lon="4.83435">
        <ele>153.213663</ele>
        <time>2011-01-29T15:55:38Z</time>
      </trkpt>
      <trkpt lat="46.7893" lon="4.83452">
        <ele>153.260418</ele>
        <time>2011-01-29T15:55:41Z</time>
      </trkpt>
      <trkpt lat="46.78925" lon="4.83469">
        <ele>153.360513</ele>
        <time>2011-01-29T15:55:44Z</time>
      </trkpt>
      <trkpt lat="46.7892" lon="4.83486">
        <ele>153.572275</ele>
        <time>2011-01-29T15:55:47Z</time>
      </trkpt>
      <trkpt lat="46.78914" lon="4.83503">
        <ele>153.887745</ele>
        <time>2011-01-29T15:55:50Z</time>
      </trkpt>
      <trkpt lat="46.78909" lon="4.83519">
        <ele>154.308268</ele>
        <time>2011-01-29T15:55:53Z</time>
      </trkpt>
      <trkpt lat="46.78904" lon="4.83537">
        <ele>154.884987</ele>
        <time>2011-01-29T15:55:56Z</time>
      </trkpt>
      <trkpt lat="46.78899" lon="4.83552">
        <ele>155.614309</ele>
        <time>2011-01-29T15:55:59Z</time>
      </trkpt>
      <trkpt lat="46.78894" lon="4.83565">
        <ele>156.440468</ele>
        <time>2011-01-29T15:56:02Z</time>
      </trkpt>
      <trkpt lat="46.78889" lon="4.83579">
        <ele>157.334887</ele>
        <time>2011-01-29T15:56:05Z</time>
      </trkpt>
      <trkpt lat="46.78885" lon="4.83593">
        <ele>158.292367</ele>
        <time>2011-01-29T15:56:08Z</time>
      </trkpt>
      <trkpt lat="46.7888" lon="4.83606">
        <ele>159.280757</ele>
        <time>2011-01-29T15:56:11Z</time>
      </trkpt>
      <trkpt lat="46.78876" lon="4.8362">
        <ele>160.251087</ele>
        <time>2011-01-29T15:56:14Z</time>
      </trkpt>
      <trkpt lat="46.78872" lon="4.83633">
        <ele>161.186821</ele>
        <time>2011-01-29T15:56:17Z</time>
      </trkpt>
      <trkpt lat="46.78867" lon="4.83646">
        <ele>162.096268</ele>
        <time>2011-01-29T15:56:20Z</time>
      </trkpt>
      <trkpt lat="46.78862" lon="4.8366">
        <ele>162.975552</ele>
        <time>2011-01-29T15:56:23Z</time>
      </trkpt>
      <trkpt lat="46.78855" lon="4.83676">
        <ele>163.815939</ele>
        <time>2011-01-29T15:56:26Z</time>
      </trkpt>
      <trkpt lat="46.78849" lon="4.83691">
        <ele>164.622976</ele>
        <time>2011-01-29T15:56:29Z</time>
      </trkpt>
      <trkpt lat="46.78843" lon="4.83704">
        <ele>165.78672</ele>
        <time>2011-01-29T15:56:32Z</time>
      </trkpt>
      <trkpt lat="46.78836" lon="4.83716">
        <ele>168.327314</ele>
        <time>2011-01-29T15:56:35Z</time>
      </trkpt>
      <trkpt lat="46.7883" lon="4.8373">
        <ele>172.089784</ele>
        <time>2011-01-29T15:56:38Z</time>
      </trkpt>
      <trkpt lat="46.78824" lon="4.83744">
        <ele>175.230975</ele>
        <time>2011-01-29T15:56:41Z</time>
      </trkpt>
      <trkpt lat="46.78818" lon="4.83758">
        <ele>176.718032</ele>
        <time>2011-01-29T15:56:44Z</time>
      </trkpt>
      <trkpt lat="46.78811" lon="4.83773">
        <ele>177.143111</ele>
        <time>2011-01-29T15:56:47Z</time>
      </trkpt>
      <trkpt lat="46.78804" lon="4.8379">
        <ele>177.246849</ele>
        <time>2011-01-29T15:56:50Z</time>
      </trkpt>
      <trkpt lat="46.78797" lon="4.83805">
        <ele>177.388526</ele>
        <time>2011-01-29T15:56:53Z</time>
      </trkpt>
      <trkpt lat="46.78791" lon="4.83815">
        <ele>177.813893</ele>
        <time>2011-01-29T15:56:55Z</time>
      </trkpt>
      <trkpt lat="46.78784" lon="4.83831">
        <ele>178.791953</ele>
        <time>2011-01-29T15:56:58Z</time>
      </trkpt>
      <trkpt lat="46.78784" lon="4.83831">
        <ele>180.064712</ele>
        <time>2011-01-29T15:57:01Z</time>
      </trkpt>
      <trkpt lat="46.78784" lon="4.83831">
        <ele>180.971139</ele>
        <time>2011-01-29T15:57:36Z</time>
      </trkpt>
      <trkpt lat="46.78763" lon="4.83868">
        <ele>181.356359</ele>
        <time>2011-01-29T15:57:48Z</time>
      </trkpt>
      <trkpt lat="46.78756" lon="4.83884">
        <ele>181.532596</ele>
        <time>2011-01-29T15:57:51Z</time>
      </trkpt>
      <trkpt lat="46.78756" lon="4.83902">
        <ele>181.719788</ele>
        <time>2011-01-29T15:57:54Z</time>
      </trkpt>
      <trkpt lat="46.78767" lon="4.83914">
        <ele>182.154681</ele>
        <time>2011-01-29T15:57:57Z</time>
      </trkpt>
      <trkpt lat="46.78775" lon="4.83922">
        <ele>183.000854</ele>
        <time>2011-01-29T15:57:59Z</time>
      </trkpt>
      <trkpt lat="46.78782" lon="4.83931">
        <ele>184.070343</ele>
        <time>2011-01-29T15:58:01Z</time>
      </trkpt>
      <trkpt lat="46.78793" lon="4.83944">
        <ele>185.161849</ele>
        <time>2011-01-29T15:58:04Z</time>
      </trkpt>
      <trkpt lat="46.78803" lon="4.83956">
        <ele>186.23378</ele>
        <time>2011-01-29T15:58:07Z</time>
      </trkpt>
      <trkpt lat="46.78805" lon="4.83972">
        <ele>187.173336</ele>
        <time>2011-01-29T15:58:10Z</time>
      </trkpt>
      <trkpt lat="46.78805" lon="4.83972">
        <ele>187.824627</ele>
        <time>2011-01-29T15:58:14Z</time>
      </trkpt>
      <trkpt lat="46.7881" lon="4.84">
        <ele>188.126779</ele>
        <time>2011-01-29T15:58:21Z</time>
      </trkpt>
      <trkpt lat="46.78812" lon="4.84018">
        <ele>188.168419</ele>
        <time>2011-01-29T15:58:24Z</time>
      </trkpt>
      <trkpt lat="46.78813" lon="4.84037">
        <ele>188.014718</ele>
        <time>2011-01-29T15:58:27Z</time>
      </trkpt>
      <trkpt lat="46.78811" lon="4.84054">
        <ele>187.657618</ele>
        <time>2011-01-29T15:58:29Z</time>
      </trkpt>
      <trkpt lat="46.78809" lon="4.84069">
        <ele>187.243176</ele>
        <time>2011-01-29T15:58:31Z</time>
      </trkpt>
      <trkpt lat="46.78807" lon="4.84086">
        <ele>186.922659</ele>
        <time>2011-01-29T15:58:33Z</time>
      </trkpt>
      <trkpt lat="46.78806" lon="4.84113">
        <ele>186.692505</ele>
        <time>2011-01-29T15:58:36Z</time>
      </trkpt>
      <trkpt lat="46.78803" lon="4.84143">
        <ele>186.555494</ele>
        <time>2011-01-29T15:58:39Z</time>
      </trkpt>
      <trkpt lat="46.78798" lon="4.84181">
        <ele>186.518042</ele>
        <time>2011-01-29T15:58:42Z</time>
      </trkpt>
      <trkpt lat="46.78793" lon="4.84201">
        <ele>186.838053</ele>
        <time>2011-01-29T15:58:44Z</time>
      </trkpt>
      <trkpt lat="46.7879" lon="4.84226">
        <ele>188.269956</ele>
        <time>2011-01-29T15:58:47Z</time>
      </trkpt>
      <trkpt lat="46.7879" lon="4.84226">
        <ele>190.690834</ele>
        <time>2011-01-29T15:58:49Z</time>
      </trkpt>
      <trkpt lat="46.78773" lon="4.84273">
        <ele>192.968062</ele>
        <time>2011-01-29T15:59:01Z</time>
      </trkpt>
      <trkpt lat="46.78764" lon="4.84283">
        <ele>194.56059</ele>
        <time>2011-01-29T15:59:04Z</time>
      </trkpt>
      <trkpt lat="46.78754" lon="4.84294">
        <ele>195.644115</ele>
        <time>2011-01-29T15:59:07Z</time>
      </trkpt>
      <trkpt lat="46.78739" lon="4.84308">
        <ele>196.548931</ele>
        <time>2011-01-29T15:59:10Z</time>
      </trkpt>
      <trkpt lat="46.78722" lon="4.84322">
        <ele>197.547977</ele>
        <time>2011-01-29T15:59:13Z</time>
      </trkpt>
      <trkpt lat="46.78712" lon="4.8433">
        <ele>198.523237</ele>
        <time>2011-01-29T15:59:15Z</time>
      </trkpt>
      <trkpt lat="46.78697" lon="4.84342">
        <ele>199.333448</ele>
        <time>2011-01-29T15:59:18Z</time>
      </trkpt>
      <trkpt lat="46.78683" lon="4.84354">
        <ele>199.960584</ele>
        <time>2011-01-29T15:59:21Z</time>
      </trkpt>
      <trkpt lat="46.78673" lon="4.84362">
        <ele>200.34961</ele>
        <time>2011-01-29T15:59:23Z</time>
      </trkpt>
      <trkpt lat="46.78659" lon="4.84373">
        <ele>200.511559</ele>
        <time>2011-01-29T15:59:26Z</time>
      </trkpt>
      <trkpt lat="46.78645" lon="4.84384">
        <ele>200.522497</ele>
        <time>2011-01-29T15:59:29Z</time>
      </trkpt>
      <trkpt lat="46.78635" lon="4.84393">
        <ele>200.466358</ele>
        <time>2011-01-29T15:59:31Z</time>
      </trkpt>
      <trkpt lat="46.78626" lon="4.84398">
        <ele>200.339445</ele>
        <time>2011-01-29T15:59:33Z</time>
      </trkpt>
      <trkpt lat="46.78613" lon="4.84406">
        <ele>200.081666</ele>
        <time>2011-01-29T15:59:36Z</time>
      </trkpt>
      <trkpt lat="46.78599" lon="4.84411">
        <ele>199.731029</ele>
        <time>2011-01-29T15:59:39Z</time>
      </trkpt>
      <trkpt lat="46.78586" lon="4.8442">
        <ele>199.420623</ele>
        <time>2011-01-29T15:59:42Z</time>
      </trkpt>
      <trkpt lat="46.78577" lon="4.84425">
        <ele>199.010161</ele>
        <time>2011-01-29T15:59:44Z</time>
      </trkpt>
      <trkpt lat="46.78563" lon="4.84431">
        <ele>197.413223</ele>
        <time>2011-01-29T15:59:47Z</time>
      </trkpt>
      <trkpt lat="46.78551" lon="4.84439">
        <ele>193.957488</ele>
        <time>2011-01-29T15:59:50Z</time>
      </trkpt>
      <trkpt lat="46.78543" lon="4.84446">
        <ele>190.04697</ele>
        <time>2011-01-29T15:59:52Z</time>
      </trkpt>
      <trkpt lat="46.78535" lon="4.84453">
        <ele>187.534249</ele>
        <time>2011-01-29T15:59:54Z</time>
      </trkpt>
      <trkpt lat="46.78523" lon="4.84462">
        <ele>186.655878</ele>
        <time>2011-01-29T15:59:57Z</time>
      </trkpt>
      <trkpt lat="46.78512" lon="4.84469">
        <ele>186.684874</ele>
        <time>2011-01-29T15:59:59Z</time>
      </trkpt>
      <trkpt lat="46.78492" lon="4.84477">
        <ele>186.917432</ele>
        <time>2011-01-29T16:00:02Z</time>
      </trkpt>
      <trkpt lat="46.78481" lon="4.8448">
        <ele>187.022203</ele>
        <time>2011-01-29T16:00:04Z</time>
      </trkpt>
      <trkpt lat="46.78467" lon="4.84474">
        <ele>186.973335</ele>
        <time>2011-01-29T16:00:07Z</time>
      </trkpt>
      <trkpt lat="46.78458" lon="4.84478">
        <ele>186.734921</ele>
        <time>2011-01-29T16:00:10Z</time>
      </trkpt>
      <trkpt lat="46.78449" lon="4.84494">
        <ele>185.737511</ele>
        <time>2011-01-29T16:00:13Z</time>
      </trkpt>
      <trkpt lat="46.78444" lon="4.84508">
        <ele>182.999832</ele>
        <time>2011-01-29T16:00:15Z</time>
      </trkpt>
      <trkpt lat="46.7844" lon="4.84522">
        <ele>179.011443</ele>
        <time>2011-01-29T16:00:17Z</time>
      </trkpt>
      <trkpt lat="46.78433" lon="4.84543">
        <ele>175.74936</ele>
        <time>2011-01-29T16:00:20Z</time>
      </trkpt>
      <trkpt lat="46.78428" lon="4.84557">
        <ele>174.187069</ele>
        <time>2011-01-29T16:00:22Z</time>
      </trkpt>
      <trkpt lat="46.78417" lon="4.84578">
        <ele>173.808502</ele>
        <time>2011-01-29T16:00:25Z</time>
      </trkpt>
      <trkpt lat="46.784" lon="4.84601">
        <ele>173.950288</ele>
        <time>2011-01-29T16:00:28Z</time>
      </trkpt>
      <trkpt lat="46.78383" lon="4.84631">
        <ele>174.163222</ele>
        <time>2011-01-29T16:00:31Z</time>
      </trkpt>
      <trkpt lat="46.78369" lon="4.8465">
        <ele>174.28965</ele>
        <time>2011-01-29T16:00:33Z</time>
      </trkpt>
      <trkpt lat="46.78344" lon="4.84664">
        <ele>174.343608</ele>
        <time>2011-01-29T16:00:36Z</time>
      </trkpt>
      <trkpt lat="46.78319" lon="4.84675">
        <ele>174.368483</ele>
        <time>2011-01-29T16:00:39Z</time>
      </trkpt>
      <trkpt lat="46.78302" lon="4.84678">
        <ele>174.393951</ele>
        <time>2011-01-29T16:00:41Z</time>
      </trkpt>
      <trkpt lat="46.78289" lon="4.84697">
        <ele>174.417909</ele>
        <time>2011-01-29T16:00:44Z</time>
      </trkpt>
      <trkpt lat="46.78289" lon="4.84713">
        <ele>174.416774</ele>
        <time>2011-01-29T16:00:46Z</time>
      </trkpt>
      <trkpt lat="46.78292" lon="4.84735">
        <ele>174.395142</ele>
        <time>2011-01-29T16:00:49Z</time>
      </trkpt>
      <trkpt lat="46.78298" lon="4.84749">
        <ele>174.260385</ele>
        <time>2011-01-29T16:00:51Z</time>
      </trkpt>
      <trkpt lat="46.78303" lon="4.84764">
        <ele>173.892075</ele>
        <time>2011-01-29T16:00:53Z</time>
      </trkpt>
      <trkpt lat="46.78312" lon="4.84791">
        <ele>173.378793</ele>
        <time>2011-01-29T16:00:56Z</time>
      </trkpt>
      <trkpt lat="46.78315" lon="4.8481">
        <ele>172.921089</ele>
        <time>2011-01-29T16:00:58Z</time>
      </trkpt>
      <trkpt lat="46.78319" lon="4.84828">
        <ele>172.627737</ele>
        <time>2011-01-29T16:01:00Z</time>
      </trkpt>
      <trkpt lat="46.78325" lon="4.84857">
        <ele>172.48873</ele>
        <time>2011-01-29T16:01:03Z</time>
      </trkpt>
      <trkpt lat="46.78327" lon="4.84889">
        <ele>172.411547</ele>
        <time>2011-01-29T16:01:06Z</time>
      </trkpt>
      <trkpt lat="46.78309" lon="4.8491">
        <ele>172.320647</ele>
        <time>2011-01-29T16:01:09Z</time>
      </trkpt>
      <trkpt lat="46.7829" lon="4.84926">
        <ele>172.170859</ele>
        <time>2011-01-29T16:01:12Z</time>
      </trkpt>
      <trkpt lat="46.78277" lon="4.84936">
        <ele>171.928995</ele>
        <time>2011-01-29T16:01:14Z</time>
      </trkpt>
      <trkpt lat="46.78259" lon="4.84952">
        <ele>171.381115</ele>
        <time>2011-01-29T16:01:17Z</time>
      </trkpt>
      <trkpt lat="46.78248" lon="4.84964">
        <ele>170.282584</ele>
        <time>2011-01-29T16:01:19Z</time>
      </trkpt>
      <trkpt lat="46.78233" lon="4.84978">
        <ele>168.909337</ele>
        <time>2011-01-29T16:01:22Z</time>
      </trkpt>
      <trkpt lat="46.78224" lon="4.84983">
        <ele>167.836535</ele>
        <time>2011-01-29T16:01:24Z</time>
      </trkpt>
      <trkpt lat="46.78212" lon="4.8498">
        <ele>167.276014</ele>
        <time>2011-01-29T16:01:27Z</time>
      </trkpt>
      <trkpt lat="46.78203" lon="4.84975">
        <ele>167.077004</ele>
        <time>2011-01-29T16:01:29Z</time>
      </trkpt>
      <trkpt lat="46.78194" lon="4.8497">
        <ele>166.993914</ele>
        <time>2011-01-29T16:01:31Z</time>
      </trkpt>
      <trkpt lat="46.78184" lon="4.84967">
        <ele>166.803157</ele>
        <time>2011-01-29T16:01:33Z</time>
      </trkpt>
      <trkpt lat="46.78165" lon="4.84972">
        <ele>166.438593</ele>
        <time>2011-01-29T16:01:36Z</time>
      </trkpt>
      <trkpt lat="46.78165" lon="4.84972">
        <ele>166.049242</ele>
        <time>2011-01-29T16:01:38Z</time>
      </trkpt>
      <trkpt lat="46.78141" lon="4.84974">
        <ele>165.761527</ele>
        <time>2011-01-29T16:01:42Z</time>
      </trkpt>
      <trkpt lat="46.78122" lon="4.84975">
        <ele>165.503099</ele>
        <time>2011-01-29T16:01:45Z</time>
      </trkpt>
      <trkpt lat="46.78108" lon="4.84979">
        <ele>165.213104</ele>
        <time>2011-01-29T16:01:47Z</time>
      </trkpt>
      <trkpt lat="46.78091" lon="4.84986">
        <ele>164.729705</ele>
        <time>2011-01-29T16:01:50Z</time>
      </trkpt>
      <trkpt lat="46.78081" lon="4.8499">
        <ele>163.86102</ele>
        <time>2011-01-29T16:01:52Z</time>
      </trkpt>
      <trkpt lat="46.7807" lon="4.84995">
        <ele>162.884643</ele>
        <time>2011-01-29T16:01:55Z</time>
      </trkpt>
      <trkpt lat="46.78057" lon="4.85004">
        <ele>162.278181</ele>
        <time>2011-01-29T16:01:58Z</time>
      </trkpt>
      <trkpt lat="46.78045" lon="4.85007">
        <ele>162.100334</ele>
        <time>2011-01-29T16:02:01Z</time>
      </trkpt>
      <trkpt lat="46.78033" lon="4.85007">
        <ele>162.169365</ele>
        <time>2011-01-29T16:02:04Z</time>
      </trkpt>
      <trkpt lat="46.78019" lon="4.85007">
        <ele>162.375225</ele>
        <time>2011-01-29T16:02:07Z</time>
      </trkpt>
      <trkpt lat="46.7801" lon="4.85004">
        <ele>162.683887</ele>
        <time>2011-01-29T16:02:09Z</time>
      </trkpt>
      <trkpt lat="46.77997" lon="4.85001">
        <ele>163.058976</ele>
        <time>2011-01-29T16:02:12Z</time>
      </trkpt>
      <trkpt lat="46.77997" lon="4.85001">
        <ele>163.404188</ele>
        <time>2011-01-29T16:02:15Z</time>
      </trkpt>
      <trkpt lat="46.77995" lon="4.85049">
        <ele>163.608729</ele>
        <time>2011-01-29T16:02:18Z</time>
      </trkpt>
      <trkpt lat="46.77997" lon="4.85081">
        <ele>163.664179</ele>
        <time>2011-01-29T16:02:21Z</time>
      </trkpt>
      <trkpt lat="46.78001" lon="4.85107">
        <ele>163.609002</ele>
        <time>2011-01-29T16:02:24Z</time>
      </trkpt>
      <trkpt lat="46.78008" lon="4.85128">
        <ele>163.454504</ele>
        <time>2011-01-29T16:02:27Z</time>
      </trkpt>
      <trkpt lat="46.78014" lon="4.85141">
        <ele>163.253737</ele>
        <time>2011-01-29T16:02:29Z</time>
      </trkpt>
      <trkpt lat="46.78022" lon="4.85161">
        <ele>163.08709</ele>
        <time>2011-01-29T16:02:32Z</time>
      </trkpt>
      <trkpt lat="46.78029" lon="4.85176">
        <ele>162.990274</ele>
        <time>2011-01-29T16:02:34Z</time>
      </trkpt>
      <trkpt lat="46.78036" lon="4.85192">
        <ele>162.934584</ele>
        <time>2011-01-29T16:02:36Z</time>
      </trkpt>
      <trkpt lat="46.78048" lon="4.85217">
        <ele>162.849705</ele>
        <time>2011-01-29T16:02:39Z</time>
      </trkpt>
      <trkpt lat="46.78052" lon="4.85237">
        <ele>162.721273</ele>
        <time>2011-01-29T16:02:41Z</time>
      </trkpt>
      <trkpt lat="46.78059" lon="4.85257">
        <ele>162.611827</ele>
        <time>2011-01-29T16:02:43Z</time>
      </trkpt>
      <trkpt lat="46.78067" lon="4.8529">
        <ele>162.561741</ele>
        <time>2011-01-29T16:02:46Z</time>
      </trkpt>
      <trkpt lat="46.78075" lon="4.85323">
        <ele>162.555262</ele>
        <time>2011-01-29T16:02:49Z</time>
      </trkpt>
      <trkpt lat="46.7808" lon="4.85344">
        <ele>162.588865</ele>
        <time>2011-01-29T16:02:51Z</time>
      </trkpt>
      <trkpt lat="46.78087" lon="4.85373">
        <ele>162.811211</ele>
        <time>2011-01-29T16:02:54Z</time>
      </trkpt>
      <trkpt lat="46.7809" lon="4.85389">
        <ele>163.386392</ele>
        <time>2011-01-29T16:02:57Z</time>
      </trkpt>
      <trkpt lat="46.7809" lon="4.85389">
        <ele>164.118519</ele>
        <time>2011-01-29T16:02:58Z</time>
      </trkpt>
      <trkpt lat="46.78118" lon="4.85405">
        <ele>164.762362</ele>
        <time>2011-01-29T16:03:12Z</time>
      </trkpt>
      <trkpt lat="46.78118" lon="4.85405">
        <ele>165.301807</ele>
        <time>2011-01-29T16:03:16Z</time>
      </trkpt>
      <trkpt lat="46.78133" lon="4.85379">
        <ele>165.793076</ele>
        <time>2011-01-29T16:03:24Z</time>
      </trkpt>
      <trkpt lat="46.78133" lon="4.85379">
        <ele>166.243371</ele>
        <time>2011-01-29T16:03:28Z</time>
      </trkpt>
      <trkpt lat="46.78133" lon="4.85379">
        <ele>166.491042</ele>
        <time>2011-01-29T16:04:02Z</time>
      </trkpt>
      <trkpt lat="46.78133" lon="4.85379">
        <ele>166.40525</ele>
        <time>2011-01-29T16:05:12Z</time>
      </trkpt>
    </trkseg>
  </trk>
</gpx>